[[{"header":{"parameterUnit":"m.s-1","parameterCategory":1,"la1":30.6,"la2":29.2853,"lo1":-89.7004,"lo2":-87.6739,"dy":0.0162,"dx":0.0183,"nx":112,"ny":82,"refTime":"2023-06-16T06:00:00:Z","depth":0,"parameterNumber":2,"parameterNumberName":"U-component_of_WINDS"},"data":[0.0,0.0,0.0,0.0,0.0,0.0,0.0,0.0,0.0,0.0,0.0,0.0,0.0,0.0,0.0,0.0,0.0,0.0,0.0,0.0,0.0,0.0,0.0,0.0,0.0,0.0,0.0,0.0,0.0,0.0,0.0,0.0,0.0,0.0,0.0,0.0,0.0,0.0,0.0,0.0,0.0,0.0,0.0,0.0,0.0,0.0,0.0,0.0,0.0,0.0,0.0,0.0,0.0,0.0,0.0,0.0,0.0,0.0,0.0,0.0,0.0,0.0,0.0,0.0,0.0,0.0,0.0,0.0,0.0,0.0,0.0,0.0,0.0,0.0,0.0,0.0,0.0,0.0,0.0,0.0,0.0,0.0,0.0,0.0,0.0,0.0,0.0,0.0,0.0,0.0,-0.8496,-0.7181,-0.7835,-0.8445,-0.8723,-0.8818,-0.8526,-0.7719,0.0,0.0,0.0,0.0,0.0,0.0,0.0,0.0,0.0,0.0,0.0,0.0,0.0,0.0,0.0,0.0,0.0,0.0,0.0,0.0,0.0,0.0,0.0,0.0,0.0,0.0,0.0,0.0,0.0,0.0,0.0,0.0,0.0,0.0,0.0,0.0,0.0,0.0,0.0,0.0,0.0,0.0,0.0,0.0,0.0,0.0,0.0,0.0,0.0,0.0,0.0,0.0,0.0,0.0,0.0,0.0,0.0,0.0,0.0,0.0,0.0,0.0,0.0,0.0,0.0,0.0,0.0,0.0,0.0,0.0,0.0,0.0,0.0,0.0,0.0,0.0,0.0,0.0,0.0,0.0,0.0,0.0,0.0,0.0,0.0,0.0,0.0,0.0,0.0,0.0,0.0,0.0,0.0,0.0,0.0,0.0,0.0,0.0,0.0,0.0,0.0,0.0,0.0,0.0,-0.8011,-0.8532,-0.8564,-0.8716,-0.8893,-0.8689,-0.8384,-0.7997,0.0,0.0,0.0,0.0,0.0,0.0,0.0,0.0,0.0,0.0,0.0,0.0,0.0,0.0,0.0,0.0,0.0,0.0,0.0,0.0,0.0,0.0,0.0,0.0,0.0,0.0,0.0,0.0,0.0,0.0,0.0,0.0,0.0,0.0,0.0,0.0,0.0,0.0,0.0,0.0,0.0,0.0,0.0,0.0,0.0,0.0,0.0,0.0,0.0,0.0,0.0,0.0,0.0,0.0,0.0,0.0,0.0,0.0,0.0,0.0,0.0,0.0,0.0,0.0,0.0,0.0,0.0,0.0,0.0,0.0,0.0,0.0,0.0,0.0,0.0,0.0,0.0,0.0,0.0,0.0,0.0,0.0,0.0,0.0,0.0,0.0,0.0,0.0,0.0,0.0,0.0,0.0,0.0,0.0,0.0,0.0,0.0,0.0,0.0,0.0,0.0,0.0,0.0,-0.7213,-0.7903,-0.93,-0.902,-0.8804,-0.9035,-0.8777,-0.8445,-0.8065,-0.7604,0.0,0.0,0.0,0.0,0.0,0.0,0.0,0.0,0.0,0.0,0.0,0.0,0.0,0.0,0.0,0.0,0.0,0.0,0.0,0.0,0.0,0.0,0.0,0.0,0.0,0.0,0.0,0.0,0.0,0.0,0.0,0.0,0.0,0.0,0.0,0.0,0.0,0.0,0.0,0.0,0.0,0.0,0.0,0.0,0.0,0.0,0.0,0.0,0.0,0.0,0.0,0.0,0.0,0.0,0.0,0.0,0.0,0.0,0.0,0.0,0.0,0.0,0.0,0.0,0.0,0.0,0.0,0.0,0.0,0.0,0.0,0.0,0.0,0.0,0.0,0.0,0.0,0.0,0.0,0.0,0.0,0.0,0.0,0.0,0.0,0.0,0.0,0.0,0.0,0.0,0.0,0.0,0.0,0.0,0.0,0.0,0.0,0.0,0.0,0.0,0.0,0.0,-0.7403,-0.7661,-0.9377,-0.9053,-0.8818,-0.9083,-0.8798,-0.8465,-0.8119,-0.7468,0.0,0.0,0.0,0.0,0.0,0.0,0.0,0.0,0.0,0.0,0.0,0.0,0.0,0.0,0.0,0.0,0.0,0.0,0.0,0.0,0.0,0.0,0.0,0.0,0.0,0.0,0.0,0.0,0.0,0.0,0.0,0.0,0.0,0.0,0.0,0.0,0.0,0.0,0.0,0.0,0.0,0.0,0.0,0.0,0.0,0.0,0.0,0.0,0.0,0.0,0.0,0.0,0.0,0.0,0.0,0.0,0.0,0.0,0.0,0.0,0.0,0.0,0.0,0.0,0.0,0.0,0.0,0.0,0.0,0.0,0.0,0.0,0.0,0.0,0.0,0.0,0.0,0.0,0.0,0.0,0.0,0.0,0.0,0.0,0.0,0.0,0.0,0.0,0.0,0.0,0.0,0.0,0.0,0.0,0.0,0.0,0.0,0.0,0.0,0.0,0.0,0.0,-0.7007,-0.7285,-0.8275,-0.8639,-0.8777,-0.894,-0.8554,-0.8398,-0.8589,-0.7448,0.0,0.0,0.0,0.0,0.0,0.0,0.0,0.0,0.0,0.0,0.0,0.0,0.0,0.0,0.0,0.0,0.0,0.0,0.0,0.0,0.0,0.0,0.0,0.0,0.0,0.0,0.0,0.0,0.0,0.0,0.0,0.0,0.0,0.0,0.0,0.0,0.0,0.0,0.0,0.0,0.0,0.0,0.0,0.0,0.0,0.0,0.0,0.0,0.0,0.0,0.0,0.0,0.0,0.0,0.0,0.0,0.0,0.0,0.0,0.0,0.0,0.0,0.0,0.0,0.0,0.0,0.0,0.0,0.0,0.0,0.0,0.0,0.0,0.0,0.0,0.0,0.0,0.0,0.0,0.0,0.0,0.0,0.0,0.0,0.0,0.0,0.0,0.0,0.0,0.0,0.0,0.0,0.0,0.0,0.0,0.0,0.0,0.0,0.0,0.0,0.0,0.0,-0.7177,-0.7482,0.0,-0.8445,-0.8587,-0.8648,-0.8499,-0.8398,-0.823,0.0,0.0,0.0,0.0,0.0,0.0,0.0,0.0,0.0,0.0,0.0,0.0,0.0,0.0,0.0,0.0,0.0,0.0,0.0,0.0,0.0,0.0,0.0,0.0,0.0,0.0,0.0,0.0,0.0,0.0,0.0,0.0,0.0,0.0,0.0,0.0,0.0,0.0,0.0,0.0,0.0,0.0,0.0,0.0,0.0,0.0,0.0,0.0,0.0,0.0,0.0,0.0,0.0,0.0,0.0,0.0,0.0,0.0,0.0,0.0,0.0,0.0,0.0,0.0,0.0,0.0,0.0,0.0,0.0,0.0,0.0,0.0,0.0,0.0,0.0,0.0,0.0,0.0,0.0,0.0,0.0,0.0,0.0,0.0,0.0,0.0,0.0,0.0,0.0,0.0,0.0,0.0,0.0,0.0,0.0,0.0,0.0,0.0,0.0,0.0,0.0,0.0,-0.7149,-0.7305,-0.7584,0.0,-0.833,-0.8418,-0.8418,-0.8323,-0.8147,-0.7966,0.0,0.0,0.0,0.0,0.0,0.0,0.0,0.0,0.0,0.0,0.0,0.0,0.0,0.0,0.0,0.0,0.0,0.0,0.0,0.0,0.0,0.0,0.0,0.0,0.0,0.0,0.0,0.0,0.0,0.0,0.0,0.0,0.0,0.0,0.0,0.0,0.0,0.0,0.0,0.0,0.0,0.0,0.0,0.0,0.0,0.0,0.0,0.0,0.0,0.0,0.0,0.0,0.0,0.0,0.0,0.0,0.0,0.0,0.0,0.0,0.0,0.0,0.0,0.0,0.0,0.0,0.0,0.0,0.0,0.0,0.0,0.0,0.0,0.0,0.0,0.0,0.0,0.0,0.0,0.0,0.0,0.0,0.0,0.0,0.0,0.0,0.0,0.0,0.0,0.0,0.0,0.0,0.0,0.0,0.0,0.0,0.0,0.0,0.0,0.0,0.0,0.0,-0.7292,-0.7366,-0.7543,-0.7991,-0.818,-0.8275,-0.8269,-0.7991,-0.7828,0.0,0.0,0.0,0.0,0.0,0.0,0.0,0.0,0.0,0.0,0.0,0.0,0.0,0.0,0.0,0.0,0.0,0.0,0.0,0.0,0.0,0.0,0.0,0.0,0.0,0.0,0.0,0.0,0.0,0.0,0.0,0.0,0.0,0.0,0.0,0.0,0.0,0.0,0.0,0.0,0.0,0.0,0.0,0.0,0.0,0.0,0.0,0.0,0.0,0.0,0.0,0.0,0.0,0.0,0.0,0.0,0.0,0.0,0.0,0.0,0.0,0.0,0.0,0.0,0.0,0.0,0.0,0.0,0.0,0.0,0.0,0.0,0.0,0.0,0.0,0.0,0.0,0.0,0.0,0.0,0.0,0.0,0.0,0.0,0.0,0.0,0.0,0.0,0.0,0.0,0.0,0.0,0.0,0.0,0.0,0.0,0.0,0.0,0.0,0.0,0.0,0.0,0.0,-0.7143,-0.7305,-0.7543,-0.7991,-0.8269,-0.8336,-0.8126,-0.8214,-0.816,-0.7966,0.0,0.0,0.0,0.0,0.0,0.0,0.0,0.0,0.0,0.0,0.0,0.0,0.0,0.0,0.0,0.0,0.0,0.0,0.0,0.0,0.0,0.0,0.0,0.0,0.0,0.0,0.0,0.0,0.0,0.0,0.0,0.0,0.0,0.0,0.0,0.0,0.0,0.0,0.0,0.0,0.0,0.0,0.0,0.0,0.0,0.0,0.0,0.0,0.0,0.0,0.0,0.0,0.0,0.0,0.0,0.0,0.0,0.0,0.0,0.0,0.0,0.0,0.0,0.0,0.0,0.0,0.0,0.0,0.0,0.0,0.0,0.0,0.0,0.0,0.0,0.0,0.0,0.0,0.0,0.0,0.0,0.0,0.0,0.0,0.0,0.0,0.0,0.0,0.0,0.0,0.0,0.0,0.0,0.0,0.0,0.0,0.0,0.0,0.0,0.0,0.0,0.0,-0.7265,-0.7407,-0.7631,-0.8085,-0.8289,-0.835,-0.8228,-0.833,-0.8262,-0.8041,0.0,0.0,0.0,0.0,0.0,0.0,0.0,0.0,0.0,0.0,0.0,0.0,0.0,0.0,0.0,0.0,0.0,0.0,0.0,0.0,0.0,0.0,0.0,0.0,0.0,0.0,0.0,0.0,0.0,0.0,0.0,0.0,0.0,0.0,0.0,0.0,0.0,0.0,0.0,0.0,0.0,0.0,0.0,0.0,0.0,0.0,0.0,0.0,0.0,0.0,0.0,0.0,0.0,0.0,0.0,0.0,0.0,0.0,0.0,0.0,0.0,0.0,0.0,0.0,0.0,0.0,0.0,0.0,0.0,0.0,0.0,0.0,0.0,0.0,0.0,0.0,0.0,0.0,0.0,0.0,0.0,0.0,0.0,0.0,0.0,0.0,0.0,0.0,0.0,0.0,0.0,0.0,0.0,0.0,0.0,0.0,0.0,0.0,0.0,0.0,0.0,0.0,-0.7543,-0.7624,-0.7807,-0.8241,-0.8316,-0.8377,-0.8492,-0.8411,-0.8275,-0.8092,0.0,0.0,0.0,0.0,0.0,0.0,0.0,0.0,0.0,0.0,0.0,0.0,0.0,0.0,0.0,0.0,0.0,0.0,0.0,0.0,0.0,0.0,0.0,0.0,0.0,0.0,0.0,0.0,0.0,0.0,0.0,0.0,0.0,0.0,0.0,0.0,0.0,0.0,0.0,0.0,0.0,0.0,0.0,0.0,0.0,0.0,0.0,0.0,0.0,0.0,0.0,0.0,0.0,0.0,0.0,0.0,0.0,0.0,0.0,0.0,-1.3654,0.0,0.0,0.0,0.0,0.0,0.0,0.0,0.0,0.0,0.0,0.0,0.0,0.0,0.0,0.0,0.0,0.0,0.0,0.0,0.0,0.0,0.0,0.0,0.0,0.0,0.0,0.0,0.0,0.0,0.0,0.0,0.0,0.0,0.0,0.0,0.0,0.0,0.0,0.0,0.0,0.0,-0.7556,-0.7801,-0.8072,-0.8404,-0.8655,-0.8757,-0.8669,-0.8845,-0.8798,-0.8411,-0.8255,0.0,0.0,0.0,0.0,0.0,0.0,0.0,0.0,0.0,0.0,0.0,0.0,0.0,0.0,0.0,0.0,0.0,0.0,0.0,0.0,0.0,0.0,0.0,0.0,0.0,0.0,0.0,0.0,0.0,0.0,0.0,0.0,0.0,0.0,0.0,0.0,0.0,0.0,0.0,0.0,0.0,0.0,0.0,0.0,0.0,0.0,0.0,0.0,0.0,0.0,0.0,0.0,0.0,0.0,0.0,0.0,0.0,0.0,0.0,0.0,-1.4376,0.0,0.0,0.0,0.0,0.0,0.0,0.0,0.0,0.0,0.0,0.0,0.0,0.0,0.0,0.0,0.0,0.0,0.0,0.0,0.0,0.0,0.0,0.0,0.0,0.0,0.0,0.0,0.0,0.0,0.0,0.0,0.0,0.0,0.0,0.0,0.0,0.0,0.0,0.0,0.0,-0.8058,-0.814,-0.8316,-0.8757,-0.9015,-0.915,-0.9144,-0.9286,-0.9239,-0.8933,-0.871,0.0,0.0,0.0,0.0,0.0,0.0,0.0,0.0,0.0,0.0,0.0,0.0,0.0,0.0,0.0,0.0,0.0,0.0,0.0,0.0,0.0,0.0,0.0,0.0,0.0,0.0,0.0,0.0,0.0,0.0,0.0,0.0,0.0,0.0,0.0,0.0,0.0,0.0,0.0,0.0,0.0,0.0,0.0,0.0,0.0,0.0,0.0,0.0,0.0,0.0,0.0,0.0,0.0,-1.6901,-1.7141,-1.7328,-1.7622,-1.7662,-1.7448,-1.7007,-1.6567,-1.6086,-1.5511,0.0,0.0,0.0,0.0,0.0,0.0,0.0,0.0,0.0,0.0,0.0,0.0,0.0,0.0,0.0,0.0,0.0,0.0,0.0,0.0,0.0,0.0,0.0,0.0,-1.8651,-1.7746,-1.3622,0.0,0.0,0.0,0.0,0.0,0.0,0.0,0.0,0.0,0.0,0.0,-0.8655,-0.8581,-0.8669,-0.9211,-0.9408,-0.9551,-0.9673,-0.9713,-0.9652,-0.9469,-0.9225,-0.9049,0.0,0.0,0.0,0.0,0.0,0.0,0.0,0.0,0.0,0.0,0.0,0.0,0.0,0.0,0.0,0.0,0.0,0.0,0.0,0.0,0.0,0.0,0.0,0.0,0.0,0.0,0.0,0.0,0.0,0.0,0.0,0.0,-1.2559,-1.3427,0.0,0.0,0.0,0.0,0.0,0.0,0.0,0.0,0.0,0.0,0.0,0.0,0.0,-1.654,-1.7956,-1.8544,-1.9118,-1.9653,-1.996,-1.9973,-1.9773,-2.008,-2.0321,-2.0535,-2.0722,0.0,-1.7301,-1.6714,0.0,0.0,0.0,0.0,0.0,0.0,0.0,0.0,0.0,0.0,0.0,0.0,0.0,0.0,0.0,0.0,0.0,0.0,0.0,0.0,0.0,0.0,-1.9225,-1.98,-2.0174,-2.0281,0.0,-1.7974,-1.6443,-1.609,-1.4629,0.0,0.0,0.0,0.0,0.0,0.0,0.0,-0.8872,-0.9103,-0.9361,-0.97,-0.9869,-0.9971,-0.9992,-1.0114,-1.0066,-0.9781,-0.9727,-0.9754,-0.9869,-0.9395,0.0,0.0,0.0,0.0,0.0,0.0,0.0,0.0,0.0,0.0,0.0,0.0,0.0,0.0,0.0,0.0,0.0,0.0,0.0,0.0,0.0,0.0,0.0,0.0,0.0,0.0,0.0,0.0,0.0,-1.2999,-1.3881,-1.4108,-1.4402,-1.4416,0.0,0.0,0.0,0.0,0.0,0.0,0.0,0.0,0.0,-1.7395,-1.813,-1.9052,-2.0201,-2.0788,-2.1296,-2.171,-2.2017,-2.2178,-2.2231,-2.2525,-2.2726,-2.2859,-2.3153,-2.2525,-2.1176,-1.9586,-1.8798,-1.8464,0.0,0.0,0.0,0.0,-1.5922,-1.7003,-1.6759,-1.7805,-1.9412,-1.9933,0.0,0.0,0.0,0.0,0.0,0.0,0.0,0.0,0.0,0.0,-2.1229,-2.183,-2.2325,-2.2619,-2.2445,-2.1336,-1.9933,0.0,-1.7577,-1.6574,-1.4585,0.0,0.0,0.0,0.0,-1.1302,-1.088,-1.1004,-1.1168,-1.151,-1.1697,-1.1799,-1.1799,-1.1834,-1.1449,-1.0209,-1.012,-1.0073,-1.0046,-0.9883,-0.9754,0.0,0.0,0.0,0.0,0.0,0.0,0.0,0.0,0.0,0.0,0.0,0.0,0.0,0.0,0.0,0.0,0.0,0.0,0.0,0.0,0.0,0.0,0.0,0.0,0.0,0.0,0.0,0.0,-1.3828,-1.4803,-1.4656,-1.5297,-1.5538,0.0,0.0,0.0,0.0,0.0,0.0,-1.7128,-1.8009,-1.9065,-2.0347,-2.0949,-2.167,-2.2565,-2.3073,-2.3474,-2.3768,-2.3995,-2.4182,-2.4342,-2.4556,-2.4609,-2.4556,-2.485,-2.481,-2.4369,-2.2151,-2.0895,-2.0307,-1.9479,-1.9118,-1.8951,-1.8058,-1.8685,-1.9973,-1.9385,-2.0103,-2.1176,-2.1483,-2.1283,-2.0815,-2.0214,0.0,0.0,0.0,0.0,-2.0535,-2.1256,-2.2151,-2.3046,-2.3728,-2.4275,-2.4596,-2.4382,-2.3915,-2.2819,0.0,-1.992,-1.922,-1.6943,0.0,0.0,0.0,0.0,-1.3992,-1.3455,-1.3482,-1.3554,-1.3906,-1.3949,-1.4003,-1.3958,-1.3569,-1.2791,-1.133,-1.0704,-1.0344,-1.0229,-1.0297,-1.0141,-0.9734,0.0,0.0,0.0,0.0,0.0,0.0,0.0,0.0,0.0,0.0,0.0,0.0,0.0,0.0,0.0,0.0,0.0,0.0,0.0,0.0,0.0,0.0,0.0,0.0,0.0,0.0,0.0,0.0,0.0,-1.491,-1.6673,0.0,0.0,0.0,0.0,-1.6567,-1.7368,-1.837,-1.9559,-2.0454,-2.1603,-2.3086,-2.3701,-2.4422,-2.5304,-2.5625,-2.5932,-2.6213,-2.6226,-2.6106,-2.5852,-2.5865,-2.5718,-2.5464,-2.5758,-2.5718,-2.5304,-2.35,-2.2899,-2.2979,-2.1537,-2.1309,-2.1724,-2.1049,-2.1349,-2.1857,-2.1884,-2.2084,-2.2512,-2.3661,-2.4008,-2.3714,-2.2285,-2.183,0.0,0.0,-2.1216,-2.1951,-2.2271,-2.3233,-2.4329,-2.5197,-2.5638,-2.5865,-2.5852,-2.5598,-2.4596,0.0,-2.0775,-1.952,-1.7713,0.0,-1.6782,-1.5419,-1.5565,-1.5813,-1.609,-1.6316,-1.6389,-1.6624,-1.6654,-1.6573,-1.6227,-1.4769,-1.3635,-1.3193,-1.1615,-1.0697,-1.0683,-1.0555,-1.0534,-1.0649,-1.0249,0.0,0.0,0.0,0.0,0.0,0.0,0.0,0.0,0.0,0.0,0.0,0.0,0.0,0.0,0.0,0.0,0.0,0.0,0.0,0.0,0.0,0.0,0.0,0.0,0.0,0.0,0.0,0.0,-1.7114,-1.821,0.0,-1.8571,-1.8384,-1.8557,-1.9212,-2.0241,-2.1376,-2.2565,-2.3474,-2.4356,-2.5264,-2.5678,-2.6132,-2.664,-2.8142,-2.8255,-2.6961,-2.8354,-2.8297,-2.68,-2.68,-2.6747,-2.664,-2.6747,-2.6734,-2.6573,-2.5758,-2.4917,-2.4075,-2.318,-2.2953,-2.3126,-2.3113,-2.3354,-2.3714,-2.3915,-2.4048,-2.4142,-2.4195,-2.4075,-2.3861,-2.3514,-2.3287,-2.3153,-2.3207,-2.3594,-2.4048,-2.4329,-2.5144,-2.5919,-2.6052,-2.6306,-2.6413,-2.6039,-2.5879,-2.5344,-2.3834,-2.2832,-2.1899,-2.0773,-2.0168,-1.9649,-1.9349,-1.9336,-1.8988,-1.8193,-1.8192,-1.8372,-1.8451,-1.8463,-1.8429,-1.8339,-1.6594,-1.4892,-1.3635,-1.1821,-1.0717,-1.0717,-1.067,-1.0616,-1.0575,-1.0412,-1.012,0.0,0.0,0.0,0.0,0.0,0.0,0.0,0.0,0.0,0.0,0.0,0.0,0.0,0.0,0.0,0.0,0.0,0.0,0.0,0.0,0.0,0.0,0.0,0.0,0.0,0.0,-1.7822,-1.8811,-2.0067,-2.0842,-2.0842,-2.0762,-2.1069,-2.1951,-2.3006,-2.4088,-2.5184,-2.6639,-2.7602,-2.8214,-2.8325,-2.879,-2.9804,-3.0425,-3.0425,-2.9804,-3.1234,-3.1174,-2.963,-2.8846,-2.8465,-2.8367,-2.7581,-2.7268,-2.7255,-2.7054,-2.64,-2.5478,-2.4997,-2.4863,-2.497,-2.517,-2.5358,-2.5558,-2.5745,-2.5692,-2.5451,-2.5064,-2.4743,-2.4543,-2.4743,-2.473,-2.4756,-2.5237,-2.5518,-2.5732,-2.6026,-2.6453,-2.6774,-2.6587,-2.66,-2.6573,-2.6186,-2.6106,-2.5905,-2.5211,-2.4369,-2.3474,-2.2579,-2.1937,-2.1577,-2.1683,-2.1363,-2.086,-2.0042,-2.0108,-2.0219,-2.0219,-2.0526,-2.055,-2.0244,-1.7973,-1.5952,-1.4563,-1.2497,-1.1133,-1.0717,-1.1091,-1.1005,-1.0493,-1.0849,-1.0834,-1.059,0.0,0.0,0.0,0.0,0.0,0.0,0.0,0.0,0.0,0.0,0.0,0.0,0.0,0.0,0.0,0.0,0.0,0.0,0.0,0.0,0.0,0.0,0.0,-1.5498,-1.8131,-1.9999,-2.0066,-2.2364,-2.3877,-2.3295,-2.4052,-2.4555,-2.4851,-2.5837,-2.6729,-2.7595,-2.9833,-3.1407,-3.187,-3.1586,-3.2561,-3.4668,-3.271,-3.2694,-3.4651,-3.4813,-3.4631,-3.4123,-3.205,-3.0911,-3.045,-2.8395,-2.7458,-2.7458,-2.7281,-2.7281,-2.7268,-2.6961,-2.7014,-2.7268,-2.7268,-2.7268,-2.7268,-2.7255,-2.6881,-2.6413,-2.64,-2.6213,-2.5999,-2.5999,-2.6199,-2.648,-2.6774,-2.6854,-2.6907,-2.7188,-2.7054,-2.6841,-2.6827,-2.66,-2.64,-2.6386,-2.6386,-2.6306,-2.6012,-2.5264,-2.4209,-2.2739,-2.2485,-2.2378,-2.2084,-2.1563,0.0,-2.1964,-2.2031,-2.2031,-2.2031,-2.2539,-2.2645,-2.2044,-1.88,-1.6439,-1.6073,-1.3998,-1.2187,-1.0969,-1.1933,-1.1948,-1.0753,-1.1649,-1.2197,-1.2504,0.0,0.0,0.0,0.0,0.0,0.0,0.0,0.0,0.0,0.0,0.0,0.0,0.0,0.0,0.0,0.0,0.0,0.0,0.0,0.0,0.0,0.0,-2.0582,-1.882,-2.1417,-2.4015,-2.5544,-2.8129,-2.979,-3.0092,-3.0616,-3.1188,-3.1636,-3.2395,-3.3075,-3.3447,-3.4237,-3.4698,-3.4725,-3.4403,-3.4539,-3.5211,-3.5757,-3.5621,-3.4651,-3.6281,-3.623,-3.4503,-3.4018,-3.3645,-3.3387,-3.1302,-3.0331,-3.0137,-2.8304,-2.7709,-2.7856,-2.7348,-2.7201,-2.7268,-2.7268,-2.7268,-2.7241,-2.7014,-2.6974,-2.6961,-2.6533,-2.6627,-2.6907,-2.6907,-2.6961,-2.7081,-2.7375,-2.7455,-2.7428,-2.7295,-2.7362,-2.7348,-2.6921,-2.676,-2.664,-2.644,-2.6386,-2.6306,-2.6012,-2.5758,-2.5264,-2.4209,-2.3848,-2.3607,-2.3327,-2.314,0.0,-2.326,-2.3086,-2.2953,-2.2953,-2.31,-2.2953,-2.2352,-2.0172,-1.8719,-1.8154,-1.6152,-1.489,-1.4484,-1.4714,-1.4804,-1.4401,-1.4461,-1.4612,0.0,0.0,0.0,0.0,0.0,0.0,0.0,0.0,0.0,0.0,0.0,0.0,0.0,0.0,0.0,0.0,0.0,0.0,0.0,0.0,0.0,0.0,-2.3541,-2.5753,-2.5434,-2.6784,-2.8413,-2.987,-3.1841,-3.3396,-3.3676,-3.4175,-3.4709,-3.5308,-3.5592,-3.6042,-3.6538,-3.6979,-3.7376,-3.7686,-3.7032,-3.716,-3.7988,-3.7934,-3.7737,-3.7419,-3.8724,-3.8566,-3.7419,-3.6442,-3.6121,-3.596,-3.3676,-3.2217,-3.1227,-2.9907,-2.8799,0.0,0.0,0.0,0.0,0.0,-2.7629,-2.7615,-2.7428,-2.7402,-2.7388,-2.7054,-2.7175,-2.7442,-2.7442,-2.7535,-2.7669,-2.7843,-2.7883,-2.7843,-2.7682,-2.7669,-2.7575,-2.7121,-2.6907,-2.6747,-2.6453,-2.6386,-2.6333,-2.6172,-2.6039,0.0,-2.5277,-2.4636,-2.4102,-2.3808,-2.3447,-2.3247,-2.338,-2.3233,-2.3086,-2.2966,-2.318,-2.3086,-2.2472,-2.0697,0.0,0.0,0.0,-1.674,-1.6642,-1.6063,0.0,0.0,0.0,-1.6352,-1.6352,-1.6891,0.0,0.0,-1.6962,-1.7389,0.0,0.0,0.0,0.0,0.0,0.0,0.0,0.0,0.0,0.0,0.0,0.0,0.0,0.0,0.0,0.0,-2.8518,-3.1029,-3.3549,-3.358,-3.3426,-3.35,-3.4925,-3.5774,-3.5808,-3.6436,-3.6996,-3.7352,-3.7114,-3.7369,-3.8302,0.0,0.0,0.0,0.0,-3.9869,-4.1875,-3.944,-3.9198,-4.1172,-4.1172,-4.1172,-4.1172,-3.9198,-3.8231,-3.8231,-3.596,-3.4002,-3.2052,-3.1557,-3.0093,-2.8123,-2.7856,-2.7909,-2.8136,-2.8136,-2.8136,-2.8136,-2.811,0.0,0.0,-2.7669,-2.7696,-2.7749,-2.7709,-2.7909,-2.8136,-2.8136,-2.8136,-2.8136,-2.8136,-2.7923,-2.7629,-2.7375,-2.7081,-2.6787,-2.6507,-2.644,-2.6426,-2.64,-2.6186,-2.6012,-2.6012,-2.5064,-2.4222,-2.3955,-2.3207,-2.2766,-2.3033,-2.3033,-2.2899,-2.2605,0.0,0.0,-2.2472,-2.0605,-1.9495,-1.9292,-1.8608,-1.8215,-1.7986,-1.6919,-1.6085,-1.5698,-1.7121,-1.7853,-1.7986,-1.9581,-2.0468,-2.0708,-1.8576,-1.8483,0.0,0.0,0.0,0.0,0.0,0.0,0.0,0.0,0.0,0.0,0.0,0.0,0.0,0.0,0.0,-2.9901,-3.3677,-3.675,-3.8006,-4.013,-4.0471,-3.7845,-3.9616,-4.1143,-4.1485,-4.196,-4.2283,-4.2378,-4.293,-4.3101,-4.2645,-4.3074,-4.3222,-4.3029,-4.2106,-4.1805,-4.2305,-4.1209,-4.0841,-4.1172,0.0,0.0,-4.1172,-4.0685,-4.0509,-4.0509,-3.8231,-3.7082,-3.6442,-3.2858,-3.0093,-2.8136,-2.8083,-2.8096,-2.8136,-2.8136,-2.8136,-2.811,-2.7869,-2.7909,-2.7976,-2.7509,-2.7669,-2.8016,-2.7776,-2.7909,0.0,-2.8136,-2.8136,-2.8136,-2.8136,-2.7923,-2.7682,-2.7629,-2.7388,-2.7094,-2.68,-2.6734,-2.6667,-2.644,-2.6346,-2.6306,-2.6306,-2.5531,-2.489,-2.4836,-2.4476,-2.4235,-2.4289,-2.4088,-2.3834,-2.3541,-2.3607,-2.334,-2.2485,-2.2044,-2.1647,-2.1175,-2.0768,-2.0393,-2.0467,-2.0194,-2.0042,-1.9875,-2.0177,-2.0341,-2.0467,-2.0783,-2.0975,-2.1015,-2.0592,-2.0552,0.0,0.0,0.0,0.0,0.0,0.0,0.0,0.0,0.0,0.0,0.0,-2.9602,0.0,0.0,-3.4482,-3.5741,-3.885,-4.1398,-4.2046,-4.3395,-4.3613,-4.1512,-4.2452,-4.3496,-4.3711,-4.4121,-4.4453,-4.4668,-4.4707,-4.4707,-4.4687,-4.4277,-4.4043,-4.4043,-4.2988,-4.2422,-4.2422,-4.1601,-4.1172,-4.1172,-4.1172,-4.1172,-4.1172,-4.1172,-4.1172,-4.1172,-4.0021,-3.8882,-3.7578,-3.3186,-3.0744,-2.9607,-2.8628,-2.8136,-2.8136,-2.8136,-2.8136,-2.8123,-2.7976,-2.8016,-2.8096,-2.7802,-2.7896,-2.811,-2.7963,-2.803,-2.8136,-2.8136,-2.8136,-2.8136,-2.8136,-2.803,-2.7883,-2.7736,-2.7589,-2.7402,-2.7108,-2.7041,-2.6961,-2.6667,-2.66,-2.656,-2.6413,-2.5905,-2.5518,-2.5518,-2.5264,-2.5024,-2.4877,-2.473,-2.4476,-2.4035,-2.3981,-2.3688,-2.2939,-2.2592,-2.2231,-2.1804,-2.163,-2.155,-2.155,-2.1403,-2.1336,-2.1336,-2.1189,-2.1109,-2.1109,-2.1256,-2.1256,-2.1109,-2.1256,-2.1256,0.0,0.0,0.0,0.0,0.0,0.0,0.0,0.0,-2.9375,-3.0547,-3.2519,-3.4355,-3.5391,-3.7832,-4.0078,-4.1211,-4.3223,-4.4785,-4.5215,-4.5273,-4.5039,-4.4414,-4.4433,-4.4551,-4.4629,-4.4883,-4.5176,-4.5527,-4.4902,-4.4746,-4.5273,-4.4375,-4.3965,-4.4258,-4.3144,-4.25,-4.2422,-4.168,-4.125,-4.1172,-4.1172,-4.1172,-4.1172,-4.1172,-4.1172,-4.1172,-4.1172,-3.9864,-3.7578,-3.4164,-3.2366,-3.1887,-3.0107,-2.9118,-2.8796,-2.8305,-2.8136,-2.8136,-2.8136,-2.8136,-2.8136,-2.8136,-2.8136,-2.8136,-2.8136,-2.8136,-2.8136,-2.8136,-2.8136,-2.8136,-2.8136,-2.8136,-2.8083,-2.7843,-2.7789,-2.7709,-2.7415,-2.7348,-2.7268,-2.6961,-2.6867,-2.6747,-2.6507,-2.6239,-2.6026,-2.5959,-2.5651,-2.5344,-2.5104,-2.5024,-2.4796,-2.4262,-2.4209,-2.3968,-2.338,-2.2873,-2.2445,-2.2084,-2.2071,-2.2044,-2.1991,-2.171,-2.155,-2.155,-2.1309,-2.1189,-2.1189,-2.1496,-2.151,-2.1283,-2.1523,-2.1443,-2.4886,-2.4341,-2.4414,-2.582,-2.6445,-2.8047,0.0,0.0,-3.459,-3.7012,-3.9219,-4.0762,-4.0918,-4.248,-4.3926,-4.4433,-4.5098,-4.5683,-4.6094,-4.6152,-4.6269,-4.6543,-4.5605,-4.5098,-4.5488,-4.5234,-4.5039,-4.5098,-4.5,-4.4648,-4.3965,-4.418,-4.416,-4.3789,-4.3281,-4.2812,-4.2422,-4.1973,-4.1543,-4.1172,-4.1172,-4.1172,-4.1172,-4.1172,-4.1172,-4.1172,-4.1172,-3.9864,-3.7896,-3.7401,-3.6104,-3.4327,-3.4002,-3.2694,-3.0744,-2.8964,-2.8136,-2.8136,-2.8136,-2.8136,-2.8136,-2.8136,-2.8136,-2.8136,-2.8136,-2.8136,-2.8136,-2.8136,-2.8136,-2.8136,-2.8136,-2.8136,-2.8136,-2.8096,-2.8096,-2.8016,-2.7709,-2.7655,-2.7562,-2.7268,-2.7001,-2.6814,-2.6774,-2.6533,-2.6253,-2.5999,-2.5491,-2.5117,-2.5077,-2.485,-2.4556,-2.4235,-2.4209,-2.3968,-2.338,-2.326,-2.2979,-2.2405,-2.2378,-2.2258,-2.1991,-2.171,-2.155,-2.155,-2.1523,-2.151,-2.151,-2.179,-2.1924,-2.1884,-2.1924,-2.1643,-2.7598,0.0,0.0,0.0,-3.0254,-3.1992,-3.5371,-3.7148,-3.8613,-4.0449,-4.2734,-4.4414,-4.4414,-4.543,-4.623,0.0,-4.6504,-4.6758,-4.668,-4.6465,-4.6191,-4.5859,-4.5137,-4.5019,-4.5957,-4.5644,-4.5508,-4.5742,-4.5312,-4.4863,-4.4492,-4.416,-4.3906,-4.3711,-4.3047,-4.2617,-4.2422,-4.1758,-4.1465,-4.1543,-4.1543,-4.166,-4.1894,-4.166,-4.1406,-4.1172,-4.1172,-4.0685,-3.9688,-3.839,-3.7419,-3.6442,-3.5137,-3.4164,-3.3022,-3.091,-2.9286,-2.8136,-2.8136,-2.8136,-2.8136,-2.8136,-2.8136,-2.8136,-2.8136,-2.8136,-2.8136,-2.8136,-2.8136,-2.8136,-2.8136,-2.8136,-2.8136,-2.8136,-2.8136,-2.811,-2.7989,-2.7963,-2.7869,-2.7575,-2.7281,-2.7028,-2.6854,-2.6587,-2.6346,-2.6226,-2.5852,-2.5585,-2.5585,-2.5184,-2.4783,-2.4489,-2.4302,-2.4102,-2.3861,-2.3527,-2.322,-2.2966,-2.2779,-2.2619,-2.2498,-2.2218,-2.2058,-2.2058,-2.1897,-2.1804,-2.1804,-2.2098,-2.2151,-2.1991,-2.2164,-2.2017,-2.8759,0.0,0.0,-3.1367,-3.3691,-3.584,-3.7812,-4.0078,-4.209,-4.3262,-4.5176,-4.6582,-4.6348,-4.6816,0.0,-4.6797,-4.7425,-4.7817,-4.7618,-4.7621,-4.7147,-4.5896,-4.5528,-4.5363,-4.5484,-4.5234,-4.5312,-4.5742,-4.5078,-4.4668,-4.4668,-4.418,-4.3828,-4.3711,-4.3223,-4.2851,-4.2617,-4.2012,-4.1797,-4.1973,-4.1973,-4.2129,-4.2422,-4.2109,-4.1738,-4.1348,-4.1465,-4.1387,-4.1016,-3.9644,-3.8975,-3.8706,-3.7099,-3.6121,-3.546,-3.3839,-3.1392,-2.9118,-2.9118,-2.8628,-2.8136,-2.8136,-2.8136,-2.8136,-2.8136,-2.8136,-2.8136,-2.8136,-2.8136,-2.8136,-2.8136,-2.8136,-2.8136,-2.8136,-2.8136,-2.8136,-2.8136,-2.8136,-2.8083,-2.7856,-2.7589,-2.7321,-2.7094,-2.676,-2.6507,-2.6507,-2.6199,-2.5959,-2.5959,-2.5451,-2.497,-2.4676,-2.4449,-2.4329,-2.4329,-2.3928,-2.3661,-2.3581,-2.3287,-2.3073,-2.2993,-2.2619,-2.2418,-2.2418,-2.2218,-2.2111,-2.2111,-2.2405,-2.2432,-2.2231,-2.2525,-2.2512,0.0,0.0,-2.9609,-3.2617,-3.5918,-3.9101,-4.166,-4.3613,-4.5137,-4.6016,-4.6914,-4.7285,-4.6465,-4.6328,-4.6328,-4.6328,-4.7813,-4.8986,-4.9234,-5.0314,-5.0205,-4.7806,-4.7761,-4.6781,0.0,-4.3535,-4.3965,-4.4414,-4.4023,-4.375,-4.375,-4.4141,-4.418,-4.3711,-4.4121,-4.3926,-4.3066,-4.3027,-4.2812,-4.2402,-4.2402,-4.2422,-4.2422,-4.2422,-4.2168,-4.1797,-4.2207,-4.1933,-4.1211,-4.1601,-4.1386,-4.1016,-4.1016,-3.9688,-3.7737,-3.7737,-3.4975,-3.1241,-3.1241,-2.9941,-2.8136,-2.8136,-2.8136,-2.8136,-2.8136,-2.8136,-2.8136,-2.8136,-2.8136,-2.8136,-2.8136,-2.8136,-2.8136,-2.8136,-2.8136,-2.8136,-2.8136,-2.8136,-2.8136,-2.8136,-2.7883,-2.7682,-2.7669,-2.7188,-2.6814,-2.6814,-2.6319,-2.5959,-2.5959,-2.5451,-2.497,-2.4676,-2.4623,-2.4623,-2.4623,-2.4609,-2.4476,-2.4195,-2.3901,-2.3607,-2.3327,-2.2739,-2.2418,-2.2418,-2.2405,-2.2405,-2.2405,-2.2699,-2.2846,-2.2846,-2.3153,-2.314,0.0,0.0,-3.7429,-4.0584,-4.3447,-4.5555,-4.6202,-4.8438,-4.9491,-4.6551,-4.7372,-4.7874,-4.5089,-4.4906,-4.549,-4.6553,-4.7877,-4.9206,-5.048,-5.1471,-5.0351,-4.6257,-4.6443,0.0,0.0,0.0,0.0,-4.4484,-4.4258,-4.4277,-4.457,-4.4726,-4.4746,-4.459,-4.4453,-4.4258,-4.3965,-4.3379,-4.3144,-4.3281,-4.3281,-4.3125,-4.2851,-4.2851,-4.2617,-4.2226,-4.2363,-4.2109,-4.1621,-4.2051,-4.1797,-4.1211,-4.1484,-4.0936,-4.0021,-4.0021,-3.8231,-3.5298,-3.2366,-2.9941,-2.8136,-2.8136,-2.8136,-2.8136,-2.8136,-2.8136,-2.8136,-2.8136,-2.8136,-2.8136,-2.8136,-2.8136,-2.8136,-2.8136,-2.8136,-2.8136,-2.8136,-2.8136,-2.8136,-2.8136,-2.7896,-2.7696,-2.7696,-2.7215,-2.676,-2.656,-2.6373,-2.6039,-2.5451,-2.5371,-2.5184,-2.469,-2.4636,-2.4636,-2.4636,-2.4462,-2.4302,-2.4209,-2.3928,-2.3634,-2.334,-2.3126,-2.2926,-2.2712,-2.2712,-2.2712,-2.2712,-2.2819,-2.2859,-2.2859,-2.2966,-2.2966,0.0,-3.9564,-4.228,-4.5776,-4.8191,-4.9562,-4.96,-5.1224,-5.129,-4.7092,-4.6796,-4.6441,-4.3068,-4.1988,-4.2479,-4.52,-4.6827,-4.8566,-5.1259,-5.2519,-5.1739,-4.7809,-4.7683,0.0,0.0,0.0,0.0,-4.3994,-4.4219,-4.459,-4.5,-4.5176,-4.5254,-4.5254,-4.5,-4.4785,-4.4629,-4.4062,-4.3906,-4.418,-4.4023,-4.3808,-4.3535,-4.3379,-4.3066,-4.2676,-4.2812,-4.2558,-4.2051,-4.248,-4.2168,-4.1426,-4.1699,-4.1543,-4.1172,-4.1172,-3.9864,-3.7419,-3.3839,-3.1241,-2.9286,-2.8473,-2.8136,-2.8136,-2.8136,-2.8136,-2.8136,-2.8136,-2.8136,-2.8136,-2.8136,-2.8136,-2.8136,-2.8136,-2.8136,-2.8136,-2.8136,-2.8136,-2.8136,-2.8136,-2.7989,-2.7856,-2.7856,-2.7455,-2.7001,-2.66,-2.6547,-2.6226,-2.5344,-2.5491,-2.5411,-2.4716,-2.473,-2.4756,-2.4649,-2.4462,-2.4356,-2.4356,-2.4088,-2.3848,-2.3647,-2.3541,-2.3394,-2.3193,-2.318,-2.314,-2.3033,-2.3033,-2.3379,-2.3788,-2.3913,-2.4295,-3.9864,-4.2444,-4.4313,-4.8282,-5.0136,-5.1289,-5.2097,-5.2025,-5.0925,-4.7396,-4.5332,-4.3331,0.0,0.0,-3.8168,-4.25,-4.4727,-4.7519,-5.1768,-5.3836,-5.4022,0.0,0.0,0.0,0.0,0.0,0.0,-4.3307,0.0,-4.4609,-4.5098,-4.5527,-4.5781,-4.5781,-4.5742,-4.5547,-4.5137,-4.5078,-4.5039,-4.5019,-4.459,-4.4394,-4.4375,-4.3926,-4.3496,-4.3125,-4.3555,-4.3242,-4.25,-4.2949,-4.2617,-4.1836,-4.1855,-4.1601,-4.1211,-4.1211,-3.9883,-3.7737,-3.5621,-3.3349,-3.1076,-2.9118,-2.8473,-2.8305,-2.8473,-2.8473,-2.8473,-2.8473,-2.8473,-2.8473,-2.8473,-2.8305,-2.8305,-2.8305,-2.8136,-2.8136,-2.8136,-2.8136,-2.8136,-2.8136,-2.8136,-2.8136,-2.8123,-2.7883,-2.7509,-2.7082,-2.6988,-2.6665,-2.5651,-2.5785,-2.5625,-2.477,-2.4917,-2.497,-2.469,-2.4649,-2.4636,-2.4636,-2.4382,-2.4222,-2.4209,-2.3941,-2.3781,-2.3768,-2.3768,-2.3634,-2.348,-2.348,-2.426,-2.5682,-2.5997,-2.6916,-4.6266,-4.9504,-5.2066,-5.4378,-5.5159,-5.5145,-5.4226,-5.3227,-5.089,-4.4872,-4.212,-3.977,0.0,0.0,0.0,-4.2486,-4.717,0.0,-5.4766,-5.6975,0.0,0.0,0.0,-4.9866,-4.4704,-4.4972,0.0,0.0,-4.4629,-4.5,-4.6367,-4.6855,-4.709,-4.709,-4.6777,-4.6562,-4.6445,-4.582,-4.5351,-4.5019,-4.459,-4.4394,-4.4375,-4.3926,-4.3652,-4.3574,-4.4023,-4.373,-4.2969,-4.375,-4.3359,-4.2305,-4.2617,-4.2305,-4.1641,-4.1641,-4.1112,-4.0021,-3.7896,-3.4651,-3.1557,-3.271,-3.1887,-3.091,-3.2546,-3.3022,-3.3022,-3.3022,-3.3022,-3.271,-3.1076,-3.0578,-3.026,-2.8628,-2.8136,-2.8136,-2.8136,-2.8136,-2.8136,-2.8136,-2.8136,-2.807,-2.7856,-2.7749,-2.8057,-2.9413,-2.9312,-2.8289,-2.6074,-2.5905,-2.5785,-2.5331,-2.517,-2.505,-2.497,-2.4756,-2.4636,-2.4636,-2.4569,-2.4436,-2.4209,-2.4128,-2.3995,-2.3768,-2.3768,-2.441,-2.5827,-2.5827,-2.6481,-2.8024,-2.7987,-2.8109,-5.0067,-5.313,-5.5566,-5.6746,-5.7022,-5.6226,-5.3154,-5.1531,-4.862,-4.1375,-3.8176,0.0,0.0,0.0,0.0,0.0,0.0,0.0,-5.4863,-5.6545,-5.6049,0.0,-5.2309,0.0,-4.6939,-4.6121,-4.6191,0.0,-4.5996,-4.6016,-4.7148,-4.7441,-4.7656,-4.7851,-4.7441,-4.7129,-4.6933,-4.6465,-4.6016,-4.5586,-4.5156,-4.4961,-4.4941,-4.4297,-4.4101,-4.4277,0.0,-4.3926,-4.3672,-4.3965,-4.3555,-4.2715,-4.2773,-4.2383,-4.1777,-4.1601,-4.1387,-4.1016,-3.9707,-3.7082,-3.4327,-3.4651,-3.3839,-3.3022,-3.4327,-3.4651,-3.4651,-3.4651,-3.4651,-3.4164,-3.2052,-3.1392,-3.091,-2.8628,-2.8136,-2.8136,-2.8136,-2.8136,-2.8136,-2.8136,-2.8136,-2.8096,-2.7923,-2.7896,-2.8606,-3.0366,-3.048,-3.0136,-2.9168,-2.8201,-2.7045,-2.5711,-2.5371,-2.5224,-2.509,-2.481,-2.4636,-2.4636,-2.4636,-2.4569,-2.4396,-2.4396,-2.4315,-2.4155,-2.4155,-2.4638,-2.5612,-2.6431,-2.7493,-2.8923,-2.958,-3.0205,-5.2302,-5.4687,-5.6445,-5.6922,-5.6872,-5.544,-5.0594,-4.8209,-4.4945,-3.7563,0.0,0.0,-3.1738,0.0,-3.3545,-4.0752,0.0,-4.7154,-5.3733,-5.4863,-5.5016,-5.4926,-5.3313,-5.1608,-5.0068,-4.7774,-4.7031,-4.8203,-4.7598,-4.7344,-4.7734,-4.7754,-4.7891,-4.8203,-4.7793,-4.7363,-4.6933,-4.6875,-4.666,-4.6289,-4.5879,-4.5644,-4.5566,-4.4766,-4.457,-4.4805,-4.4101,-4.4023,-4.4375,-4.3965,-4.3574,-4.3203,-4.2715,-4.2266,-4.1836,-4.1406,-4.123,-4.1172,-4.1172,-3.9864,-3.8054,-3.6121,-3.5298,-3.5137,-3.546,-3.5621,-3.5621,-3.5621,-3.5621,-3.4975,-3.2858,-3.2201,-3.1722,-2.9607,-2.8796,-2.8628,-2.8628,-2.8473,-2.8136,-2.8136,-2.8136,-2.8136,-2.8136,-2.8136,-2.8868,-3.1182,-3.1432,-3.1978,-3.3576,-3.1431,-2.8975,-2.6739,-2.6336,-2.6199,-2.5595,-2.5445,-2.5253,-2.5065,-2.5212,-2.5345,-2.5345,-2.5065,-2.5065,-2.5345,-2.5065,-2.5103,-2.545,-2.7072,-2.8567,-3.019,-3.1328,-3.2712,-5.3758,-5.5566,-5.6922,-5.7022,-5.6018,-5.3934,-4.9841,-4.5573,0.0,0.0,0.0,-2.8398,-2.875,-2.9503,0.0,-3.9622,0.0,0.0,0.0,0.0,-5.6211,0.0,0.0,0.0,0.0,0.0,0.0,0.0,0.0,-4.8555,-4.8633,-4.8633,-4.8496,-4.8223,-4.7793,-4.7363,-4.6933,-4.6582,-4.6367,-4.6289,-4.5879,-4.5488,-4.5117,-4.4629,-4.4238,-4.3945,-4.418,0.0,-4.4394,-4.4316,-4.4238,-4.4082,-4.3281,-4.2695,-4.2266,-4.1836,-4.1465,-4.1172,-4.1172,-4.0997,-4.0529,-4.0197,-3.8882,-3.7737,-3.9531,-4.0021,-4.0021,-4.0021,-4.0021,-3.9531,-3.7419,-3.6762,-3.6264,-3.4002,-3.2217,-3.091,-3.091,-2.9453,-2.8136,-2.8136,-2.8136,-2.8136,-2.8136,-2.8136,-2.9592,-3.3433,-3.3661,-3.4233,-3.6496,-3.428,-3.2155,-3.1293,-3.099,-3.0087,-2.8132,-2.909,-2.907,-2.7085,-2.8485,-2.9313,-2.9313,-2.778,-2.778,-2.9313,-2.778,-2.8738,-3.21,-3.2088,-3.3026,-3.4793,-3.4797,-3.4502,-5.3833,-5.5541,-5.6972,-5.6671,-5.5365,-5.2427,-4.5949,0.0,0.0,0.0,0.0,-2.6666,-2.7519,0.0,0.0,0.0,0.0,0.0,0.0,0.0,0.0,0.0,0.0,0.0,0.0,0.0,0.0,0.0,0.0,-4.8613,-4.8848,-4.8867,-4.8769,-4.8555,-4.8125,-4.7695,-4.7266,-4.6836,-4.6523,-4.6289,-4.5879,-4.5566,-4.5332,-4.4687,-4.4394,-4.4375,-4.4141,-4.418,-4.4375,-4.4141,-4.4043,-4.3965,-4.334,-4.2949,-4.2695,-4.2031,-4.168,-4.1465,-4.125,-4.1172,-4.1172,-4.1172,-4.0509,-3.9864,-4.0841,-4.1172,-4.1172,-4.1172,-4.1172,-4.0685,-3.8548,-3.7896,-3.7401,-3.5137,-3.3022,-3.1392,-3.1392,-2.9774,-2.8136,-2.8136,-2.8136,-2.8136,-2.8136,-2.8136,-2.9607,-3.4002,-3.4503,-3.5458,-3.862,-3.7785,-3.5894,-3.3142,-3.2607,-3.1792,-3.0537,-3.0925,-3.0713,-2.9344,-3.0356,-3.0949,-3.0607,-2.9937,-3.0034,-3.0887,-3.0034,-3.0696,-3.2601,-3.3447,-3.4367,-3.521,-3.5587,-3.5488,-5.3432,-5.534,-5.6872,-5.6194,-5.4612,-5.0971,-4.2459,-3.8517,0.0,0.0,0.0,-2.5762,-2.6892,0.0,0.0,0.0,0.0,0.0,0.0,0.0,0.0,0.0,0.0,0.0,0.0,0.0,0.0,0.0,0.0,0.0,-4.8691,-4.8711,-4.8672,-4.8594,-4.8242,-4.7871,-4.7441,-4.7012,-4.6621,-4.6289,-4.5976,-4.5723,-4.5508,-4.4844,-4.457,-4.457,-4.3965,0.0,-4.4219,-4.3848,-4.3769,-4.3808,-4.3281,-4.3086,-4.2988,-4.2226,-4.1875,-4.1758,-4.1426,-4.125,-4.1172,-4.1172,-4.1172,-4.1172,-4.1172,-4.1172,-4.1172,-4.1172,-4.1172,-4.0841,-3.904,-3.8548,-3.8054,-3.596,-3.4002,-3.2694,-3.2217,-3.0744,-2.9621,-2.9621,-2.9621,-2.9621,-2.9621,-2.9621,-3.0925,-3.4813,-3.546,-3.6657,-4.0221,-4.0664,-3.9088,-3.5054,-3.4485,-3.3919,-3.2858,-3.2998,-3.2784,-3.1871,-3.2415,-3.274,-3.2429,-3.2287,-3.2441,-3.275,-3.2441,-3.2492,-3.2999,-3.4397,-3.5115,-3.5189,-3.5831,-3.6113,-5.3005,-5.534,-5.6771,-5.5717,-5.3457,-4.9565,-4.2208,0.0,0.0,0.0,-2.5611,-2.5234,-2.6339,-2.5435,0.0,0.0,0.0,0.0,0.0,0.0,0.0,0.0,0.0,0.0,0.0,0.0,0.0,0.0,0.0,0.0,-4.8242,-4.8262,-4.8086,-4.7715,-4.7656,-4.7422,-4.6992,-4.6562,-4.6348,-4.6308,-4.6269,-4.584,-4.5078,-4.5,-4.4336,-4.3281,-4.3574,0.0,0.0,-4.373,-4.3945,-4.4258,-4.3398,-4.3086,-4.3027,-4.2539,-4.2129,-4.1797,-4.1758,-4.1484,-4.1172,-4.1172,-4.1172,-4.1172,-4.1172,-4.1172,-4.1172,-4.1172,-4.1172,-4.1172,-4.0997,-4.0841,-4.0353,-3.8073,-3.7419,-3.6762,-3.4813,-3.4164,-3.4164,-3.4164,-3.4164,-3.4164,-3.4164,-3.4164,-3.4975,-3.7241,-3.7578,-3.853,-4.0783,-4.1113,-4.0763,-3.997,-3.9394,-3.8198,-3.5551,-3.6957,-3.6891,-3.4342,-3.5792,-3.6701,-3.6643,-3.506,-3.5078,-3.6701,-3.5078,-3.5263,-3.7278,-3.7177,-3.7197,-3.7546,-3.6992,-3.6406,-5.0896,-5.4084,-5.6344,-5.5591,-5.3055,-4.8862,-4.1656,0.0,0.0,-2.7017,-2.5335,-2.4858,-2.4958,-2.4431,-2.4782,0.0,0.0,0.0,0.0,0.0,0.0,0.0,0.0,0.0,0.0,0.0,0.0,0.0,0.0,0.0,-4.7422,-4.7695,-4.7754,-4.7578,-4.7324,-4.7109,-4.6933,-4.6504,-4.6308,-4.6289,-4.5781,-4.5351,-4.5,-4.4473,-4.3808,-4.3105,-4.3516,0.0,0.0,-4.3594,-4.3808,-4.3945,-4.3594,-4.3457,-4.3379,-4.2676,-4.2324,-4.2109,-4.1601,-4.1308,-4.1172,-4.1172,-4.1172,-4.1172,-4.1172,-4.1172,-4.1172,-4.1172,-4.1172,-4.1172,-4.1172,-4.1172,-4.1016,-4.0021,-3.8882,-3.7737,-3.6762,-3.5621,-3.4651,-3.4651,-3.4651,-3.4651,-3.4651,-3.4651,-3.546,-3.7578,-3.7896,-3.8724,-4.0841,-4.1172,-4.1113,-4.0937,-4.0527,-3.9717,-3.8329,-3.8657,-3.8399,-3.7036,-3.7615,-3.7949,-3.7676,-3.7172,-3.7307,-3.8066,-3.7307,-3.7402,-3.832,-3.8144,-3.8144,-3.8301,-3.7441,-3.6953,-4.8209,-5.2051,-5.4938,-5.4712,-5.1774,-4.728,0.0,0.0,0.0,-2.6515,-2.5184,-2.4657,-2.4104,-2.3853,-2.3803,0.0,0.0,0.0,0.0,0.0,0.0,0.0,0.0,0.0,0.0,0.0,0.0,0.0,0.0,0.0,-4.7109,-4.7285,-4.7324,-4.7207,-4.7031,-4.6875,-4.6738,-4.6445,-4.6308,-4.6289,-4.5566,-4.5156,-4.5,-4.4101,-4.3476,-4.3086,-4.3262,0.0,0.0,-4.3398,-4.3594,-4.3711,-4.3711,-4.3633,-4.3437,-4.2832,-4.2461,-4.2148,-4.1562,-4.1269,-4.1172,-4.1172,-4.1172,-4.1172,-4.1172,-4.1172,-4.1172,-4.1172,-4.1172,-4.1172,-4.1172,-4.1269,-4.1367,-4.1367,-4.0211,-3.9049,-3.9049,-3.7827,-3.6602,-3.6602,-3.6602,-3.6602,-3.6602,-3.6602,-3.7099,-3.8706,-3.8882,-3.9374,-4.1016,-4.1172,-4.1172,-4.1172,-4.0898,-4.0547,-4.0117,-3.9785,-3.9414,-3.8984,-3.8828,-3.8613,-3.832,-3.8476,-3.8633,-3.875,-3.8769,-3.8828,-3.8965,-3.8828,-3.8769,-3.873,-3.7754,-3.7168,-4.5146,-4.9188,-5.2277,-5.2829,-4.9213,-4.4367,0.0,0.0,0.0,-2.6289,-2.5184,-2.4657,-2.4104,-2.3527,-2.3265,-2.3904,-2.5385,0.0,0.0,0.0,0.0,0.0,0.0,0.0,0.0,0.0,0.0,0.0,0.0,0.0,-4.7578,-4.7168,-4.6738,-4.6328,-4.6719,-4.6738,-4.6308,-4.6308,-4.6308,-4.6289,-4.5879,-4.5449,-4.5,-4.4101,-4.3476,-4.3047,0.0,0.0,0.0,-4.3086,-4.332,-4.3711,-4.3711,-4.3457,-4.3086,-4.3066,-4.2539,-4.1816,-4.1797,-4.1523,-4.1172,-4.1172,-4.1172,-4.1172,-4.1172,-4.1172,-4.1172,-4.1172,-4.1172,-4.1172,-4.1172,-4.1484,-4.1797,-4.1797,-4.1797,-4.1797,-4.1797,-4.1465,-4.1172,-4.1172,-4.1172,-4.1172,-4.1172,-4.1172,-4.1172,-4.1172,-4.1172,-4.1172,-4.1172,-4.1172,-4.1172,-4.1172,-4.1172,-4.0996,-4.0547,-4.0508,-4.0332,-3.9902,-3.9453,-3.9199,-3.9199,-3.8789,-3.8769,-3.918,-3.9199,-3.9414,-3.9883,-3.9414,-3.9199,-3.916,-3.7891,-3.6836,-3.9195,-4.2359,-4.4694,-4.4493,-4.2384,-3.9421,-3.5755,0.0,-2.8172,-2.5586,-2.433,-2.3627,-2.3452,-2.3251,-2.3703,-2.541,-2.6113,0.0,0.0,0.0,0.0,0.0,0.0,0.0,0.0,0.0,0.0,0.0,0.0,0.0,0.0,-4.7168,-4.6875,-4.6738,-4.6582,-4.6445,-4.6308,-4.6308,-4.6152,-4.5859,-4.543,-4.5,-4.457,-4.3984,-4.3476,0.0,0.0,0.0,0.0,-4.3379,-4.3594,-4.3672,-4.3398,-4.3203,-4.3008,-4.2422,-4.2031,-4.1758,-4.1465,-4.1289,-4.1172,-4.1172,-4.1172,-4.1172,-4.1172,-4.1172,-4.1172,-4.1172,-4.1172,-4.1172,-4.1172,-4.1269,-4.1445,-4.1738,-4.1797,-4.1797,-4.1797,-4.1699,-4.1523,-4.123,-4.1172,-4.1172,-4.1172,-4.1172,-4.1172,-4.1172,-4.1172,-4.1172,-4.1172,-4.1172,-4.1172,-4.1172,-4.1172,-4.1113,-4.0976,-4.0684,-4.0469,-4.0332,-3.9922,-3.9668,-3.9668,-3.9551,-3.9531,-3.9668,-3.9668,-3.9746,-3.9902,-3.9434,-3.8906,-3.832,-3.7617,-3.6992,0.0,-3.81,-4.0389,-4.0747,-3.8902,0.0,0.0,0.0,-2.6967,-2.5184,-2.4079,-2.3401,-2.3115,-2.3065,-2.3577,-2.4983,-2.5376,0.0,0.0,0.0,0.0,0.0,0.0,0.0,0.0,0.0,0.0,0.0,0.0,0.0,0.0,-4.7402,-4.7031,-4.6699,-4.6445,-4.6308,-4.6308,-4.6152,-4.5937,-4.5664,-4.5078,-4.4648,-4.4375,-4.375,-4.3418,0.0,0.0,0.0,0.0,-4.3418,-4.3457,-4.3437,-4.3183,-4.2871,-4.2539,-4.1992,-4.1699,-4.1523,-4.1269,-4.1172,-4.1172,-4.1172,-4.1172,-4.1172,-4.1172,-4.1172,-4.1172,-4.1172,-4.1172,-4.1172,-4.1172,-4.1289,-4.1484,-4.1738,-4.1914,-4.1992,-4.1836,-4.1797,-4.168,-4.125,-4.1172,-4.1172,-4.1172,-4.1172,-4.123,-4.1387,-4.1406,-4.1465,-4.1621,-4.1641,-4.1641,-4.1641,-4.1641,-4.1582,-4.1426,-4.1016,-4.0762,-4.0762,-4.0371,-4.0137,-4.0137,-3.998,-3.9961,-4.0137,-4.0137,-4.0137,-4.0137,-3.9512,-3.8769,-3.791,-3.7656,-3.7305,0.0,0.0,0.0,0.0,0.0,0.0,0.0,0.0,0.0,-2.4983,-2.4356,-2.3853,-2.3351,-2.3165,-2.3155,-2.3441,-2.3827,0.0,0.0,0.0,0.0,0.0,0.0,0.0,0.0,0.0,0.0,0.0,0.0,0.0,0.0,-4.7773,-4.7148,-4.6328,-4.6211,-4.6191,-4.6211,-4.582,-4.5625,-4.5586,-4.4785,-4.4355,-4.4277,-4.3476,-4.332,0.0,0.0,0.0,0.0,-4.3242,-4.3066,-4.3027,-4.2988,-4.25,-4.1797,-4.1758,-4.1504,-4.1172,-4.1172,-4.1172,-4.1172,-4.1172,-4.1172,-4.1172,-4.1172,-4.1172,-4.1172,-4.1172,-4.1172,-4.1172,-4.1172,-4.1465,-4.1758,-4.1797,-4.2129,-4.2324,-4.1933,-4.1875,-4.1758,-4.1348,-4.1269,-4.1269,-4.1269,-4.1269,-4.1387,-4.1797,-4.1875,-4.2031,-4.2383,-4.2461,-4.2461,-4.2422,-4.2422,-4.2266,-4.1836,-4.1445,-4.1211,-4.1172,-4.0801,-4.0566,-4.0566,-4.0195,-4.0176,-4.0566,-4.0547,-4.0508,-4.0469,-3.9629,-3.8769,-3.7969,-3.793,-3.7695,-2.9438,0.0,-2.93,-2.9318,-2.8937,-2.8359,0.0,0.0,0.0,0.0,0.0,0.0,0.0,-2.3462,-2.3717,-2.7001,0.0,0.0,0.0,0.0,0.0,0.0,0.0,0.0,0.0,0.0,0.0,0.0,0.0,0.0,0.0,-4.75,-4.6836,-4.6328,-4.5351,-4.5,-4.5312,-4.5234,-4.5019,-4.4687,-4.4492,-4.4043,-4.3398,-4.3496,-4.3437,0.0,0.0,-4.334,-4.3223,-4.3125,-4.2891,-4.2539,-4.2226,-4.1973,-4.1758,-4.1445,-4.125,-4.1172,-4.1172,-4.1172,-4.1172,-4.1172,-4.1172,-4.1172,-4.1172,-4.1172,-4.1172,-4.1172,-4.1172,-4.1172,-4.1172,-4.125,-4.1406,-4.1719,-4.2129,-4.2402,-4.2305,-4.2539,-4.2656,-4.2226,-4.2129,-4.2129,-4.2129,-4.2129,-4.2168,-4.2266,-4.2558,-4.2695,-4.2461,-4.2715,-4.2793,-4.2461,-4.2422,-4.2266,-4.1836,-4.1699,-4.1523,-4.1191,-4.1074,-4.1016,-4.1016,-4.0918,-4.0918,-4.1016,-4.0684,-4.0371,-4.0039,-3.9473,-3.8926,-3.8418,-3.8086,-3.7695,-2.8441,-2.7904,-2.7538,-2.6933,-2.6921,-2.695,0.0,0.0,0.0,0.0,0.0,0.0,0.0,0.0,0.0,0.0,0.0,0.0,0.0,0.0,0.0,0.0,0.0,0.0,0.0,0.0,0.0,0.0,0.0,0.0,-4.7949,-4.7109,-4.6269,-4.5449,-4.4551,-4.4297,-4.4726,-4.4336,-4.4121,-4.4082,-4.3672,-4.334,-4.3086,-4.332,-4.3183,0.0,0.0,-4.3359,-4.2793,-4.2988,-4.2715,-4.2109,-4.1894,-4.168,-4.1484,-4.125,-4.1172,-4.1172,-4.1172,-4.1172,-4.1172,-4.1172,-4.1172,-4.1172,-4.1172,-4.1172,-4.1172,-4.1172,-4.1172,-4.1172,-4.1172,-4.1172,-4.1289,-4.1699,-4.2129,-4.2422,-4.2422,-4.2773,-4.2949,-4.25,-4.2422,-4.2422,-4.2422,-4.2422,-4.2558,-4.2949,-4.3223,-4.3437,-4.3594,-4.3828,-4.3887,-4.3652,-4.3437,-4.3144,-4.2715,-4.2305,-4.1836,-4.1211,-4.1172,-4.1172,-4.1172,-4.1172,-4.1172,-4.1172,-4.0547,-4.0117,-3.9902,-3.9238,-3.8789,-3.8574,-3.834,-3.7988,-2.8491,-2.8565,-2.883,-2.7974,-2.7675,-2.7511,0.0,0.0,0.0,0.0,0.0,0.0,0.0,0.0,0.0,0.0,0.0,0.0,0.0,0.0,0.0,0.0,0.0,0.0,0.0,0.0,0.0,0.0,0.0,0.0,-4.7422,-4.6641,-4.5625,-4.4336,-4.3789,-4.3672,-4.4004,-4.332,-4.3164,-4.3496,-4.2773,-4.2617,-4.2969,-4.2969,-4.2773,-4.2461,0.0,0.0,-4.2363,-4.2734,-4.2422,-4.1699,-4.1699,-4.1484,-4.1172,-4.1172,-4.1172,-4.1172,-4.1172,-4.1172,-4.1172,-4.1172,-4.1172,-4.1172,-4.1172,-4.1172,-4.1172,-4.1172,-4.1172,-4.1172,-4.1172,-4.123,-4.1367,-4.1719,-4.2168,-4.2519,-4.2519,-4.2871,-4.3066,-4.2695,-4.2617,-4.2637,-4.2715,-4.2734,-4.2988,-4.3789,-4.3965,-4.4258,-4.4941,-4.5078,-4.5098,-4.5039,-4.4648,-4.4199,-4.375,-4.2988,-4.2168,-4.1328,-4.1211,-4.1172,-4.1172,-4.1172,-4.1172,-4.1172,-4.0391,-3.9961,-3.9902,-3.9062,-3.8633,-3.8574,-3.8574,-3.8301,-2.8255,-2.8504,-2.8818,-2.6539,-2.6349,-2.6519,0.0,0.0,0.0,0.0,0.0,0.0,0.0,0.0,0.0,0.0,0.0,0.0,0.0,0.0,0.0,0.0,0.0,0.0,0.0,0.0,0.0,0.0,0.0,0.0,-4.6543,-4.6035,-4.5176,-4.3848,-4.3027,-4.248,-4.2207,-4.2422,-4.2558,-4.2617,-4.248,-4.2461,-4.2519,-4.2519,-4.25,-4.2441,0.0,-4.2344,-4.1894,-4.1973,-4.1719,-4.1269,-4.1269,-4.123,-4.1172,-4.1172,-4.1172,-4.1172,-4.1172,-4.1172,-4.1172,-4.1172,-4.1172,-4.1172,-4.1172,-4.1172,-4.1172,-4.1172,-4.1172,-4.1172,-4.1172,-4.1426,-4.1719,-4.1777,-4.2402,-4.2969,-4.2969,-4.3301,-4.3594,-4.3516,-4.3516,-4.3633,-4.4023,-4.4101,-4.4258,-4.4746,-4.5137,-4.5293,-4.5058,-4.5351,-4.543,-4.5058,-4.4648,-4.4199,-4.375,-4.3262,-4.2617,-4.1758,-4.1367,-4.1172,-4.1172,-4.1172,-4.1172,-4.1172,-4.0684,-4.0254,-3.9902,-3.9375,-3.8926,-3.8574,-3.8574,-3.8144,-2.8168,-2.8065,-2.836,-2.7961,-2.7821,-2.757,-2.6716,0.0,0.0,0.0,0.0,0.0,0.0,0.0,0.0,0.0,0.0,0.0,0.0,0.0,0.0,0.0,0.0,0.0,0.0,0.0,0.0,0.0,0.0,0.0,-4.6328,-4.5469,-4.4492,-4.3398,-4.2539,-4.1894,-4.1465,-4.166,-4.1855,-4.209,-4.1855,-4.1875,-4.209,-4.209,-4.1973,-4.1777,0.0,-4.207,-4.1484,-4.1699,-4.1562,-4.1172,-4.1172,-4.1172,-4.1172,-4.1172,-4.1172,-4.1172,-4.1172,-4.1172,-4.1172,-4.1172,-4.1172,-4.1172,-4.1172,-4.1172,-4.1172,-4.1172,-4.1172,-4.1172,-4.1172,-4.1308,-4.1582,-4.2031,-4.2441,-4.2851,-4.332,-4.3574,-4.3711,-4.3711,-4.3906,-4.4141,-4.4355,-4.459,-4.4883,-4.5312,-4.5547,-4.5683,-4.5703,-4.5879,-4.5859,-4.543,-4.5,-4.4551,-4.4121,-4.3457,-4.2812,-4.2187,-4.1523,-4.1269,-4.1504,-4.1289,-4.1172,-4.1172,-4.0742,-4.0312,-3.9902,-3.9434,-3.8984,-3.8574,-3.8574,-3.8242,-2.7961,-2.7717,-2.8006,-2.8949,0.0,-2.8825,-2.9151,0.0,0.0,0.0,0.0,0.0,0.0,0.0,0.0,0.0,0.0,0.0,0.0,0.0,0.0,0.0,0.0,0.0,0.0,0.0,0.0,0.0,0.0,0.0,-4.5879,-4.4824,-4.3789,-4.2812,-4.2148,-4.1601,-4.1172,-4.1172,-4.1328,-4.166,-4.1328,-4.1387,-4.1797,-4.1699,-4.1523,-4.1348,-4.1894,-4.1758,-4.1191,-4.1523,-4.1465,-4.1172,-4.1172,-4.1172,-4.1172,-4.1172,-4.1172,-4.1172,-4.1172,-4.1172,-4.1172,-4.1172,-4.1172,-4.1172,-4.1172,-4.1172,-4.1172,-4.1172,-4.1172,-4.1172,-4.1172,-4.1328,-4.1621,-4.2266,-4.2578,-4.293,-4.3711,-4.3867,-4.3887,-4.4004,-4.4297,-4.457,-4.4687,-4.4961,-4.5332,-4.5762,-4.582,-4.5937,-4.6269,-4.6308,-4.6152,-4.5723,-4.5293,-4.4863,-4.4433,-4.3594,-4.3027,-4.2891,-4.1894,-4.1465,-4.1797,-4.1387,-4.1172,-4.1172,-4.084,-4.0469,-4.0039,-3.959,-3.9141,-3.8711,-3.8613,-3.834,-2.7418,-2.7666,-2.7968,-2.7544,-2.7821,0.0,-3.3922,-3.4198,0.0,0.0,0.0,0.0,0.0,0.0,0.0,0.0,0.0,0.0,0.0,0.0,0.0,0.0,0.0,0.0,0.0,0.0,0.0,0.0,0.0,0.0,-4.4551,-4.4043,-4.3183,-4.1933,-4.1836,-4.1601,-4.1172,-4.1172,-4.1191,-4.1211,-4.1191,-4.1387,-4.1797,-4.1387,-4.1406,-4.1738,-4.1406,-4.123,-4.1172,-4.1211,-4.1211,-4.1172,-4.1172,-4.1172,-4.1172,-4.1172,-4.1172,-4.1172,-4.1172,-4.1172,-4.1172,-4.1172,-4.1172,-4.1172,-4.1172,-4.1172,-4.1172,-4.1172,-4.1172,-4.1172,-4.1172,-4.1758,-4.2344,-4.2402,-4.3027,-4.375,-4.4238,-4.4355,-4.4473,-4.4844,-4.4961,-4.5117,-4.5508,-4.5605,-4.5781,-4.6191,-4.625,-4.6269,-4.6289,-4.6308,-4.6152,-4.5723,-4.5293,-4.4863,-4.4433,-4.3594,-4.3418,-4.4199,-4.2676,-4.1758,-4.1797,-4.1387,-4.1172,-4.1172,-4.1152,-4.0918,-4.0469,-4.0059,-3.9609,-3.9141,-3.875,-3.834,-2.6967,-2.7946,-2.9352,-3.0156,0.0,0.0,0.0,0.0,0.0,0.0,0.0,0.0,0.0,0.0,0.0,0.0,0.0,0.0,0.0,0.0,0.0,0.0,0.0,0.0,0.0,0.0,0.0,0.0,0.0,0.0,0.0,-4.3164,-4.2578,-4.1816,-4.1543,-4.1328,-4.1172,-4.1172,-4.1172,-4.1172,-4.1172,-4.125,-4.1406,-4.125,-4.125,-4.1406,-4.125,-4.1172,-4.1172,-4.1172,-4.1172,-4.1172,-4.1172,-4.1172,-4.1172,-4.1172,-4.1172,-4.1172,-4.1172,-4.1172,-4.1172,-4.1172,-4.1172,-4.1172,-4.1172,-4.1172,-4.1172,-4.1172,-4.1172,-4.123,-4.1484,-4.1601,-4.1855,-4.2637,-4.2871,-4.3183,-4.418,-4.4394,-4.4531,-4.4941,-4.5254,-4.5488,-4.5644,-4.5898,-4.6113,-4.6289,-4.6308,-4.6308,-4.6308,-4.6308,-4.6152,-4.5723,-4.5293,-4.4746,-4.4023,-4.3926,-4.3926,-4.3965,-4.2851,-4.2187,-4.2187,-4.1797,-4.1445,-4.1172,-4.1172,-4.0957,-4.0527,-4.0371,-4.0059,-3.9629,-3.918,-3.8867,-2.6367,-2.757,-2.9352,0.0,0.0,0.0,0.0,0.0,0.0,0.0,0.0,0.0,0.0,0.0,0.0,0.0,0.0,0.0,0.0,0.0,0.0,0.0,0.0,0.0,0.0,0.0,0.0,0.0,0.0,0.0,0.0,-4.2461,-4.2031,-4.1621,-4.1328,-4.1172,-4.1172,-4.1172,-4.1172,-4.1172,-4.1172,-4.1172,-4.1172,-4.1172,-4.1172,-4.1172,-4.1172,-4.1172,-4.1172,-4.1172,-4.1172,-4.1172,-4.1172,-4.1172,-4.1172,-4.1172,-4.1172,-4.1172,-4.1172,-4.1172,-4.1172,-4.1172,-4.1172,-4.1172,-4.1172,-4.1172,-4.1172,-4.1172,-4.1269,-4.1465,-4.1894,-4.168,-4.166,-4.2812,-4.2851,-4.2988,-4.4316,-4.459,-4.4766,-4.5312,-4.5664,-4.5879,-4.5879,-4.6113,-4.6308,-4.6308,-4.6308,-4.6308,-4.6308,-4.6308,-4.6152,-4.5723,-4.5293,-4.4785,-4.418,-4.4297,-4.4258,-4.3945,-4.3105,-4.2558,-4.2441,-4.2031,-4.1601,-4.1172,-4.1172,-4.1035,-4.0723,-4.0586,-4.0371,-4.0078,-3.9473,-3.9199,-2.5611,-2.6465,0.0,0.0,0.0,0.0,0.0,0.0,0.0,0.0,0.0,0.0,0.0,0.0,0.0,0.0,0.0,0.0,0.0,0.0,0.0,0.0,0.0,0.0,0.0,0.0,0.0,0.0,0.0,0.0,0.0,-4.2031,-4.1601,-4.1191,-4.1172,-4.1172,-4.1172,-4.1172,-4.1172,-4.1172,-4.1172,-4.1172,-4.1172,-4.1172,-4.1172,-4.1172,-4.1172,-4.1172,-4.1172,-4.1172,-4.1172,-4.1172,-4.1172,-4.1172,-4.1172,-4.1172,-4.1172,-4.1172,-4.1172,-4.1172,-4.1172,-4.1172,-4.1172,-4.1172,-4.1172,-4.1172,-4.1172,-4.1172,-4.1484,-4.1894,-4.2305,-4.2109,-4.2012,-4.2871,-4.3086,-4.3437,-4.4746,-4.5019,-4.5273,-4.6133,-4.6308,-4.6308,-4.6308,-4.6308,-4.6308,-4.6308,-4.6308,-4.6308,-4.6308,-4.6308,-4.6152,-4.5723,-4.5293,-4.5019,-4.5019,-4.4629,-4.4394,-4.4394,-4.3574,-4.2891,-4.2441,-4.2031,-4.1601,-4.1172,-4.1172,-4.1172,-4.1172,-4.0742,-4.0527,-4.0508,-3.9629,-3.9219,-2.7369,0.0,0.0,0.0,0.0,0.0,0.0,0.0,0.0,0.0,0.0,0.0,0.0,0.0,0.0,0.0,0.0,0.0,0.0,0.0,0.0,0.0,0.0,0.0,0.0,0.0,0.0,0.0,0.0,0.0,0.0,-4.1426,-4.1308,-4.1172,-4.1172,-4.1172,-4.1172,-4.1172,-4.1172,-4.1172,-4.1172,-4.1172,-4.1172,-4.1172,-4.1172,-4.1172,-4.1172,-4.1172,-4.1172,-4.1172,-4.1172,-4.1172,-4.1172,-4.1172,-4.1172,-4.1172,-4.1172,-4.1172,-4.1172,-4.1172,-4.1172,-4.1172,-4.1172,-4.1172,-4.1172,-4.1172,-4.1172,-4.1172,-4.1269,-4.1465,-4.1875,-4.1894,-4.209,-4.3242,-4.3301,-4.3437,-4.4746,-4.5019,-4.5273,-4.6133,-4.6308,-4.6308,-4.6308,-4.6308,-4.6308,-4.6308,-4.6308,-4.6308,-4.6308,-4.6308,-4.6152,-4.5723,-4.5566,-4.5234,-4.4629,-4.4473,-4.4258,-4.3926,-4.3379,-4.2891,-4.2441,-4.2031,-4.1601,-4.1172,-4.1172,-4.1172,-4.1172,-4.1035,-4.0976,-4.0976,-4.0391,-4.0137,0.0,0.0,0.0,0.0,0.0,0.0,0.0,0.0,0.0,0.0,0.0,0.0,0.0,0.0,0.0,0.0,0.0,0.0,0.0,0.0,0.0,0.0,0.0,0.0,0.0,0.0,0.0,0.0,0.0,0.0,0.0,-4.1016,-4.0918,-4.0918,-4.0918,-4.0918,-4.0918,-4.0918,-4.0918,-4.0918,-4.0918,-4.082,-4.0684,-4.1016,-4.1172,-4.1172,-4.1172,-4.1172,-4.1172,-4.1172,-4.1172,-4.1172,-4.1172,-4.1172,-4.1172,-4.1172,-4.1172,-4.1172,-4.1172,-4.1172,-4.1172,-4.1172,-4.1172,-4.1172,-4.1172,-4.1172,-4.1172,-4.1172,-4.1289,-4.1484,-4.1738,-4.1933,-4.2285,-4.3223,-4.3262,-4.3398,-4.4531,-4.4902,-4.5234,-4.5918,-4.6191,-4.6308,-4.6308,-4.6308,-4.6308,-4.6308,-4.6308,-4.6308,-4.6308,-4.6308,-4.6211,-4.5957,-4.5781,-4.5391,-4.4707,-4.4492,-4.4199,-4.373,-4.3144,-4.2695,-4.2441,-4.2031,-4.1601,-4.1172,-4.1172,-4.1172,-4.1172,-4.1172,-4.1172,-4.1172,-4.0723,-4.0527,0.0,0.0,0.0,0.0,0.0,0.0,0.0,0.0,0.0,0.0,0.0,0.0,0.0,0.0,0.0,0.0,0.0,0.0,0.0,0.0,0.0,0.0,0.0,0.0,0.0,0.0,0.0,0.0,0.0,0.0,0.0,-4.0742,-4.0508,-4.0469,-4.0469,-4.0469,-4.0469,-4.0469,-4.0469,-4.0469,-4.0469,-4.0273,-3.9922,-4.0742,-4.1113,-4.1113,-4.1113,-4.1133,-4.1172,-4.1172,-4.1172,-4.1172,-4.1172,-4.1172,-4.1172,-4.1172,-4.1172,-4.1172,-4.1172,-4.1172,-4.1172,-4.1172,-4.1172,-4.1172,-4.1172,-4.1172,-4.1172,-4.1172,-4.1445,-4.1738,-4.1738,-4.2051,-4.2461,-4.2871,-4.3027,-4.332,-4.4199,-4.4707,-4.5117,-4.5586,-4.5976,-4.625,-4.6289,-4.6308,-4.6308,-4.6308,-4.6308,-4.6308,-4.6308,-4.6308,-4.6289,-4.625,-4.5859,-4.5449,-4.5,-4.457,-4.416,-4.373,-4.293,-4.2461,-4.2422,-4.1992,-4.1562,-4.1172,-4.1172,-4.1172,-4.1172,-4.1172,-4.1172,-4.1172,-4.0762,-4.0586,0.0,0.0,0.0,0.0,0.0,0.0,0.0,0.0,0.0,0.0,0.0,0.0,0.0,0.0,0.0,0.0,0.0,0.0,0.0,0.0,0.0,0.0,0.0,0.0,0.0,0.0,0.0,0.0,0.0,0.0,-4.0684,-4.0566,-4.0371,-4.0039,-4.0039,-4.0039,-4.0039,-4.0039,-4.0039,0.0,-4.0039,-3.998,-3.9922,-4.043,-4.0664,-4.0664,-4.0664,-4.0859,-4.1172,-4.1172,-4.1172,-4.1172,-4.1172,-4.1172,-4.1172,-4.1172,-4.1172,-4.1172,-4.1172,-4.1172,-4.1172,-4.1172,-4.1172,-4.1172,-4.1172,-4.1172,-4.1172,-4.1172,-4.123,-4.1308,-4.1308,-4.1621,-4.1953,-4.2051,-4.2598,-4.332,-4.4199,-4.4473,-4.4766,-4.5527,-4.5742,-4.5918,-4.625,-4.6308,-4.6308,-4.6308,-4.6308,-4.6308,-4.6308,-4.6308,-4.6172,-4.584,-4.543,-4.5,-4.457,-4.4121,-4.3808,-4.3711,-4.3223,-4.2773,-4.2441,-4.1699,-4.1269,-4.1172,-4.1172,-4.1172,-4.1172,-4.1172,-4.1172,-4.1172,-4.1074,-4.1035,0.0,0.0,0.0,0.0,0.0,0.0,0.0,0.0,0.0,0.0,0.0,0.0,0.0,0.0,0.0,0.0,0.0,0.0,0.0,0.0,0.0,0.0,0.0,0.0,0.0,0.0,0.0,0.0,0.0,-4.0664,-4.0254,-4.0019,-3.9785,-3.957,-3.9375,-3.9355,-3.9551,-3.9375,-3.9375,-3.957,-3.957,-3.957,-3.957,-4.0019,-4.0215,-4.0215,-4.0215,-4.0351,-4.0566,-4.0781,-4.0859,-4.0879,-4.1094,-4.1172,-4.1172,-4.1172,-4.1172,-4.1172,-4.1172,-4.1172,-4.1172,-4.1172,-4.1172,-4.1172,-4.1172,-4.1172,-4.1172,-4.1172,-4.1172,-4.1172,-4.1172,-4.1348,-4.1543,-4.1758,-4.2461,-4.3203,-4.3672,-4.4101,-4.4531,-4.498,-4.5391,-4.5742,-4.5976,-4.6172,-4.6308,-4.6308,-4.6308,-4.6308,-4.6308,-4.6133,-4.5918,-4.5703,-4.5098,-4.4629,-4.4414,-4.3965,-4.3711,-4.3711,-4.3301,-4.2969,-4.2754,-4.1914,-4.1387,-4.1172,-4.1172,-4.1172,-4.1172,-4.1172,-4.1172,-4.1172,-4.1172,-4.1172,0.0,0.0,0.0,0.0,0.0,0.0,0.0,0.0,0.0,0.0,0.0,0.0,0.0,0.0,0.0,0.0,0.0,0.0,0.0,0.0,0.0,0.0,0.0,0.0,0.0,0.0,0.0,0.0,0.0,-4.0234,-3.9805,-3.9336,-3.9062,-3.8984,-3.8574,-3.8516,-3.8867,-3.8535,-3.8535,-3.8867,-3.8867,-3.8867,-3.8887,-3.9355,-3.9629,-3.9766,-3.9766,-3.9824,-3.9922,-4.0351,-4.0527,-4.0566,-4.0996,-4.1172,-4.1172,-4.1172,-4.1172,-4.1172,-4.1172,-4.1172,-4.1172,-4.1172,-4.1172,-4.1172,-4.1172,-4.1172,-4.1172,-4.1172,-4.1172,-4.1172,-4.1172,-4.1172,-4.125,-4.1621,-4.2344,-4.2988,-4.3066,-4.3652,-4.4219,-4.4375,-4.5098,-4.5703,-4.5781,-4.6074,-4.6308,-4.6308,-4.6308,-4.6269,-4.6211,-4.5898,-4.5625,-4.5469,-4.4824,-4.4355,-4.4277,-4.3926,-4.3711,-4.3711,-4.3379,-4.3144,-4.3086,-4.2324,-4.1699,-4.1289,-4.1211,-4.1172,-4.1172,-4.1172,-4.1172,-4.1172,-4.1172,-4.1172,0.0,0.0,0.0,0.0,0.0,0.0,0.0,0.0,0.0,0.0,0.0,0.0,0.0,0.0,0.0,0.0,0.0,0.0,0.0,0.0,0.0,0.0,0.0,0.0,0.0,0.0,0.0,0.0,-3.998,-3.9785,-3.9316,-3.8887,-3.8476,-3.8105,-3.7695,-3.75,-3.7559,-3.75,-3.75,-3.7559,-3.7559,-3.7559,-3.7578,-3.7988,-3.8594,-3.9297,-3.9297,-3.9531,-3.9922,-4.0351,-4.0527,-4.0566,-4.0996,-4.1172,-4.1172,-4.1172,-4.1172,-4.1172,-4.1172,-4.1172,-4.1172,-4.1172,-4.1172,-4.1172,-4.1172,-4.1172,-4.1172,-4.1172,-4.1172,-4.1172,-4.1172,-4.1172,-4.1191,-4.125,-4.1894,-4.2617,-4.2988,-4.3164,-4.3476,-4.4258,-4.5098,-4.5781,-4.6152,-4.6269,-4.6308,-4.6308,-4.6308,-4.6172,-4.5801,-4.5703,-4.5391,-4.4648,-4.4473,-4.4238,-4.3828,-4.373,-4.3711,-4.3711,-4.3652,-4.3457,-4.3086,-4.2598,-4.2148,-4.1719,-4.1367,-4.1172,-4.1172,-4.1172,-4.1172,-4.1172,-4.1172,-4.1172,0.0,0.0,0.0,0.0,0.0,0.0,0.0,0.0,0.0,0.0,0.0,0.0,0.0,0.0,0.0,0.0,0.0,0.0,0.0,0.0,0.0,0.0,0.0,0.0,0.0,0.0,0.0,0.0,-3.9297,-3.9386,-3.9901,-3.9597,-3.9271,-3.9068,-3.8621,-3.7986,-3.7305,-3.707,-3.707,-3.7305,-3.7305,-3.7305,-3.7305,-3.748,-3.791,-3.8496,-3.875,-3.8965,-3.918,-3.9609,-3.9941,-4.0215,-4.0644,-4.0957,-4.1172,-4.1172,-4.1172,-4.1172,-4.1172,-4.1172,-4.1172,-4.1172,-4.1172,-4.1172,-4.1172,-4.1172,-4.1172,-4.1172,-4.1172,-4.1172,-4.1172,-4.1172,-4.1172,-4.1172,-4.1641,-4.2187,-4.2617,-4.3086,-4.3691,-4.457,-4.5058,-4.5527,-4.6191,-4.6308,-4.6308,-4.6308,-4.6308,-4.6152,-4.5723,-4.5469,-4.5078,-4.4473,-4.416,-4.3926,-4.373,-4.3711,-4.3711,-4.3711,-4.3711,-4.3613,-4.3437,-4.2773,-4.2344,-4.2148,-4.1504,-4.1172,-4.1172,-4.1172,-4.1172,-4.1172,-4.1172,-4.1172,0.0,0.0,0.0,0.0,0.0,0.0,0.0,0.0,0.0,0.0,0.0,0.0,0.0,0.0,0.0,0.0,0.0,0.0,0.0,0.0,0.0,0.0,0.0,0.0,0.0,0.0,0.0,0.0,-3.8853,-3.9333,-4.0368,-4.0319,-4.0202,-3.9794,-3.9227,-3.818,-3.6816,-3.6387,-3.6328,-3.6641,-3.6758,-3.6816,-3.6816,-3.7031,-3.7305,-3.7637,-3.8184,-3.8476,-3.8613,-3.9023,-3.9414,-3.9766,-4.0195,-4.0625,-4.1016,-4.1016,-4.1074,-4.1172,-4.1172,-4.1172,-4.1172,-4.1172,-4.1172,-4.1172,-4.1172,-4.1172,-4.1172,-4.1172,-4.1172,-4.1172,-4.1172,-4.1172,-4.1172,-4.1172,-4.1582,-4.207,-4.25,-4.3183,-4.3926,-4.4707,-4.4961,-4.5254,-4.6016,-4.623,-4.6308,-4.6308,-4.6211,-4.5996,-4.5566,-4.5137,-4.4707,-4.4277,-4.3906,-4.3711,-4.3711,-4.3711,-4.3711,-4.3711,-4.3711,-4.3711,-4.3711,-4.2871,-4.2422,-4.2422,-4.1601,-4.1172,-4.1172,-4.1172,-4.1172,-4.1172,-4.1172,-4.1172,0.0,0.0,0.0,0.0,0.0,0.0,0.0,0.0,0.0,0.0,0.0,0.0,0.0,0.0,0.0,0.0,0.0,0.0,0.0,0.0,0.0,0.0,0.0,0.0,0.0,0.0,0.0,0.0,-3.8844,-3.9908,-3.9866,-4.102,-4.0891,-3.9311,-3.845,-3.7225,-3.5488,-3.5039,-3.4805,-3.4844,-3.5293,-3.5488,-3.5527,-3.6328,-3.6719,-3.6777,-3.7598,-3.8184,-3.8613,-3.9023,-3.9219,-3.9277,-3.9746,-4.0195,-4.0566,-4.0566,-4.082,-4.1172,-4.1172,-4.1172,-4.1172,-4.1172,-4.1172,-4.1172,-4.1172,-4.1172,-4.1172,-4.1172,-4.1172,-4.1172,-4.1172,-4.1172,-4.1172,-4.1172,-4.1797,-4.2519,-4.2949,-4.3398,-4.3848,-4.4336,-4.4746,-4.5176,-4.5625,-4.6035,-4.6308,-4.6308,-4.5957,-4.5547,-4.5117,-4.4687,-4.4258,-4.3789,-4.3711,-4.3711,-4.3711,-4.3711,-4.3711,-4.3711,-4.3711,-4.3711,-4.3711,-4.2871,-4.2422,-4.2422,-4.1601,-4.1172,-4.1172,-4.1172,-4.1172,-4.1172,-4.1172,-4.1172,0.0,0.0,0.0,0.0,0.0,0.0,0.0,0.0,0.0,0.0,0.0,0.0,0.0,0.0,0.0,0.0,0.0,0.0,0.0,0.0,0.0,0.0,0.0,0.0,0.0,0.0,0.0,0.0,0.0,-4.0559,-4.1588,-4.189,-4.1738,-4.1115,-3.9774,-3.7699,-3.4941,-3.4785,-3.4707,-3.4707,-3.4863,-3.4941,-3.4961,-3.5566,-3.5996,-3.6289,-3.6875,-3.7519,-3.8164,-3.832,-3.8711,-3.9219,-3.9394,-3.9883,-4.0527,-4.0527,-4.0801,-4.1172,-4.1172,-4.1172,-4.1172,-4.1172,-4.1172,-4.1172,-4.1172,-4.1172,-4.1172,-4.1172,-4.1172,-4.1172,-4.1172,-4.1172,-4.1308,-4.1855,-4.2207,-4.2617,-4.332,-4.3594,-4.3848,-4.4316,-4.4512,-4.4844,-4.5547,-4.5801,-4.5996,-4.6269,-4.5937,-4.5508,-4.5078,-4.4668,-4.4219,-4.375,-4.3711,-4.3711,-4.3711,-4.3711,-4.3711,-4.3711,-4.3711,-4.3711,-4.3711,-4.2871,-4.2422,-4.2422,-4.1601,-4.1172,-4.1172,-4.1172,-4.1172,-4.1172,-4.1172,-4.1172,0.0,0.0,0.0,0.0,0.0,0.0,0.0,0.0,0.0,0.0,0.0,0.0,0.0,0.0,0.0,0.0,0.0,0.0,0.0,0.0,0.0,0.0,0.0,0.0,0.0,0.0,0.0,0.0,0.0,0.0,-4.2418,-4.2712,-4.2329,-4.1038,-3.9456,-3.7276,-3.4277,-3.4277,-3.4277,-3.4277,-3.4414,-3.4492,-3.4512,-3.4961,-3.5391,-3.582,-3.6113,-3.6797,-3.7734,-3.7871,-3.8262,-3.8789,-3.8926,-3.9434,-4.0098,-4.0254,-4.0586,-4.0976,-4.1113,-4.1172,-4.1172,-4.1172,-4.1172,-4.1172,-4.1172,-4.1172,-4.1172,-4.1172,-4.1172,-4.1172,-4.1172,-4.1172,-4.1348,-4.2051,-4.2324,-4.2617,-4.334,-4.3613,-4.3789,-4.4101,-4.4297,-4.4629,-4.5332,-4.5586,-4.582,-4.623,-4.582,-4.5351,-4.5058,-4.4512,-4.4043,-4.373,-4.3574,-4.3555,-4.3691,-4.3574,-4.3555,-4.3691,-4.3711,-4.3711,-4.3711,-4.3027,-4.2578,-4.2422,-4.1738,-4.1308,-4.1172,-4.1172,-4.1172,-4.1172,-4.1172,-4.1172,0.0,0.0,0.0,0.0,0.0,0.0,0.0,0.0,0.0,0.0,0.0,0.0,0.0,0.0,0.0,0.0,0.0,0.0,0.0,0.0,0.0,0.0,0.0,0.0,0.0,0.0,0.0,0.0,-4.108,-4.2066,-4.2066,-4.3678,-4.2822,-3.9138,-3.745,-3.5519,-3.3505,-3.3379,-3.3379,-3.3418,-3.3828,-3.4043,-3.4062,-3.4492,-3.4922,-3.5351,-3.5391,-3.6094,-3.7266,-3.7715,-3.791,-3.7969,-3.8398,-3.8828,-3.9258,-3.9707,-4.0156,-4.0586,-4.1016,-4.1172,-4.1172,-4.1172,-4.1172,-4.1172,-4.1172,-4.1172,-4.1172,-4.1172,-4.1172,-4.1172,-4.1172,-4.1172,-4.1289,-4.1699,-4.2109,-4.2539,-4.2988,-4.3398,-4.3691,-4.3711,-4.4062,-4.4512,-4.4961,-4.5371,-4.5781,-4.6211,-4.5547,-4.5,-4.5,-4.4238,-4.3711,-4.3711,-4.334,-4.3262,-4.3672,-4.332,-4.3262,-4.3672,-4.3711,-4.3691,-4.3691,-4.3301,-4.2871,-4.2422,-4.2012,-4.1601,-4.1172,-4.1172,-4.1172,-4.1172,-4.1172,-4.1172,-2.7645,0.0,0.0,0.0,0.0,0.0,0.0,0.0,0.0,0.0,0.0,0.0,0.0,0.0,0.0,0.0,0.0,0.0,0.0,0.0,0.0,0.0,0.0,0.0,0.0,0.0,0.0,0.0,-4.0604,-4.1546,-4.1546,-4.2013,-4.1225,-3.8961,-3.8504,-3.6933,-3.4122,-3.4122,-3.37,-3.2969,-3.3086,-3.3301,-3.3613,-3.4043,-3.4316,-3.4473,-3.5117,-3.5586,-3.5976,-3.6719,-3.7383,-3.793,-3.8047,-3.8555,-3.9219,-3.9355,-3.9883,-4.0547,-4.0664,-4.0918,-4.1172,-4.1172,-4.1172,-4.1172,-4.1172,-4.1172,-4.1172,-4.1172,-4.1172,-4.1172,-4.1172,-4.1172,-4.1289,-4.1699,-4.1894,-4.2168,-4.293,-4.3164,-4.334,-4.3652,-4.3808,-4.4141,-4.4902,-4.4883,-4.5,-4.5742,-4.5117,-4.457,-4.457,-4.4062,-4.3711,-4.3711,-4.3594,-4.3574,-4.3691,-4.3594,-4.3574,-4.3691,-4.3711,-4.3574,-4.3262,-4.3144,-4.2734,-4.1992,-4.1855,-4.1601,-4.1172,-4.1172,-4.1172,-4.1172,-4.1172,-4.1172,-2.8097,-2.7871,-2.767,0.0,0.0,0.0,0.0,-2.8097,0.0,0.0,0.0,0.0,0.0,0.0,0.0,0.0,0.0,0.0,0.0,0.0,0.0,0.0,0.0,0.0,0.0,-4.0123,-3.9928,-3.9928,-4.0765,-4.1329,-4.1329,-4.1329,-4.0305,-3.8106,-3.7993,-3.6837,-3.4442,-3.4442,-3.4113,-3.3457,-3.3658,-3.351,-3.3184,-3.3613,-3.3906,-3.4101,-3.4609,-3.5059,-3.543,-3.5937,-3.6641,-3.7422,-3.7598,-3.8066,-3.8691,-3.8867,-3.9492,-4.0293,-4.0469,-4.0801,-4.1172,-4.1172,-4.1172,-4.1172,-4.1172,-4.1172,-4.1172,-4.1172,-4.1172,-4.1172,-4.1172,-4.1172,-4.123,-4.1484,-4.168,-4.1992,-4.2656,-4.2949,-4.3203,-4.3633,-4.3711,-4.3926,-4.4648,-4.4551,-4.4629,-4.5312,-4.4824,-4.4394,-4.4394,-4.3984,-4.3711,-4.3711,-4.3379,-4.3242,-4.3418,-4.3281,-4.3242,-4.3437,-4.3613,-4.3516,-4.3105,-4.3086,-4.2676,-4.1816,-4.1797,-4.1601,-4.1172,-4.1172,-4.1172,-4.1172,-4.1172,-4.1618,-2.8273,-2.8298,-2.8398,-2.8825,-2.8247,0.0,-2.6866,-2.7067,-2.7695,0.0,0.0,0.0,0.0,0.0,0.0,0.0,0.0,0.0,0.0,0.0,0.0,0.0,0.0,0.0,-4.0927,-4.1028,-4.1078,-4.1078,-4.1128,-4.1153,-4.1153,-4.1153,-3.9892,-3.7156,-3.6906,-3.613,-3.4742,-3.4412,-3.4316,-3.4379,-3.456,-3.4004,-3.2812,-3.3184,-3.3594,-3.4004,-3.4043,-3.4551,-3.5312,-3.5371,-3.5898,-3.6719,-3.709,-3.7519,-3.7969,-3.8359,-3.9062,-3.9863,-4.0254,-4.0703,-4.1094,-4.1094,-4.1133,-4.1172,-4.1172,-4.1172,-4.1172,-4.1172,-4.1172,-4.1172,-4.1172,-4.1172,-4.1172,-4.1172,-4.1465,-4.1855,-4.2324,-4.2734,-4.3144,-4.3613,-4.3711,-4.3848,-4.4316,-4.4355,-4.4453,-4.4824,-4.457,-4.4297,-4.4199,-4.3867,-4.3633,-4.3633,-4.2949,-4.2656,-4.3047,-4.2715,-4.2637,-4.2988,-4.3359,-4.3379,-4.2949,-4.2988,-4.2598,-4.1758,-4.1738,-4.1543,-4.1172,-4.1172,-4.1172,-4.1172,-4.1463,-4.2503,-2.9327,-2.9453,-2.9377,-2.9026,-2.9126,0.0,-2.8574,-2.8197,-2.8273,0.0,0.0,0.0,0.0,0.0,0.0,0.0,0.0,0.0,0.0,0.0,0.0,0.0,0.0,0.0,-3.8642,-3.9069,-3.9346,-3.9346,-3.9772,-4.0023,-4.0023,-4.0023,-3.979,-3.9111,-3.8,-3.7223,-3.6874,-3.4553,-3.3518,-3.3759,-3.2751,-3.2352,-3.2793,-3.2871,-3.3144,-3.3574,-3.3926,-3.4355,-3.4863,-3.5234,-3.5898,-3.668,-3.6758,-3.7266,-3.793,-3.8027,-3.8594,-3.9355,-3.9434,-3.998,-4.0644,-4.0644,-4.0879,-4.1172,-4.1172,-4.1172,-4.1172,-4.1172,-4.1172,-4.1172,-4.1172,-4.1172,-4.1172,-4.1172,-4.123,-4.1504,-4.2266,-4.25,-4.2773,-4.3555,-4.3711,-4.3848,-4.4316,-4.4082,-4.3867,-4.3945,-4.3887,-4.3594,-4.291,-4.3027,-4.3203,-4.3203,-4.3047,-4.2988,-4.3066,-4.3008,-4.2832,-4.2558,-4.2637,-4.248,-4.207,-4.2383,-4.2148,-4.1308,-4.1289,-4.125,-4.1172,-4.1172,-4.1172,-4.1172,-4.279,-4.3794,0.0,-2.9804,0.0,-2.9428,-2.9151,0.0,0.0,-2.7469,0.0,0.0,0.0,0.0,0.0,0.0,0.0,0.0,0.0,0.0,0.0,0.0,0.0,0.0,0.0,0.0,-3.7186,-3.7688,-3.814,-3.8417,-3.8693,-3.8843,-3.8843,-3.8843,-3.8664,-3.8167,-3.7517,-3.7191,-3.7477,-3.6031,-3.5069,-3.4528,-3.3989,-3.3105,-3.2168,-3.2598,-3.291,-3.3125,-3.3555,-3.3984,-3.4414,-3.4863,-3.543,-3.6055,-3.6269,-3.6738,-3.7305,-3.7305,-3.7969,-3.8887,-3.8887,-3.9473,-4.0215,-4.0215,-4.0508,-4.084,-4.084,-4.0996,-4.1172,-4.1172,-4.1172,-4.1172,-4.1172,-4.1172,-4.1172,-4.1172,-4.1172,-4.1348,-4.1973,-4.2109,-4.2363,-4.3223,-4.3398,-4.3535,-4.3984,-4.3691,-4.3398,-4.3398,-4.3398,-4.3164,-4.25,-4.2812,-4.2988,-4.2773,-4.2558,-4.2441,-4.2441,-4.2441,-4.2344,-4.2129,-4.2305,-4.2246,-4.1816,-4.1992,-4.1816,-4.1191,-4.1172,-4.1172,-4.1172,-4.2196,-4.2637,-4.2637,-4.3663,-4.5127,0.0,0.0,0.0,0.0,0.0,-2.88,0.0,0.0,0.0,0.0,0.0,0.0,0.0,0.0,0.0,0.0,0.0,0.0,0.0,0.0,0.0,0.0,0.0,0.0,0.0,-3.6433,-3.7086,-3.7638,-3.7688,-3.7739,-3.7839,-3.7839,-3.7568,-3.694,-3.6653,-3.6787,-3.731,-3.7098,-3.6264,-3.4847,-3.5245,-3.401,-3.1543,-3.2226,-3.2637,-3.2812,-3.3144,-3.3594,-3.4101,-3.4434,-3.4902,-3.543,-3.5859,-3.6289,-3.668,-3.668,-3.7422,-3.8457,-3.8457,-3.9023,-3.9766,-3.9766,-4.0098,-4.0547,-4.0625,-4.0898,-4.1172,-4.1172,-4.1172,-4.1172,-4.1172,-4.1172,-4.1172,-4.1172,-4.1172,-4.1289,-4.1699,-4.1797,-4.2031,-4.2793,-4.2949,-4.3105,-4.3613,-4.3359,-4.3047,-4.2969,-4.2949,-4.2773,-4.2246,-4.2558,-4.2695,-4.2344,-4.2012,-4.1797,-4.1797,-4.1797,-4.1758,-4.168,-4.1992,-4.2031,-4.1699,-4.168,-4.1523,-4.1172,-4.1172,-4.1327,-4.1753,-4.3359,-4.4096,-4.4096,-4.4827,-4.6882,0.0,0.0,0.0,0.0,-3.1537,-3.1838,0.0,0.0,-2.8298,-2.7444,0.0,0.0,0.0,0.0,0.0,0.0,0.0,0.0,0.0,0.0,0.0,0.0,0.0,0.0,0.0,-3.4826,-3.5956,-3.6508,-3.6558,-3.6759,-3.7262,-3.7287,-3.7415,-3.7867,-3.6536,-3.6161,-3.6763,-3.5474,-3.4295,-3.3304,-3.3346,-3.2703,-3.1523,-3.1621,-3.207,-3.2793,-3.2851,-3.332,-3.4082,-3.4121,-3.4629,-3.543,-3.5859,-3.6289,-3.668,-3.668,-3.7226,-3.7988,-3.7988,-3.8555,-3.9277,-3.9277,-3.9844,-4.0586,-4.0976,-4.1133,-4.1172,-4.1172,-4.1172,-4.1172,-4.1172,-4.1172,-4.1172,-4.1172,-4.1172,-4.1289,-4.1699,-4.1797,-4.1933,-4.2402,-4.25,-4.2754,-4.3574,-4.3359,-4.2949,-4.2558,-4.25,-4.2207,-4.1426,-4.168,-4.1933,-4.1875,-4.1836,-4.1797,-4.1797,-4.1797,-4.1641,-4.1269,-4.1289,-4.1289,-4.125,-4.125,-4.123,-4.1172,-4.1172,-4.2062,-4.3794,-4.3945,-4.4096,-4.4226,-4.7759,-4.9534,0.0,0.0,0.0,0.0,0.0,0.0,-2.9905,-2.8925,-2.8423,-2.8273,0.0,0.0,0.0,0.0,0.0,0.0,-2.6615,0.0,0.0,0.0,0.0,0.0,0.0,0.0,0.0,0.0,0.0,0.0,-3.4449,-3.455,-3.4776,-3.5705,-3.6483,-3.7036,-3.6751,-3.702,-3.798,-3.7339,-3.6508,-3.5595,-3.5595,-3.4491,-3.2493,-3.2621,-3.2634,-3.2441,-3.2695,-3.3144,-3.3711,-3.3965,-3.4297,-3.4687,-3.5391,-3.5918,-3.6289,-3.6289,-3.6836,-3.7559,-3.7559,-3.8125,-3.8887,-3.9121,-3.9629,-4.0234,-4.0664,-4.0976,-4.1172,-4.1172,-4.1172,-4.1172,-4.1172,-4.1172,-4.1172,-4.1172,-4.1172,-4.123,-4.1406,-4.1426,-4.1562,-4.1973,-4.207,-4.2246,-4.2851,-4.2617,-4.2363,-4.2422,-4.2226,-4.1855,-4.125,-4.1543,-4.1699,-4.1465,-4.1426,-4.1426,-4.1426,-4.1426,-4.1367,-4.1191,-4.1172,-4.1172,-4.1172,-4.1172,-4.1172,-4.1172,-4.1172,-4.2196,-4.4096,-4.5276,-4.6441,-4.7613,-4.9224,-5.0551,-3.4827,0.0,0.0,0.0,0.0,0.0,-3.0532,-2.9478,-2.8825,-2.89,-2.8423,0.0,0.0,0.0,-2.6992,-2.7243,0.0,-2.6239,0.0,0.0,0.0,0.0,0.0,0.0,0.0,0.0,0.0,-3.1888,-3.2089,-3.229,-3.2591,-3.4048,-3.5253,-3.6107,-3.6684,-3.7292,-3.8088,-3.8416,-3.8001,-3.6918,-3.7346,-3.5922,-3.3077,-3.3413,-3.2921,-3.2012,-3.2441,-3.2871,-3.3281,-3.3711,-3.3965,-3.4141,-3.4902,-3.5469,-3.5859,-3.5976,-3.6484,-3.7148,-3.7266,-3.7851,-3.8652,-3.9062,-3.9512,-3.998,-4.0391,-4.084,-4.1172,-4.1172,-4.1172,-4.1172,-4.1172,-4.1172,-4.1172,-4.1172,-4.1172,-4.1172,-4.1172,-4.1172,-4.1269,-4.1562,-4.1621,-4.1758,-4.2187,-4.1992,-4.1894,-4.2207,-4.1894,-4.1523,-4.1211,-4.1445,-4.1504,-4.1211,-4.1172,-4.1172,-4.1172,-4.1172,-4.1172,-4.1172,-4.1172,-4.1172,-4.1172,-4.1172,-4.1172,-4.1172,-4.1172,-4.235,-4.4827,-4.6293,-4.8361,-5.0857,-5.0857,-5.1583,0.0,0.0,0.0,-3.4801,0.0,0.0,-3.1461,-3.0909,-3.0231,-2.9151,-2.9352,-2.9377,-2.8298,-2.8072,-2.7871,-2.7369,-2.7243,0.0,0.0,0.0,0.0,0.0,0.0,0.0,0.0,0.0,0.0,-2.9101,-2.9578,-3.0357,-3.1386,-3.2541,-3.3897,-3.5529,-3.6107,-3.6306,-3.5931,-3.7294,-3.7097,-3.5398,-3.6811,-3.5922,-3.3077,-3.3077,-3.2567,-3.1562,-3.2012,-3.2422,-3.2851,-3.3262,-3.3691,-3.4121,-3.4551,-3.5,-3.5469,-3.5879,-3.6309,-3.6758,-3.7148,-3.7851,-3.8652,-3.9062,-3.9512,-3.998,-4.0391,-4.084,-4.1172,-4.1172,-4.1172,-4.1172,-4.1172,-4.1172,-4.1172,-4.1172,-4.1172,-4.1172,-4.1172,-4.1172,-4.1172,-4.1191,-4.1191,-4.1328,-4.1758,-4.1816,-4.1797,-4.1816,-4.1465,-4.1191,-4.1172,-4.1191,-4.1191,-4.1172,-4.1172,-4.1172,-4.1172,-4.1172,-4.1172,-4.1172,-4.1172,-4.1172,-4.1172,-4.1172,-4.1172,-4.1172,-4.1172,-4.3096,-4.6882,-4.7029,-4.8938,-5.2792,-5.2792,-5.2792,-4.0201,-3.9239,-3.799,-3.6684,-3.5655,-3.4424,-3.239,-3.1512,-3.0809,-2.9729,-2.9955,-2.998,-2.885,-2.8047,-2.7494,-2.7318,-2.6967,-2.6615,0.0,0.0,0.0,0.0,0.0,0.0,0.0,0.0,0.0,-2.7795,-2.7695,-2.8222,-2.9679,-3.116,-3.2893,-3.4926,-3.5529,-3.6223,-3.7269,-3.7792,-3.8039,-3.8267,-3.8687,-3.7902,-3.5922,-3.4958,-3.399,-3.2881,-3.2435,-3.2402,-3.2832,-3.3242,-3.3516,-3.3711,-3.4414,-3.4805,-3.5019,-3.5742,-3.6289,-3.6777,-3.7461,-3.8086,-3.8594,-3.875,-3.9082,-3.9512,-3.9961,-4.041,-4.0801,-4.1094,-4.1172,-4.1172,-4.1172,-4.1172,-4.1172,-4.1172,-4.1172,-4.1172,-4.1172,-4.1172,-4.1172,-4.1172,-4.1172,-4.1211,-4.1367,-4.1387,-4.1484,-4.1758,-4.1445,-4.1172,-4.1172,-4.1172,-4.1172,-4.1172,-4.1172,-4.1172,-4.1172,-4.1172,-4.1172,-4.1172,-4.1172,-4.1172,-4.1172,-4.1172,-4.1172,-4.1172,-4.1172,-4.3075,-4.7029,-4.7387,-4.9619,-5.3457,-5.3833,-5.3632,-4.2005,-4.0671,-3.8894,-3.8015,-3.6935,-3.5604,-3.3822,-3.3119,-3.2566,-3.1486,-3.1386,-3.126,-3.0532,-2.9026,-2.7871,-2.7871,-2.7243,-2.676,0.0,-2.6357,0.0,0.0,0.0,0.0,0.0,0.0,-2.5963,-2.6113,-2.6138,-2.6866,0.0,-3.003,-3.2014,-3.465,-3.5253,-3.6332,-3.799,-3.8015,-3.8567,-3.9697,-3.9697,-3.8921,-3.7477,-3.5945,-3.469,-3.3424,-3.2595,-3.2324,-3.2617,-3.3184,-3.3418,-3.3516,-3.4355,-3.4707,-3.4805,-3.5684,-3.6387,-3.6973,-3.7519,-3.8086,-3.8574,-3.8574,-3.8867,-3.9297,-3.9766,-4.0195,-4.0605,-4.1055,-4.1172,-4.1172,-4.1172,-4.1172,-4.1172,-4.1172,-4.1172,-4.1172,-4.1172,-4.1172,-4.1172,-4.1172,-4.1172,-4.1172,-4.1172,-4.1172,-4.1269,-4.1543,-4.1348,-4.1172,-4.1172,-4.1172,-4.1172,-4.1172,-4.1172,-4.1172,-4.1172,-4.1172,-4.1172,-4.1172,-4.1172,-4.1172,-4.1172,-4.1172,-4.1835,-4.3054,-4.2591,-4.45,-4.8873,-4.8667,-5.0412,-5.3708,-5.4084,-5.3884]},{"header":{"parameterUnit":"m.s-1","parameterCategory":1,"la1":30.6,"la2":29.2853,"lo1":-89.7004,"lo2":-87.6739,"dy":0.0162,"dx":0.0183,"nx":112,"ny":82,"refTime":"2023-06-16T06:00:00:Z","depth":0,"parameterNumber":3,"parameterNumberName":"V-component_of_WINDS"},"data":[0.0,0.0,0.0,0.0,0.0,0.0,0.0,0.0,0.0,0.0,0.0,0.0,0.0,0.0,0.0,0.0,0.0,0.0,0.0,0.0,0.0,0.0,0.0,0.0,0.0,0.0,0.0,0.0,0.0,0.0,0.0,0.0,0.0,0.0,0.0,0.0,0.0,0.0,0.0,0.0,0.0,0.0,0.0,0.0,0.0,0.0,0.0,0.0,0.0,0.0,0.0,0.0,0.0,0.0,0.0,0.0,0.0,0.0,0.0,0.0,0.0,0.0,0.0,0.0,0.0,0.0,0.0,0.0,0.0,0.0,0.0,0.0,0.0,0.0,0.0,0.0,0.0,0.0,0.0,0.0,0.0,0.0,0.0,0.0,0.0,0.0,0.0,0.0,0.0,0.0,-3.4074,-3.8278,-4.3876,-4.7894,-4.9471,-5.001,-4.8355,-4.3778,0.0,0.0,0.0,0.0,0.0,0.0,0.0,0.0,0.0,0.0,0.0,0.0,0.0,0.0,0.0,0.0,0.0,0.0,0.0,0.0,0.0,0.0,0.0,0.0,0.0,0.0,0.0,0.0,0.0,0.0,0.0,0.0,0.0,0.0,0.0,0.0,0.0,0.0,0.0,0.0,0.0,0.0,0.0,0.0,0.0,0.0,0.0,0.0,0.0,0.0,0.0,0.0,0.0,0.0,0.0,0.0,0.0,0.0,0.0,0.0,0.0,0.0,0.0,0.0,0.0,0.0,0.0,0.0,0.0,0.0,0.0,0.0,0.0,0.0,0.0,0.0,0.0,0.0,0.0,0.0,0.0,0.0,0.0,0.0,0.0,0.0,0.0,0.0,0.0,0.0,0.0,0.0,0.0,0.0,0.0,0.0,0.0,0.0,0.0,0.0,0.0,0.0,0.0,0.0,-3.6514,-4.1475,-4.6205,-4.9433,-5.0433,-4.9279,-4.7548,-4.5355,0.0,0.0,0.0,0.0,0.0,0.0,0.0,0.0,0.0,0.0,0.0,0.0,0.0,0.0,0.0,0.0,0.0,0.0,0.0,0.0,0.0,0.0,0.0,0.0,0.0,0.0,0.0,0.0,0.0,0.0,0.0,0.0,0.0,0.0,0.0,0.0,0.0,0.0,0.0,0.0,0.0,0.0,0.0,0.0,0.0,0.0,0.0,0.0,0.0,0.0,0.0,0.0,0.0,0.0,0.0,0.0,0.0,0.0,0.0,0.0,0.0,0.0,0.0,0.0,0.0,0.0,0.0,0.0,0.0,0.0,0.0,0.0,0.0,0.0,0.0,0.0,0.0,0.0,0.0,0.0,0.0,0.0,0.0,0.0,0.0,0.0,0.0,0.0,0.0,0.0,0.0,0.0,0.0,0.0,0.0,0.0,0.0,0.0,0.0,0.0,0.0,0.0,0.0,-3.668,-3.9729,-4.4228,-4.7511,-4.9933,-5.1241,-4.9779,-4.7894,-4.574,-4.3124,0.0,0.0,0.0,0.0,0.0,0.0,0.0,0.0,0.0,0.0,0.0,0.0,0.0,0.0,0.0,0.0,0.0,0.0,0.0,0.0,0.0,0.0,0.0,0.0,0.0,0.0,0.0,0.0,0.0,0.0,0.0,0.0,0.0,0.0,0.0,0.0,0.0,0.0,0.0,0.0,0.0,0.0,0.0,0.0,0.0,0.0,0.0,0.0,0.0,0.0,0.0,0.0,0.0,0.0,0.0,0.0,0.0,0.0,0.0,0.0,0.0,0.0,0.0,0.0,0.0,0.0,0.0,0.0,0.0,0.0,0.0,0.0,0.0,0.0,0.0,0.0,0.0,0.0,0.0,0.0,0.0,0.0,0.0,0.0,0.0,0.0,0.0,0.0,0.0,0.0,0.0,0.0,0.0,0.0,0.0,0.0,0.0,0.0,0.0,0.0,0.0,0.0,-3.8991,-4.1843,-4.6087,-4.826,-5.001,-5.151,-4.9894,-4.8009,-4.6047,-4.2354,0.0,0.0,0.0,0.0,0.0,0.0,0.0,0.0,0.0,0.0,0.0,0.0,0.0,0.0,0.0,0.0,0.0,0.0,0.0,0.0,0.0,0.0,0.0,0.0,0.0,0.0,0.0,0.0,0.0,0.0,0.0,0.0,0.0,0.0,0.0,0.0,0.0,0.0,0.0,0.0,0.0,0.0,0.0,0.0,0.0,0.0,0.0,0.0,0.0,0.0,0.0,0.0,0.0,0.0,0.0,0.0,0.0,0.0,0.0,0.0,0.0,0.0,0.0,0.0,0.0,0.0,0.0,0.0,0.0,0.0,0.0,0.0,0.0,0.0,0.0,0.0,0.0,0.0,0.0,0.0,0.0,0.0,0.0,0.0,0.0,0.0,0.0,0.0,0.0,0.0,0.0,0.0,0.0,0.0,0.0,0.0,0.0,0.0,0.0,0.0,0.0,0.0,-3.9738,-4.1316,-4.6337,-4.8375,-4.9779,-5.0702,-4.8509,-4.7029,-4.6915,-4.2239,0.0,0.0,0.0,0.0,0.0,0.0,0.0,0.0,0.0,0.0,0.0,0.0,0.0,0.0,0.0,0.0,0.0,0.0,0.0,0.0,0.0,0.0,0.0,0.0,0.0,0.0,0.0,0.0,0.0,0.0,0.0,0.0,0.0,0.0,0.0,0.0,0.0,0.0,0.0,0.0,0.0,0.0,0.0,0.0,0.0,0.0,0.0,0.0,0.0,0.0,0.0,0.0,0.0,0.0,0.0,0.0,0.0,0.0,0.0,0.0,0.0,0.0,0.0,0.0,0.0,0.0,0.0,0.0,0.0,0.0,0.0,0.0,0.0,0.0,0.0,0.0,0.0,0.0,0.0,0.0,0.0,0.0,0.0,0.0,0.0,0.0,0.0,0.0,0.0,0.0,0.0,0.0,0.0,0.0,0.0,0.0,0.0,0.0,0.0,0.0,0.0,0.0,-4.07,-4.2431,0.0,-4.7894,-4.8702,-4.9048,-4.8202,-4.7029,-4.5512,0.0,0.0,0.0,0.0,0.0,0.0,0.0,0.0,0.0,0.0,0.0,0.0,0.0,0.0,0.0,0.0,0.0,0.0,0.0,0.0,0.0,0.0,0.0,0.0,0.0,0.0,0.0,0.0,0.0,0.0,0.0,0.0,0.0,0.0,0.0,0.0,0.0,0.0,0.0,0.0,0.0,0.0,0.0,0.0,0.0,0.0,0.0,0.0,0.0,0.0,0.0,0.0,0.0,0.0,0.0,0.0,0.0,0.0,0.0,0.0,0.0,0.0,0.0,0.0,0.0,0.0,0.0,0.0,0.0,0.0,0.0,0.0,0.0,0.0,0.0,0.0,0.0,0.0,0.0,0.0,0.0,0.0,0.0,0.0,0.0,0.0,0.0,0.0,0.0,0.0,0.0,0.0,0.0,0.0,0.0,0.0,0.0,0.0,0.0,0.0,0.0,0.0,-4.0546,-4.1431,-4.3008,0.0,-4.724,-4.774,-4.774,-4.7201,-4.6201,-4.4607,0.0,0.0,0.0,0.0,0.0,0.0,0.0,0.0,0.0,0.0,0.0,0.0,0.0,0.0,0.0,0.0,0.0,0.0,0.0,0.0,0.0,0.0,0.0,0.0,0.0,0.0,0.0,0.0,0.0,0.0,0.0,0.0,0.0,0.0,0.0,0.0,0.0,0.0,0.0,0.0,0.0,0.0,0.0,0.0,0.0,0.0,0.0,0.0,0.0,0.0,0.0,0.0,0.0,0.0,0.0,0.0,0.0,0.0,0.0,0.0,0.0,0.0,0.0,0.0,0.0,0.0,0.0,0.0,0.0,0.0,0.0,0.0,0.0,0.0,0.0,0.0,0.0,0.0,0.0,0.0,0.0,0.0,0.0,0.0,0.0,0.0,0.0,0.0,0.0,0.0,0.0,0.0,0.0,0.0,0.0,0.0,0.0,0.0,0.0,0.0,0.0,0.0,-4.1354,-4.1777,-4.2777,-4.5316,-4.6394,-4.6932,-4.6894,-4.5316,-4.4393,0.0,0.0,0.0,0.0,0.0,0.0,0.0,0.0,0.0,0.0,0.0,0.0,0.0,0.0,0.0,0.0,0.0,0.0,0.0,0.0,0.0,0.0,0.0,0.0,0.0,0.0,0.0,0.0,0.0,0.0,0.0,0.0,0.0,0.0,0.0,0.0,0.0,0.0,0.0,0.0,0.0,0.0,0.0,0.0,0.0,0.0,0.0,0.0,0.0,0.0,0.0,0.0,0.0,0.0,0.0,0.0,0.0,0.0,0.0,0.0,0.0,0.0,0.0,0.0,0.0,0.0,0.0,0.0,0.0,0.0,0.0,0.0,0.0,0.0,0.0,0.0,0.0,0.0,0.0,0.0,0.0,0.0,0.0,0.0,0.0,0.0,0.0,0.0,0.0,0.0,0.0,0.0,0.0,0.0,0.0,0.0,0.0,0.0,0.0,0.0,0.0,0.0,0.0,-4.0508,-4.1431,-4.2777,-4.5316,-4.6894,-4.7278,-4.6086,-4.6586,-4.6278,-4.4607,0.0,0.0,0.0,0.0,0.0,0.0,0.0,0.0,0.0,0.0,0.0,0.0,0.0,0.0,0.0,0.0,0.0,0.0,0.0,0.0,0.0,0.0,0.0,0.0,0.0,0.0,0.0,0.0,0.0,0.0,0.0,0.0,0.0,0.0,0.0,0.0,0.0,0.0,0.0,0.0,0.0,0.0,0.0,0.0,0.0,0.0,0.0,0.0,0.0,0.0,0.0,0.0,0.0,0.0,0.0,0.0,0.0,0.0,0.0,0.0,0.0,0.0,0.0,0.0,0.0,0.0,0.0,0.0,0.0,0.0,0.0,0.0,0.0,0.0,0.0,0.0,0.0,0.0,0.0,0.0,0.0,0.0,0.0,0.0,0.0,0.0,0.0,0.0,0.0,0.0,0.0,0.0,0.0,0.0,0.0,0.0,0.0,0.0,0.0,0.0,0.0,0.0,-4.12,-4.2008,-4.3278,-4.5855,-4.7009,-4.7355,-4.6663,-4.724,-4.6855,-4.503,0.0,0.0,0.0,0.0,0.0,0.0,0.0,0.0,0.0,0.0,0.0,0.0,0.0,0.0,0.0,0.0,0.0,0.0,0.0,0.0,0.0,0.0,0.0,0.0,0.0,0.0,0.0,0.0,0.0,0.0,0.0,0.0,0.0,0.0,0.0,0.0,0.0,0.0,0.0,0.0,0.0,0.0,0.0,0.0,0.0,0.0,0.0,0.0,0.0,0.0,0.0,0.0,0.0,0.0,0.0,0.0,0.0,0.0,0.0,0.0,0.0,0.0,0.0,0.0,0.0,0.0,0.0,0.0,0.0,0.0,0.0,0.0,0.0,0.0,0.0,0.0,0.0,0.0,0.0,0.0,0.0,0.0,0.0,0.0,0.0,0.0,0.0,0.0,0.0,0.0,0.0,0.0,0.0,0.0,0.0,0.0,0.0,0.0,0.0,0.0,0.0,0.0,-4.2777,-4.3239,-4.4278,-4.674,-4.7163,-4.7509,-4.8163,-4.7702,-4.6932,-4.5893,0.0,0.0,0.0,0.0,0.0,0.0,0.0,0.0,0.0,0.0,0.0,0.0,0.0,0.0,0.0,0.0,0.0,0.0,0.0,0.0,0.0,0.0,0.0,0.0,0.0,0.0,0.0,0.0,0.0,0.0,0.0,0.0,0.0,0.0,0.0,0.0,0.0,0.0,0.0,0.0,0.0,0.0,0.0,0.0,0.0,0.0,0.0,0.0,0.0,0.0,0.0,0.0,0.0,0.0,0.0,0.0,0.0,0.0,0.0,0.0,-3.7514,0.0,0.0,0.0,0.0,0.0,0.0,0.0,0.0,0.0,0.0,0.0,0.0,0.0,0.0,0.0,0.0,0.0,0.0,0.0,0.0,0.0,0.0,0.0,0.0,0.0,0.0,0.0,0.0,0.0,0.0,0.0,0.0,0.0,0.0,0.0,0.0,0.0,0.0,0.0,0.0,0.0,-4.2854,-4.4239,-4.5778,-4.7663,-4.9086,-4.9663,-4.9163,-5.0164,-4.9894,-4.7702,-4.6817,0.0,0.0,0.0,0.0,0.0,0.0,0.0,0.0,0.0,0.0,0.0,0.0,0.0,0.0,0.0,0.0,0.0,0.0,0.0,0.0,0.0,0.0,0.0,0.0,0.0,0.0,0.0,0.0,0.0,0.0,0.0,0.0,0.0,0.0,0.0,0.0,0.0,0.0,0.0,0.0,0.0,0.0,0.0,0.0,0.0,0.0,0.0,0.0,0.0,0.0,0.0,0.0,0.0,0.0,0.0,0.0,0.0,0.0,0.0,0.0,-3.9496,0.0,0.0,0.0,0.0,0.0,0.0,0.0,0.0,0.0,0.0,0.0,0.0,0.0,0.0,0.0,0.0,0.0,0.0,0.0,0.0,0.0,0.0,0.0,0.0,0.0,0.0,0.0,0.0,0.0,0.0,0.0,0.0,0.0,0.0,0.0,0.0,0.0,0.0,0.0,0.0,-4.5701,-4.6163,-4.7163,-4.9663,-5.1125,-5.1895,-5.1856,-5.2664,-5.2395,-5.0664,-4.9394,0.0,0.0,0.0,0.0,0.0,0.0,0.0,0.0,0.0,0.0,0.0,0.0,0.0,0.0,0.0,0.0,0.0,0.0,0.0,0.0,0.0,0.0,0.0,0.0,0.0,0.0,0.0,0.0,0.0,0.0,0.0,0.0,0.0,0.0,0.0,0.0,0.0,0.0,0.0,0.0,0.0,0.0,0.0,0.0,0.0,0.0,0.0,0.0,0.0,0.0,0.0,0.0,0.0,-4.6434,-4.7095,-4.7609,-4.8416,-4.8526,-4.7939,-4.6728,-4.5516,-4.4195,-4.2616,0.0,0.0,0.0,0.0,0.0,0.0,0.0,0.0,0.0,0.0,0.0,0.0,0.0,0.0,0.0,0.0,0.0,0.0,0.0,0.0,0.0,0.0,0.0,0.0,-5.1242,-5.0115,-4.3871,0.0,0.0,0.0,0.0,0.0,0.0,0.0,0.0,0.0,0.0,0.0,-4.9086,-4.8663,-4.9163,-5.2241,-5.3356,-5.4164,-5.4857,-5.5088,-5.4741,-5.3703,-5.2318,-5.1318,0.0,0.0,0.0,0.0,0.0,0.0,0.0,0.0,0.0,0.0,0.0,0.0,0.0,0.0,0.0,0.0,0.0,0.0,0.0,0.0,0.0,0.0,0.0,0.0,0.0,0.0,0.0,0.0,0.0,0.0,0.0,0.0,-3.4504,-3.689,0.0,0.0,0.0,0.0,0.0,0.0,0.0,0.0,0.0,0.0,0.0,0.0,0.0,-4.5443,-4.9334,-5.0949,-5.2527,-5.3995,-5.484,-5.4876,-5.4326,-5.517,-5.5831,-5.6418,-5.6932,0.0,-4.7535,-4.592,0.0,0.0,0.0,0.0,0.0,0.0,0.0,0.0,0.0,0.0,0.0,0.0,0.0,0.0,0.0,0.0,0.0,0.0,0.0,0.0,0.0,0.0,-5.2821,-5.4399,-5.5427,-5.5721,0.0,-5.0407,-4.6432,-4.5438,-4.404,0.0,0.0,0.0,0.0,0.0,0.0,0.0,-5.0317,-5.1625,-5.3087,-5.5011,-5.5972,-5.6549,-5.6665,-5.7357,-5.7088,-5.5472,-5.5164,-5.5318,-5.5972,-5.328,0.0,0.0,0.0,0.0,0.0,0.0,0.0,0.0,0.0,0.0,0.0,0.0,0.0,0.0,0.0,0.0,0.0,0.0,0.0,0.0,0.0,0.0,0.0,0.0,0.0,0.0,0.0,0.0,0.0,-3.5716,-3.8138,-3.8762,-3.957,-3.9606,0.0,0.0,0.0,0.0,0.0,0.0,0.0,0.0,0.0,-4.7792,-4.9811,-5.2344,-5.55,-5.7116,-5.851,-5.9648,-6.0493,-6.0933,-6.108,-6.1887,-6.2438,-6.2805,-6.3613,-6.1887,-5.818,-5.3812,-5.1646,-5.0729,0.0,0.0,0.0,0.0,-4.7932,-4.9381,-5.0824,-5.2079,-5.3335,-5.4766,0.0,0.0,0.0,0.0,0.0,0.0,0.0,0.0,0.0,0.0,-5.8327,-5.9979,-6.1337,-6.2144,-6.1667,-5.8621,-5.4766,0.0,-4.9636,-4.8826,-4.7335,0.0,0.0,0.0,0.0,-4.9948,-5.3475,-5.4087,-5.4891,-5.6575,-5.7494,-5.7992,-5.7992,-5.8821,-5.8897,-5.7896,-5.7396,-5.7126,-5.6973,-5.6049,-5.5318,0.0,0.0,0.0,0.0,0.0,0.0,0.0,0.0,0.0,0.0,0.0,0.0,0.0,0.0,0.0,0.0,0.0,0.0,0.0,0.0,0.0,0.0,0.0,0.0,0.0,0.0,0.0,0.0,-3.7991,-4.0671,-4.0267,-4.2029,-4.269,0.0,0.0,0.0,0.0,0.0,0.0,-4.7058,-4.9481,-5.238,-5.5904,-5.7556,-5.9538,-6.1998,-6.3392,-6.4494,-6.5301,-6.5925,-6.6439,-6.688,-6.7467,-6.7614,-6.7467,-6.8274,-6.8164,-6.6953,-6.086,-5.7409,-5.5794,-5.3518,-5.2527,-5.2422,-5.2819,-5.3883,-5.5251,-5.67,-5.7567,-5.818,-5.9024,-5.8474,-5.7189,-5.5537,0.0,0.0,0.0,0.0,-5.6418,-5.84,-6.086,-6.3319,-6.5191,-6.6696,-6.7577,-6.699,-6.5705,-6.2695,0.0,-5.473,-5.3902,-5.138,0.0,0.0,0.0,0.0,-5.222,-5.6586,-5.67,-5.7004,-5.8486,-5.9239,-5.9467,-5.9277,-5.9968,-6.0179,-5.9676,-5.9196,-5.8665,-5.8011,-5.8396,-5.7511,-5.5203,0.0,0.0,0.0,0.0,0.0,0.0,0.0,0.0,0.0,0.0,0.0,0.0,0.0,0.0,0.0,0.0,0.0,0.0,0.0,0.0,0.0,0.0,0.0,0.0,0.0,0.0,0.0,0.0,0.0,-4.0965,-4.581,0.0,0.0,0.0,0.0,-4.5516,-4.7719,-5.0472,-5.3739,-5.6198,-5.9355,-6.3429,-6.5118,-6.71,-6.9522,-7.0403,-7.1248,-7.2018,-7.2055,-7.1725,-7.1027,-7.1064,-7.066,-6.9963,-7.077,-7.066,-6.9522,-6.4567,-6.2915,-6.3135,-5.9171,-5.8547,-5.9685,-5.8226,-5.8657,-6.0052,-6.0126,-6.0676,-6.1851,-6.5007,-6.5962,-6.5154,-6.1227,-5.9979,0.0,0.0,-5.829,-6.0309,-6.119,-6.3833,-6.6843,-6.9229,-7.044,-7.1064,-7.1027,-7.033,-6.7577,0.0,-5.7079,-5.5122,-5.3717,0.0,-5.4465,-5.4217,-5.6124,-5.8,-5.9018,-5.9847,-6.0636,-6.1504,-6.1617,-6.1315,-6.0559,-6.0931,-6.0874,-6.0132,-6.0457,-6.0666,-6.0589,-5.9858,-5.9742,-6.0396,-5.8127,0.0,0.0,0.0,0.0,0.0,0.0,0.0,0.0,0.0,0.0,0.0,0.0,0.0,0.0,0.0,0.0,0.0,0.0,0.0,0.0,0.0,0.0,0.0,0.0,0.0,0.0,0.0,0.0,-4.7021,-5.0031,0.0,-5.1022,-5.0508,-5.0986,-5.2784,-5.5611,-5.8731,-6.1998,-6.4494,-6.6916,-6.9412,-7.055,-7.1798,-7.3193,-7.2838,-7.313,-7.4074,-7.3385,-7.3239,-7.3634,-7.3634,-7.3487,-7.3193,-7.3487,-7.345,-7.301,-7.077,-6.8458,-6.6145,-6.3686,-6.3062,-6.3539,-6.3503,-6.4163,-6.5154,-6.5705,-6.6072,-6.6329,-6.6476,-6.6145,-6.5558,-6.4604,-6.398,-6.3613,-6.3759,-6.4824,-6.6072,-6.6843,-6.9082,-7.1211,-7.1578,-7.2275,-7.2569,-7.1541,-7.1101,-6.9633,-6.5485,-6.2732,-6.0577,-5.9071,-5.7752,-5.7063,-5.7413,-5.7788,-5.8438,-5.9507,-6.0447,-6.1045,-6.1307,-6.1344,-6.1232,-6.0933,-6.0864,-6.0861,-6.0874,-6.0815,-6.0781,-6.0781,-6.0512,-6.0204,-5.9973,-5.905,-5.7396,0.0,0.0,0.0,0.0,0.0,0.0,0.0,0.0,0.0,0.0,0.0,0.0,0.0,0.0,0.0,0.0,0.0,0.0,0.0,0.0,0.0,0.0,0.0,0.0,0.0,0.0,-4.8967,-5.1683,-5.5133,-5.7262,-5.7262,-5.7042,-5.7886,-6.0309,-6.3209,-6.6182,-6.9192,-7.0778,-7.2376,-7.3982,-7.4274,-7.4514,-7.4704,-7.4368,-7.4368,-7.4704,-7.4032,-7.3888,-7.4268,-7.466,-7.4639,-7.4384,-7.4762,-7.4918,-7.4882,-7.4331,-7.2532,-7.0,-6.8678,-6.8311,-6.8605,-6.9155,-6.9669,-7.022,-7.0734,-7.0587,-6.9926,-6.8862,-6.7981,-6.743,-6.7981,-6.7944,-6.8017,-6.9339,-7.011,-7.0697,-7.1505,-7.2679,-7.356,-7.3046,-7.3083,-7.301,-7.1945,-7.1725,-7.1174,-6.9265,-6.6953,-6.4494,-6.2034,-6.0272,-5.9281,-5.9575,-5.8694,-5.8501,-5.99,-6.0537,-6.087,-6.087,-6.1345,-6.1419,-6.0944,-6.0675,-6.0591,-6.0659,-6.0081,-6.0071,-6.0781,-5.984,-5.9379,-5.9511,-5.8534,-5.7066,-5.5125,0.0,0.0,0.0,0.0,0.0,0.0,0.0,0.0,0.0,0.0,0.0,0.0,0.0,0.0,0.0,0.0,0.0,0.0,0.0,0.0,0.0,0.0,0.0,-4.258,-4.9478,-5.4576,-5.4759,-6.1031,-6.472,-6.3145,-6.5197,-6.701,-6.7817,-7.0034,-7.2453,-7.4799,-7.4776,-7.5358,-7.6942,-7.6256,-7.5334,-7.4345,-7.5227,-7.5192,-7.431,-7.4234,-7.3845,-7.3177,-7.4151,-7.4168,-7.3513,-7.4457,-7.4932,-7.4932,-7.4955,-7.4955,-7.4918,-7.4074,-7.4221,-7.4918,-7.4918,-7.4918,-7.4918,-7.4882,-7.3854,-7.2569,-7.2532,-7.2018,-7.1431,-7.1431,-7.1982,-7.2753,-7.356,-7.378,-7.3927,-7.4698,-7.4331,-7.3744,-7.3707,-7.3083,-7.2532,-7.2496,-7.2496,-7.2275,-7.1468,-6.9412,-6.6512,-6.2475,-6.1777,-6.1484,-6.0676,-5.9245,0.0,-6.0346,-6.0529,-6.0529,-6.0529,-6.1924,-6.2218,-6.0566,-6.0547,-6.0299,-5.9467,-5.8304,-5.859,-6.0657,-5.8004,-5.7442,-5.9465,-5.6626,-5.5592,-5.6404,0.0,0.0,0.0,0.0,0.0,0.0,0.0,0.0,0.0,0.0,0.0,0.0,0.0,0.0,0.0,0.0,0.0,0.0,0.0,0.0,0.0,0.0,-5.0624,-5.1014,-5.4371,-5.8336,-6.2438,-6.5079,-6.691,-6.7588,-6.8766,-7.005,-7.1475,-7.319,-7.4726,-7.6014,-7.6004,-7.6138,-7.664,-7.5929,-7.5352,-7.5083,-7.4132,-7.385,-7.431,-7.3571,-7.3466,-7.3991,-7.4216,-7.4257,-7.4116,-7.5105,-7.5545,-7.5538,-7.5702,-7.613,-7.6533,-7.5139,-7.4735,-7.4918,-7.4918,-7.4918,-7.4845,-7.4221,-7.4111,-7.4074,-7.2899,-7.3156,-7.3927,-7.3927,-7.4074,-7.4404,-7.5212,-7.5432,-7.5359,-7.4992,-7.5175,-7.5139,-7.3964,-7.3523,-7.3193,-7.2642,-7.2496,-7.2275,-7.1468,-7.077,-6.9412,-6.6512,-6.5521,-6.4861,-6.409,-6.3576,0.0,-6.3906,-6.3429,-6.3062,-6.3062,-6.3466,-6.3062,-6.141,-6.1626,-6.1226,-5.9846,-5.9244,-5.9171,-5.9754,-5.9014,-5.883,-5.9412,-5.7466,-5.65,0.0,0.0,0.0,0.0,0.0,0.0,0.0,0.0,0.0,0.0,0.0,0.0,0.0,0.0,0.0,0.0,0.0,0.0,0.0,0.0,0.0,0.0,-5.3187,-5.7504,-6.0284,-6.1234,-6.3075,-6.7088,-6.9068,-7.0411,-7.1402,-7.2462,-7.3593,-7.4865,-7.5465,-7.6419,-7.7912,-7.6665,-7.6211,-7.6842,-7.5509,-7.4531,-7.4156,-7.3261,-7.288,-7.3044,-7.2448,-7.2533,-7.3044,-7.3492,-7.365,-7.3729,-7.4757,-7.544,-7.5855,-7.5923,-7.6517,0.0,0.0,0.0,0.0,0.0,-7.5909,-7.5873,-7.5359,-7.5285,-7.5249,-7.4331,-7.4661,-7.5395,-7.5395,-7.5652,-7.6019,-7.6497,-7.6607,-7.6497,-7.6056,-7.6019,-7.5763,-7.4515,-7.3927,-7.3487,-7.2679,-7.2496,-7.2349,-7.1908,-7.1541,0.0,-6.9449,-6.7687,-6.6219,-6.5411,-6.442,-6.387,-6.4237,-6.3833,-6.3429,-6.3099,-6.3686,-6.3429,-6.1741,-6.1411,0.0,0.0,0.0,-5.7902,-5.7564,-5.8417,0.0,0.0,0.0,-5.6103,-5.6103,-5.5249,0.0,0.0,-5.3795,-5.3125,0.0,0.0,0.0,0.0,0.0,0.0,0.0,0.0,0.0,0.0,0.0,0.0,0.0,0.0,0.0,0.0,-5.8149,-6.3269,-6.9168,-6.8849,-6.8533,-6.9842,-7.2408,-7.4167,-7.4237,-7.5539,-7.67,-7.7439,-7.6946,-7.7474,-7.9409,0.0,0.0,0.0,0.0,-7.3429,-7.2529,-7.264,-7.2193,-7.1312,-7.1312,-7.1312,-7.1312,-7.2193,-7.2666,-7.2666,-7.3729,-7.461,-7.551,-7.5718,-7.6396,-7.7268,-7.6533,-7.668,-7.7304,-7.7304,-7.7304,-7.7304,-7.7231,0.0,0.0,-7.6019,-7.6093,-7.624,-7.613,-7.668,-7.7304,-7.7304,-7.7304,-7.7304,-7.7304,-7.6717,-7.5909,-7.5212,-7.4404,-7.3597,-7.2826,-7.2642,-7.2606,-7.2532,-7.1945,-7.1468,-7.1468,-6.8862,-6.6549,-6.5815,-6.3759,-6.2548,-6.3282,-6.3282,-6.2915,-6.2108,0.0,0.0,-6.1741,-6.07,-5.9998,-5.9817,-5.7698,-5.606,-5.5354,-5.7117,-5.7033,-5.4747,-5.5137,-5.5356,-5.5354,-5.5681,-5.6235,-5.6895,-5.5118,-5.4448,0.0,0.0,0.0,0.0,0.0,0.0,0.0,0.0,0.0,0.0,0.0,0.0,0.0,0.0,0.0,-6.1647,-6.6094,-7.0222,-7.34,-7.391,-7.3768,-7.3088,-7.3344,-7.3843,-7.4457,-7.531,-7.589,-7.6061,-7.7051,-7.7358,-7.6539,-7.6522,-7.6394,-7.6054,-7.4422,-7.3515,-7.3274,-7.2101,-7.1457,-7.1312,0.0,0.0,-7.1312,-7.1546,-7.16,-7.16,-7.2666,-7.3171,-7.3492,-7.512,-7.6396,-7.7304,-7.7157,-7.7194,-7.7304,-7.7304,-7.7304,-7.7231,-7.657,-7.668,-7.6864,-7.5579,-7.6019,-7.6974,-7.6313,-7.668,0.0,-7.7304,-7.7304,-7.7304,-7.7304,-7.6717,-7.6056,-7.5909,-7.5249,-7.4441,-7.3634,-7.345,-7.3266,-7.2642,-7.2386,-7.2275,-7.2275,-7.0146,-6.8385,-6.8238,-6.7247,-6.6586,-6.6733,-6.6182,-6.5485,-6.4677,-6.4861,-6.4127,-6.1777,-6.1397,-6.0709,-5.9384,-5.8244,-5.7589,-5.7398,-5.7825,-5.7795,-5.7316,-5.7376,-5.7442,-5.7398,-5.7491,-5.7629,-5.774,-5.7353,-5.7242,0.0,0.0,0.0,0.0,0.0,0.0,0.0,0.0,0.0,0.0,0.0,-5.313,0.0,0.0,-6.4174,-6.6867,-7.1182,-7.4684,-7.6245,-7.67,-7.6306,-7.4889,-7.5034,-7.5337,-7.5709,-7.642,-7.6995,-7.7367,-7.7435,-7.7435,-7.7401,-7.669,-7.6284,-7.6284,-7.4458,-7.3477,-7.3477,-7.2056,-7.1312,-7.1312,-7.1312,-7.1312,-7.1312,-7.1312,-7.1312,-7.1312,-7.183,-7.2364,-7.2962,-7.4976,-7.6094,-7.6628,-7.7082,-7.7304,-7.7304,-7.7304,-7.7304,-7.7268,-7.6864,-7.6974,-7.7194,-7.6387,-7.6644,-7.7231,-7.6827,-7.7011,-7.7304,-7.7304,-7.7304,-7.7304,-7.7304,-7.7011,-7.6607,-7.6203,-7.5799,-7.5285,-7.4478,-7.4294,-7.4074,-7.3266,-7.3083,-7.2973,-7.2569,-7.1174,-7.011,-7.011,-6.9412,-6.8752,-6.8348,-6.7944,-6.7247,-6.6035,-6.5888,-6.5081,-6.3025,-6.2071,-6.108,-5.9905,-5.9428,-5.9208,-5.9208,-5.8804,-5.8621,-5.8621,-5.8217,-5.7997,-5.7997,-5.84,-5.84,-5.7997,-5.84,-5.84,0.0,0.0,0.0,0.0,0.0,0.0,0.0,0.0,-5.0879,-5.2909,-5.6325,-5.9505,-6.1298,-6.5527,-6.9417,-7.1379,-7.4864,-7.757,-7.8314,-7.8416,-7.801,-7.6927,-7.6961,-7.7164,-7.7299,-7.7739,-7.8247,-7.8855,-7.7773,-7.7502,-7.8416,-7.686,-7.6149,-7.6657,-7.4728,-7.3612,-7.3477,-7.2191,-7.1447,-7.1312,-7.1312,-7.1312,-7.1312,-7.1312,-7.1312,-7.1312,-7.1312,-7.1917,-7.2962,-7.4535,-7.5334,-7.558,-7.6432,-7.6856,-7.7019,-7.7243,-7.7304,-7.7304,-7.7304,-7.7304,-7.7304,-7.7304,-7.7304,-7.7304,-7.7304,-7.7304,-7.7304,-7.7304,-7.7304,-7.7304,-7.7304,-7.7304,-7.7157,-7.6497,-7.635,-7.613,-7.5322,-7.5139,-7.4918,-7.4074,-7.3817,-7.3487,-7.2826,-7.2092,-7.1505,-7.1321,-7.0477,-6.9633,-6.8972,-6.8752,-6.8128,-6.6659,-6.6512,-6.5852,-6.4237,-6.2842,-6.1667,-6.0676,-6.0639,-6.0566,-6.0419,-5.9648,-5.9208,-5.9208,-5.8547,-5.8217,-5.8217,-5.9061,-5.9098,-5.8474,-5.9134,-5.8914,-4.3322,-4.2373,-4.2286,-4.4722,-4.5805,-4.8578,0.0,0.0,-5.9911,-6.4106,-6.7929,-7.0601,-7.0872,-7.3578,-7.6082,-7.6961,-7.8111,-7.9126,-7.9837,-7.9938,-8.0141,-8.0615,-7.8991,-7.8111,-7.8788,-7.8348,-7.801,-7.8111,-7.7942,-7.7333,-7.6149,-7.6521,-7.6487,-7.5845,-7.4965,-7.4153,-7.3477,-7.2699,-7.1954,-7.1312,-7.1312,-7.1312,-7.1312,-7.1312,-7.1312,-7.1312,-7.1312,-7.1917,-7.2797,-7.3009,-7.3615,-7.446,-7.461,-7.5192,-7.6094,-7.6956,-7.7304,-7.7304,-7.7304,-7.7304,-7.7304,-7.7304,-7.7304,-7.7304,-7.7304,-7.7304,-7.7304,-7.7304,-7.7304,-7.7304,-7.7304,-7.7304,-7.7304,-7.7194,-7.7194,-7.6974,-7.613,-7.5983,-7.5726,-7.4918,-7.4184,-7.367,-7.356,-7.2899,-7.2129,-7.1431,-7.0036,-6.9009,-6.8898,-6.8274,-6.7467,-6.6586,-6.6512,-6.5852,-6.4237,-6.3906,-6.3135,-6.1557,-6.1484,-6.1153,-6.0419,-5.9648,-5.9208,-5.9208,-5.9134,-5.9098,-5.9098,-5.9869,-6.0236,-6.0126,-6.0236,-5.9465,-4.78,0.0,0.0,0.0,-5.2401,-5.5412,-6.1264,-6.4343,-6.688,-7.006,-7.4018,-7.6927,-7.6927,-7.8686,-8.0073,0.0,-8.0547,-8.0987,-8.0851,-8.0479,-8.0006,-7.9431,-7.8179,-7.7976,-7.96,-7.9058,-7.8822,-7.9228,-7.8483,-7.7705,-7.7063,-7.6487,-7.6048,-7.5709,-7.4559,-7.3815,-7.3477,-7.2326,-7.1819,-7.1954,-7.1954,-7.2157,-7.2563,-7.2157,-7.1718,-7.1312,-7.1312,-7.1546,-7.1969,-7.2582,-7.3044,-7.3492,-7.4082,-7.4535,-7.5048,-7.6027,-7.6793,-7.7304,-7.7304,-7.7304,-7.7304,-7.7304,-7.7304,-7.7304,-7.7304,-7.7304,-7.7304,-7.7304,-7.7304,-7.7304,-7.7304,-7.7304,-7.7304,-7.7304,-7.7304,-7.7231,-7.69,-7.6827,-7.657,-7.5763,-7.4955,-7.4258,-7.378,-7.3046,-7.2386,-7.2055,-7.1027,-7.0293,-7.0293,-6.9192,-6.8091,-6.7283,-6.6769,-6.6219,-6.5558,-6.464,-6.3796,-6.3099,-6.2585,-6.2144,-6.1814,-6.1043,-6.0603,-6.0603,-6.0162,-5.9905,-5.9905,-6.0713,-6.086,-6.0419,-6.0896,-6.0493,-4.9068,0.0,0.0,-5.4329,-5.8355,-6.2076,-6.5493,-6.9417,-7.2902,-7.4931,-7.8247,-8.0682,-8.0276,-8.1088,0.0,-8.1054,-8.0915,-8.0774,-8.0438,-7.9254,-7.808,-7.7145,-7.5772,-7.5871,-7.8384,-7.8348,-7.8483,-7.9228,-7.8077,-7.7367,-7.7367,-7.6521,-7.5912,-7.5709,-7.4864,-7.4221,-7.3815,-7.2766,-7.2394,-7.2699,-7.2699,-7.2969,-7.3477,-7.2935,-7.2293,-7.1616,-7.1819,-7.1684,-7.1401,-7.2261,-7.2536,-7.2414,-7.3206,-7.365,-7.3928,-7.4684,-7.5787,-7.6856,-7.6856,-7.7082,-7.7304,-7.7304,-7.7304,-7.7304,-7.7304,-7.7304,-7.7304,-7.7304,-7.7304,-7.7304,-7.7304,-7.7304,-7.7304,-7.7304,-7.7304,-7.7304,-7.7304,-7.7304,-7.7157,-7.6533,-7.5799,-7.5065,-7.4441,-7.3523,-7.2826,-7.2826,-7.1982,-7.1321,-7.1321,-6.9926,-6.8605,-6.7797,-6.7173,-6.6843,-6.6843,-6.5742,-6.5007,-6.4787,-6.398,-6.3392,-6.3172,-6.2144,-6.1594,-6.1594,-6.1043,-6.075,-6.075,-6.1557,-6.163,-6.108,-6.1887,-6.1851,0.0,0.0,-5.1285,-5.6494,-6.2212,-6.7726,-7.2157,-7.554,-7.8179,-7.9701,-8.1257,-8.19,-8.0479,-8.0242,-8.0242,-8.0242,-7.8407,-7.7264,-7.8031,-7.5657,-7.4083,-7.4681,-7.1818,-7.1015,0.0,-7.5405,-7.6149,-7.6927,-7.6251,-7.5777,-7.5777,-7.6454,-7.6521,-7.5709,-7.642,-7.6082,-7.4593,-7.4525,-7.4153,-7.3443,-7.3443,-7.3477,-7.3477,-7.3477,-7.3037,-7.2394,-7.3105,-7.2631,-7.1379,-7.2056,-7.2045,-7.1401,-7.1401,-7.1969,-7.288,-7.288,-7.4158,-7.5891,-7.5891,-7.6498,-7.7304,-7.7304,-7.7304,-7.7304,-7.7304,-7.7304,-7.7304,-7.7304,-7.7304,-7.7304,-7.7304,-7.7304,-7.7304,-7.7304,-7.7304,-7.7304,-7.7304,-7.7304,-7.7304,-7.7304,-7.6607,-7.6056,-7.6019,-7.4698,-7.367,-7.367,-7.2312,-7.1321,-7.1321,-6.9926,-6.8605,-6.7797,-6.765,-6.765,-6.765,-6.7614,-6.7247,-6.6476,-6.5668,-6.4861,-6.409,-6.2475,-6.1594,-6.1594,-6.1557,-6.1557,-6.1557,-6.2365,-6.2768,-6.2768,-6.3613,-6.3576,0.0,0.0,-5.5231,-6.0453,-6.5023,-6.9483,-7.3939,-7.5668,-7.6942,-7.9027,-7.7304,-7.5147,-7.4304,-7.2215,-7.1062,-7.2375,-7.2679,-7.3296,-7.484,-7.4542,-7.3605,-7.1915,-7.1516,0.0,0.0,0.0,0.0,-7.6661,-7.6657,-7.669,-7.7198,-7.7468,-7.7502,-7.7232,-7.6995,-7.6657,-7.6149,-7.5134,-7.4728,-7.4965,-7.4965,-7.4695,-7.4221,-7.4221,-7.3815,-7.3138,-7.3375,-7.2935,-7.209,-7.2834,-7.2394,-7.1379,-7.1853,-7.1987,-7.183,-7.183,-7.2666,-7.4005,-7.5334,-7.6498,-7.7304,-7.7304,-7.7304,-7.7304,-7.7304,-7.7304,-7.7304,-7.7304,-7.7304,-7.7304,-7.7304,-7.7304,-7.7304,-7.7304,-7.7304,-7.7304,-7.7304,-7.7304,-7.7304,-7.7304,-7.6644,-7.6093,-7.6093,-7.4771,-7.3523,-7.2973,-7.2459,-7.1541,-6.9926,-6.9706,-6.9192,-6.7834,-6.7687,-6.7687,-6.7687,-6.721,-6.6769,-6.6512,-6.5742,-6.4934,-6.4127,-6.3539,-6.2989,-6.2401,-6.2401,-6.2401,-6.2401,-6.2695,-6.2805,-6.2805,-6.3099,-6.3099,0.0,-5.4206,-5.8462,-6.4175,-6.7874,-7.1112,-7.4583,-7.5232,-7.5329,-7.5363,-7.2405,-6.9177,-6.7279,-6.4348,-6.3274,-6.6385,-6.6876,-6.8087,-7.1203,-7.13,-7.0564,-6.9238,-6.9704,0.0,0.0,0.0,0.0,-7.5817,-7.6589,-7.7232,-7.7942,-7.8247,-7.8382,-7.8382,-7.7942,-7.757,-7.7299,-7.6318,-7.6048,-7.6521,-7.6251,-7.5879,-7.5405,-7.5134,-7.4593,-7.3916,-7.4153,-7.3713,-7.2834,-7.3578,-7.3037,-7.1751,-7.2225,-7.1954,-7.1312,-7.1312,-7.1917,-7.3044,-7.4684,-7.5891,-7.6793,-7.7181,-7.7304,-7.7304,-7.7304,-7.7304,-7.7304,-7.7304,-7.7304,-7.7304,-7.7304,-7.7304,-7.7304,-7.7304,-7.7304,-7.7304,-7.7304,-7.7304,-7.7304,-7.7304,-7.69,-7.6533,-7.6533,-7.5432,-7.4184,-7.3083,-7.2936,-7.2055,-6.9633,-7.0036,-6.9816,-6.7907,-6.7944,-6.8017,-6.7724,-6.721,-6.6916,-6.6916,-6.6182,-6.5521,-6.4971,-6.4677,-6.4273,-6.3723,-6.3686,-6.3576,-6.3282,-6.3282,-6.2947,-6.2376,-6.2704,-6.2474,-5.2424,-5.6839,-6.0992,-6.7377,-7.0613,-7.2572,-7.4058,-7.4299,-7.3067,-6.9285,-6.6579,-6.3641,0.0,0.0,-5.6853,-6.2128,-6.1561,-6.2208,-6.7466,-6.6482,-6.5827,0.0,0.0,0.0,0.0,0.0,0.0,-7.4634,0.0,-7.7266,-7.8111,-7.8855,-7.9295,-7.9295,-7.9228,-7.8889,-7.8179,-7.8077,-7.801,-7.7976,-7.7232,-7.6893,-7.686,-7.6082,-7.5337,-7.4695,-7.5439,-7.4897,-7.3612,-7.439,-7.3815,-7.2462,-7.2496,-7.2056,-7.1379,-7.1379,-7.1951,-7.288,-7.385,-7.4903,-7.5959,-7.6856,-7.7181,-7.7243,-7.7181,-7.7181,-7.7181,-7.7181,-7.7181,-7.7181,-7.7181,-7.7243,-7.7243,-7.7243,-7.7304,-7.7304,-7.7304,-7.7304,-7.7304,-7.7304,-7.7304,-7.7304,-7.7268,-7.6607,-7.5579,-7.3905,-7.3648,-7.2768,-7.0477,-7.0844,-7.0403,-6.8054,-6.8458,-6.8605,-6.7834,-6.7724,-6.7687,-6.7687,-6.699,-6.6549,-6.6512,-6.5778,-6.5338,-6.5301,-6.5301,-6.4934,-6.4075,-6.4075,-6.3199,-6.162,-6.2377,-6.1901,-5.6375,-6.059,-6.4297,-6.7451,-6.8727,-6.9638,-7.1634,-6.9054,-6.5726,-6.4382,-5.7709,-5.1364,0.0,0.0,0.0,-5.3652,-5.851,0.0,-6.6732,-6.8505,0.0,0.0,0.0,-7.2896,-7.4399,-7.5968,0.0,0.0,-7.7299,-7.7942,-8.031,-8.1156,-8.1562,-8.1562,-8.1021,-8.0648,-8.0445,-7.9363,-7.8551,-7.7976,-7.7232,-7.6893,-7.686,-7.6082,-7.5608,-7.5473,-7.6251,-7.5743,-7.4424,-7.5777,-7.51,-7.3274,-7.3815,-7.3274,-7.2124,-7.2124,-7.1931,-7.183,-7.2797,-7.431,-7.5718,-7.5227,-7.558,-7.6027,-7.5299,-7.5048,-7.5048,-7.5048,-7.5048,-7.5227,-7.5959,-7.6161,-7.633,-7.7082,-7.7304,-7.7304,-7.7304,-7.7304,-7.7304,-7.7304,-7.7304,-7.7121,-7.6533,-7.624,-7.5544,-7.3724,-7.3007,-7.2278,-7.1154,-7.1174,-7.0844,-6.9596,-6.9155,-6.8825,-6.8605,-6.8017,-6.7687,-6.7687,-6.7504,-6.7136,-6.6512,-6.6292,-6.5925,-6.5301,-6.5301,-6.4855,-6.3925,-6.3925,-6.3149,-6.1493,-6.1768,-6.1326,-5.9668,-6.3318,-6.6221,-6.7627,-6.7956,-6.7604,-6.6229,-6.3071,-5.9244,-5.4906,-4.8644,0.0,0.0,0.0,0.0,0.0,0.0,0.0,-6.5383,-6.7388,-6.9214,0.0,-7.3334,0.0,-7.6973,-7.8691,-8.0006,0.0,-7.9667,-7.9701,-8.1663,-8.2171,-8.2543,-8.2881,-8.2171,-8.1629,-8.1291,-8.0479,-7.9701,-7.8957,-7.8213,-7.7874,-7.7841,-7.6724,-7.6386,-7.669,0.0,-7.6082,-7.5642,-7.6149,-7.5439,-7.3984,-7.4086,-7.3409,-7.236,-7.2056,-7.1684,-7.1401,-7.2004,-7.3171,-7.446,-7.431,-7.4684,-7.5048,-7.446,-7.431,-7.431,-7.431,-7.431,-7.4535,-7.551,-7.5787,-7.6027,-7.7082,-7.7304,-7.7304,-7.7304,-7.7304,-7.7304,-7.7304,-7.7304,-7.7194,-7.6717,-7.6644,-7.6006,-7.4224,-7.3585,-7.2755,-7.1295,-7.1137,-7.0916,-7.0164,-6.9706,-6.9302,-6.8935,-6.8164,-6.7687,-6.7687,-6.7687,-6.7504,-6.7026,-6.7026,-6.6806,-6.6366,-6.6366,-6.5896,-6.502,-6.4607,-6.3609,-6.2025,-6.1325,-6.0583,-6.2331,-6.5173,-6.7268,-6.7837,-6.7777,-6.6071,-6.0296,-5.7453,-5.3563,-4.4766,0.0,0.0,-3.7823,0.0,-3.9978,-4.8566,0.0,-5.6196,-6.4036,-6.5383,-6.7336,-7.2231,-7.4056,-7.6152,-7.9353,-8.0301,-8.146,-8.349,-8.2441,-8.2002,-8.2678,-8.2712,-8.2949,-8.349,-8.278,-8.2035,-8.1291,-8.119,-8.0818,-8.0175,-7.9464,-7.9058,-7.8923,-7.7536,-7.7198,-7.7604,-7.6386,-7.6251,-7.686,-7.6149,-7.5473,-7.483,-7.3984,-7.3206,-7.2462,-7.1718,-7.1413,-7.1312,-7.1312,-7.1917,-7.2714,-7.365,-7.4005,-7.4082,-7.3928,-7.385,-7.385,-7.385,-7.385,-7.4158,-7.512,-7.5404,-7.5649,-7.6628,-7.7019,-7.7082,-7.7082,-7.7181,-7.7304,-7.7304,-7.7304,-7.7304,-7.7304,-7.7304,-7.67,-7.4817,-7.45,-7.3544,-7.119,-7.1011,-7.0825,-7.0113,-6.9973,-6.9608,-6.8916,-6.8055,-6.7543,-6.7488,-6.7433,-6.7341,-6.7341,-6.7488,-6.7488,-6.7341,-6.7488,-6.714,-6.6299,-6.5357,-6.4162,-6.2591,-6.1154,-5.9935,-6.4066,-6.6221,-6.7837,-6.7956,-6.6759,-6.4276,-5.9398,-5.4311,0.0,0.0,0.0,-3.3844,-3.4262,-3.516,0.0,-4.7219,0.0,0.0,0.0,0.0,-7.0037,0.0,0.0,0.0,0.0,0.0,0.0,0.0,0.0,-8.4099,-8.4234,-8.4234,-8.3998,-8.3524,-8.278,-8.2035,-8.1291,-8.0682,-8.031,-8.0175,-7.9464,-7.8788,-7.8145,-7.7299,-7.6623,-7.6115,-7.6521,0.0,-7.6893,-7.6758,-7.6623,-7.6352,-7.4965,-7.395,-7.3206,-7.2462,-7.1819,-7.1312,-7.1312,-7.1367,-7.1634,-7.1776,-7.2364,-7.288,-7.2056,-7.183,-7.183,-7.183,-7.183,-7.2056,-7.3044,-7.3332,-7.3536,-7.461,-7.544,-7.6027,-7.6027,-7.6728,-7.7304,-7.7304,-7.7304,-7.7304,-7.7304,-7.7304,-7.6591,-7.4652,-7.3863,-7.2996,-7.1628,-7.1071,-7.0557,-6.9875,-6.9198,-6.8786,-6.8765,-6.7303,-6.6459,-6.6618,-6.5904,-6.5454,-6.5454,-6.6247,-6.6247,-6.5454,-6.6247,-6.6093,-6.5093,-6.4358,-6.3442,-6.2446,-6.1503,-6.0367,-6.4156,-6.6191,-6.7897,-6.7537,-6.5981,-6.248,-5.476,0.0,0.0,0.0,0.0,-3.1779,-3.2796,0.0,0.0,0.0,0.0,0.0,0.0,0.0,0.0,0.0,0.0,0.0,0.0,0.0,0.0,0.0,0.0,-8.42,-8.4606,-8.464,-8.4471,-8.4099,-8.3355,-8.2611,-8.1866,-8.1122,-8.0581,-8.0175,-7.9464,-7.8923,-7.8517,-7.7401,-7.6893,-7.686,-7.6454,-7.6521,-7.686,-7.6454,-7.6284,-7.6149,-7.5067,-7.439,-7.395,-7.28,-7.2191,-7.1819,-7.1447,-7.1312,-7.1312,-7.1312,-7.16,-7.1917,-7.1457,-7.1312,-7.1312,-7.1312,-7.1312,-7.1546,-7.2498,-7.2797,-7.3009,-7.4082,-7.5048,-7.5787,-7.5787,-7.6563,-7.7304,-7.7304,-7.7304,-7.7304,-7.7304,-7.7304,-7.6628,-7.461,-7.3991,-7.3104,-7.1129,-7.0691,-7.0445,-7.0272,-6.953,-6.8962,-6.8587,-6.7469,-6.6621,-6.6296,-6.6226,-6.5994,-6.5636,-6.6459,-6.6672,-6.6238,-6.6672,-6.6585,-6.6109,-6.5291,-6.4634,-6.4179,-6.2581,-6.1467,-6.3677,-6.5951,-6.7777,-6.6969,-6.5084,-6.0745,-5.0601,-4.5903,0.0,0.0,0.0,-3.0702,-3.2048,0.0,0.0,0.0,0.0,0.0,0.0,0.0,0.0,0.0,0.0,0.0,0.0,0.0,0.0,0.0,0.0,0.0,-8.4336,-8.437,-8.4302,-8.4167,-8.3558,-8.2915,-8.2171,-8.1426,-8.075,-8.0175,-7.9634,-7.9194,-7.8822,-7.7671,-7.7198,-7.7198,-7.6149,0.0,-7.6589,-7.5946,-7.5811,-7.5879,-7.4965,-7.4627,-7.4458,-7.3138,-7.2529,-7.2326,-7.1751,-7.1447,-7.1312,-7.1312,-7.1312,-7.1312,-7.1312,-7.1312,-7.1312,-7.1312,-7.1312,-7.1457,-7.2279,-7.2498,-7.2714,-7.3729,-7.461,-7.5192,-7.544,-7.6094,-7.6664,-7.6664,-7.6664,-7.6664,-7.6664,-7.6664,-7.6063,-7.4234,-7.3928,-7.3123,-7.0731,-7.0432,-7.0516,-7.0692,-6.9928,-6.9161,-6.8504,-6.7655,-6.6847,-6.6075,-6.6461,-6.6389,-6.5759,-6.6567,-6.6883,-6.6776,-6.6883,-6.6989,-6.6915,-6.6075,-6.5696,-6.5834,-6.3655,-6.255,-6.3169,-6.5951,-6.7657,-6.64,-6.3707,-5.9069,-5.0301,0.0,0.0,0.0,-3.0522,-3.0073,-3.139,-3.0313,0.0,0.0,0.0,0.0,0.0,0.0,0.0,0.0,0.0,0.0,0.0,0.0,0.0,0.0,0.0,0.0,-8.3558,-8.3592,-8.3287,-8.2644,-8.2543,-8.2137,-8.1393,-8.0648,-8.0276,-8.0209,-8.0141,-7.9397,-7.8077,-7.7942,-7.6792,-7.4965,-7.5473,0.0,0.0,-7.5743,-7.6115,-7.6657,-7.5168,-7.4627,-7.4525,-7.368,-7.2969,-7.2394,-7.2326,-7.1853,-7.1312,-7.1312,-7.1312,-7.1312,-7.1312,-7.1312,-7.1312,-7.1312,-7.1312,-7.1312,-7.1367,-7.1457,-7.1688,-7.2749,-7.3044,-7.3332,-7.4234,-7.4535,-7.4535,-7.4535,-7.4535,-7.4535,-7.4535,-7.4535,-7.4158,-7.309,-7.2962,-7.2464,-7.1355,-7.121,-7.0961,-7.0289,-6.9628,-6.891,-6.8293,-6.7364,-6.6553,-6.5971,-6.5241,-6.4869,-6.4767,-6.5593,-6.5627,-6.4869,-6.5627,-6.5972,-6.5888,-6.5047,-6.5081,-6.5691,-6.4072,-6.3057,-6.0655,-6.4455,-6.7148,-6.6251,-6.3228,-5.8231,-4.9643,0.0,0.0,-3.2198,-3.0193,-2.9624,-2.9744,-2.9116,-2.9535,0.0,0.0,0.0,0.0,0.0,0.0,0.0,0.0,0.0,0.0,0.0,0.0,0.0,0.0,0.0,-8.2137,-8.2611,-8.2712,-8.2408,-8.1968,-8.1596,-8.1291,-8.0547,-8.0209,-8.0175,-7.9295,-7.8551,-7.7942,-7.7029,-7.5879,-7.4661,-7.5371,0.0,0.0,-7.5506,-7.5879,-7.6115,-7.5506,-7.527,-7.5134,-7.3916,-7.3308,-7.2935,-7.2056,-7.1548,-7.1312,-7.1312,-7.1312,-7.1312,-7.1312,-7.1312,-7.1312,-7.1312,-7.1312,-7.1312,-7.1312,-7.1312,-7.1401,-7.183,-7.2364,-7.288,-7.3332,-7.385,-7.431,-7.431,-7.431,-7.431,-7.431,-7.431,-7.3928,-7.2962,-7.2797,-7.2448,-7.1457,-7.1312,-7.121,-7.0906,-7.0195,-6.949,-6.8793,-6.798,-6.7184,-6.6472,-6.6147,-6.573,-6.5256,-6.6038,-6.6276,-6.5933,-6.6276,-6.6446,-6.6373,-6.6068,-6.6068,-6.6339,-6.485,-6.4005,-5.7453,-6.2032,-6.5473,-6.5203,-6.1702,-5.6346,0.0,0.0,0.0,-3.1599,-3.0013,-2.9385,-2.8727,-2.8427,-2.8368,0.0,0.0,0.0,0.0,0.0,0.0,0.0,0.0,0.0,0.0,0.0,0.0,0.0,0.0,0.0,-8.1596,-8.19,-8.1968,-8.1765,-8.146,-8.119,-8.0953,-8.0445,-8.0209,-8.0175,-7.8923,-7.8213,-7.7942,-7.6386,-7.5303,-7.4627,-7.4931,0.0,0.0,-7.5168,-7.5506,-7.5709,-7.5709,-7.5574,-7.5236,-7.4187,-7.3544,-7.3003,-7.1988,-7.1481,-7.1312,-7.1312,-7.1312,-7.1312,-7.1312,-7.1312,-7.1312,-7.1312,-7.1312,-7.1312,-7.1312,-7.1481,-7.165,-7.165,-7.2171,-7.2673,-7.2673,-7.3053,-7.3412,-7.3412,-7.3412,-7.3412,-7.3412,-7.3412,-7.3206,-7.2414,-7.2364,-7.2142,-7.1401,-7.1312,-7.1312,-7.1312,-7.0838,-7.0229,-6.9485,-6.891,-6.8267,-6.7523,-6.7252,-6.688,-6.6373,-6.6643,-6.6914,-6.7117,-6.7151,-6.7252,-6.7489,-6.7252,-6.7151,-6.7083,-6.5392,-6.4377,-5.3803,-5.862,-6.2301,-6.2959,-5.865,-5.2875,0.0,0.0,0.0,-3.133,-3.0013,-2.9385,-2.8727,-2.8038,-2.785,-2.8487,-3.0253,0.0,0.0,0.0,0.0,0.0,0.0,0.0,0.0,0.0,0.0,0.0,0.0,0.0,-8.2408,-8.1697,-8.0953,-8.0242,-8.0919,-8.0953,-8.0209,-8.0209,-8.0209,-8.0175,-7.9464,-7.872,-7.7942,-7.6386,-7.5303,-7.4559,0.0,0.0,0.0,-7.4627,-7.5033,-7.5709,-7.5709,-7.527,-7.4627,-7.4593,-7.368,-7.2428,-7.2394,-7.1921,-7.1312,-7.1312,-7.1312,-7.1312,-7.1312,-7.1312,-7.1312,-7.1312,-7.1312,-7.1312,-7.1312,-7.1853,-7.2394,-7.2394,-7.2394,-7.2394,-7.2394,-7.1819,-7.1312,-7.1312,-7.1312,-7.1312,-7.1312,-7.1312,-7.1312,-7.1312,-7.1312,-7.1312,-7.1312,-7.1312,-7.1312,-7.1312,-7.1312,-7.1007,-7.0229,-7.0161,-6.9857,-6.9113,-6.8335,-6.7895,-6.7895,-6.7184,-6.7151,-6.7861,-6.7895,-6.8267,-6.9079,-6.8267,-6.7895,-6.7827,-6.5628,-6.3802,-4.6711,-5.0481,-5.3264,-5.3025,-5.0511,-4.698,-4.2611,0.0,-3.3574,-3.0492,-2.8996,-2.8158,-2.7949,-2.7709,-2.8248,-3.0283,-3.112,0.0,0.0,0.0,0.0,0.0,0.0,0.0,0.0,0.0,0.0,0.0,0.0,0.0,0.0,-8.1697,-8.119,-8.0953,-8.0682,-8.0445,-8.0209,-8.0209,-7.9938,-7.9431,-7.8686,-7.7942,-7.7198,-7.6183,-7.5303,0.0,0.0,0.0,0.0,-7.5134,-7.5506,-7.5642,-7.5168,-7.483,-7.4492,-7.3477,-7.28,-7.2326,-7.1819,-7.1515,-7.1312,-7.1312,-7.1312,-7.1312,-7.1312,-7.1312,-7.1312,-7.1312,-7.1312,-7.1312,-7.1312,-7.1481,-7.1785,-7.2293,-7.2394,-7.2394,-7.2394,-7.2225,-7.1921,-7.1413,-7.1312,-7.1312,-7.1312,-7.1312,-7.1312,-7.1312,-7.1312,-7.1312,-7.1312,-7.1312,-7.1312,-7.1312,-7.1312,-7.121,-7.0973,-7.0466,-7.0094,-6.9857,-6.9147,-6.8707,-6.8707,-6.8504,-6.847,-6.8707,-6.8707,-6.8842,-6.9113,-6.8301,-6.7387,-6.6373,-6.5155,-6.4072,0.0,-4.4413,-4.6874,-4.6668,-4.4752,0.0,0.0,0.0,-3.2138,-3.0013,-2.8697,-2.7889,-2.767,-2.761,-2.8098,-2.9774,-3.092,0.0,0.0,0.0,0.0,0.0,0.0,0.0,0.0,0.0,0.0,0.0,0.0,0.0,0.0,-8.2103,-8.146,-8.0885,-8.0445,-8.0209,-8.0209,-7.9938,-7.9566,-7.9092,-7.8077,-7.7333,-7.686,-7.5777,-7.5202,0.0,0.0,0.0,0.0,-7.5202,-7.527,-7.5236,-7.4796,-7.4255,-7.368,-7.2732,-7.2225,-7.1921,-7.1481,-7.1312,-7.1312,-7.1312,-7.1312,-7.1312,-7.1312,-7.1312,-7.1312,-7.1312,-7.1312,-7.1312,-7.1312,-7.1515,-7.1853,-7.2293,-7.2597,-7.2732,-7.2462,-7.2394,-7.2191,-7.1447,-7.1312,-7.1312,-7.1312,-7.1312,-7.1413,-7.1684,-7.1718,-7.1819,-7.209,-7.2124,-7.2124,-7.2124,-7.2124,-7.2022,-7.1751,-7.1041,-7.0601,-7.0601,-6.9925,-6.9519,-6.9519,-6.9248,-6.9214,-6.9519,-6.9519,-6.9519,-6.9519,-6.8436,-6.7151,-6.5662,-6.5222,-6.4613,0.0,0.0,0.0,0.0,0.0,0.0,0.0,0.0,0.0,-2.9774,-2.9026,-2.8427,-2.7829,-2.773,-2.784,-2.806,-3.036,0.0,0.0,0.0,0.0,0.0,0.0,0.0,0.0,0.0,0.0,0.0,0.0,0.0,0.0,-8.2746,-8.1663,-8.0242,-8.004,-8.0006,-8.004,-7.9363,-7.9025,-7.8957,-7.757,-7.6826,-7.669,-7.5303,-7.5033,0.0,0.0,0.0,0.0,-7.4897,-7.4593,-7.4525,-7.4458,-7.3612,-7.2394,-7.2326,-7.1887,-7.1312,-7.1312,-7.1312,-7.1312,-7.1312,-7.1312,-7.1312,-7.1312,-7.1312,-7.1312,-7.1312,-7.1312,-7.1312,-7.1312,-7.1819,-7.2326,-7.2394,-7.2969,-7.3308,-7.2631,-7.2529,-7.2326,-7.1616,-7.1481,-7.1481,-7.1481,-7.1481,-7.1684,-7.2394,-7.2529,-7.28,-7.3409,-7.3544,-7.3544,-7.3477,-7.3477,-7.3206,-7.2462,-7.1785,-7.1379,-7.1312,-7.0669,-7.0263,-7.0263,-6.962,-6.9586,-7.0263,-7.0229,-7.0161,-7.0094,-6.8639,-6.7151,-6.5764,-6.5696,-6.529,-3.0219,0.0,-3.4154,-3.3726,-3.3435,-3.3057,0.0,0.0,0.0,0.0,0.0,0.0,0.0,-2.9103,-2.995,-3.2465,0.0,0.0,0.0,0.0,0.0,0.0,0.0,0.0,0.0,0.0,0.0,0.0,0.0,0.0,0.0,-8.2272,-8.1122,-8.0242,-7.8551,-7.7942,-7.8483,-7.8348,-7.7976,-7.7401,-7.7063,-7.6284,-7.5168,-7.5337,-7.5236,0.0,0.0,-7.5067,-7.4864,-7.4695,-7.4289,-7.368,-7.3138,-7.2699,-7.2326,-7.1785,-7.1447,-7.1312,-7.1312,-7.1312,-7.1312,-7.1312,-7.1312,-7.1312,-7.1312,-7.1312,-7.1312,-7.1312,-7.1312,-7.1312,-7.1312,-7.1447,-7.1718,-7.2259,-7.2969,-7.3443,-7.3274,-7.368,-7.3883,-7.3138,-7.2969,-7.2969,-7.2969,-7.2969,-7.3037,-7.3206,-7.3713,-7.395,-7.3544,-7.3984,-7.4119,-7.3544,-7.3477,-7.3206,-7.2462,-7.2225,-7.1921,-7.1345,-7.1142,-7.1041,-7.1041,-7.0872,-7.0872,-7.1041,-7.0466,-6.9925,-6.935,-6.8368,-6.7421,-6.6542,-6.5967,-6.529,-2.8071,-2.9148,-3.0185,-2.9521,-3.0163,-3.0867,0.0,0.0,0.0,0.0,0.0,0.0,0.0,0.0,0.0,0.0,0.0,0.0,0.0,0.0,0.0,0.0,0.0,0.0,0.0,0.0,0.0,0.0,0.0,0.0,-8.305,-8.1596,-8.0141,-7.872,-7.7164,-7.6724,-7.7468,-7.6792,-7.642,-7.6352,-7.5642,-7.5067,-7.4627,-7.5033,-7.4796,0.0,0.0,-7.51,-7.4119,-7.4458,-7.3984,-7.2935,-7.2563,-7.2191,-7.1853,-7.1447,-7.1312,-7.1312,-7.1312,-7.1312,-7.1312,-7.1312,-7.1312,-7.1312,-7.1312,-7.1312,-7.1312,-7.1312,-7.1312,-7.1312,-7.1312,-7.1312,-7.1515,-7.2225,-7.2969,-7.3477,-7.3477,-7.4086,-7.439,-7.3612,-7.3477,-7.3477,-7.3477,-7.3477,-7.3713,-7.439,-7.4864,-7.5236,-7.5506,-7.5912,-7.6014,-7.5608,-7.5236,-7.4728,-7.3984,-7.3274,-7.2462,-7.1379,-7.1312,-7.1312,-7.1312,-7.1312,-7.1312,-7.1312,-7.0229,-6.9485,-6.9113,-6.7963,-6.7184,-6.6812,-6.6406,-6.5797,-2.8243,-2.8941,-2.9338,-2.8591,-2.9419,-3.0421,0.0,0.0,0.0,0.0,0.0,0.0,0.0,0.0,0.0,0.0,0.0,0.0,0.0,0.0,0.0,0.0,0.0,0.0,0.0,0.0,0.0,0.0,0.0,0.0,-8.2137,-8.0784,-7.9025,-7.6792,-7.5845,-7.5642,-7.6217,-7.5033,-7.4762,-7.5337,-7.4086,-7.3815,-7.4424,-7.4424,-7.4086,-7.3544,0.0,0.0,-7.3375,-7.4018,-7.3477,-7.2225,-7.2225,-7.1853,-7.1312,-7.1312,-7.1312,-7.1312,-7.1312,-7.1312,-7.1312,-7.1312,-7.1312,-7.1312,-7.1312,-7.1312,-7.1312,-7.1312,-7.1312,-7.1312,-7.1312,-7.1413,-7.165,-7.2259,-7.3037,-7.3646,-7.3646,-7.4255,-7.4593,-7.395,-7.3815,-7.3849,-7.3984,-7.4018,-7.4458,-7.5845,-7.6149,-7.6657,-7.7841,-7.8077,-7.8111,-7.801,-7.7333,-7.6555,-7.5777,-7.4458,-7.3037,-7.1582,-7.1379,-7.1312,-7.1312,-7.1312,-7.1312,-7.1312,-6.9958,-6.9214,-6.9113,-6.7658,-6.6914,-6.6812,-6.6812,-6.6339,-2.9515,-3.0836,-3.1449,-3.0396,-3.0715,-3.1187,0.0,0.0,0.0,0.0,0.0,0.0,0.0,0.0,0.0,0.0,0.0,0.0,0.0,0.0,0.0,0.0,0.0,0.0,0.0,0.0,0.0,0.0,0.0,0.0,-8.0615,-7.9735,-7.8247,-7.5946,-7.4525,-7.3578,-7.3105,-7.3477,-7.3713,-7.3815,-7.3578,-7.3544,-7.3646,-7.3646,-7.3612,-7.351,0.0,-7.3341,-7.2563,-7.2699,-7.2259,-7.1481,-7.1481,-7.1413,-7.1312,-7.1312,-7.1312,-7.1312,-7.1312,-7.1312,-7.1312,-7.1312,-7.1312,-7.1312,-7.1312,-7.1312,-7.1312,-7.1312,-7.1312,-7.1312,-7.1312,-7.1751,-7.2259,-7.236,-7.3443,-7.4424,-7.4424,-7.4999,-7.5506,-7.5371,-7.5371,-7.5574,-7.6251,-7.6386,-7.6657,-7.7502,-7.8179,-7.845,-7.8044,-7.8551,-7.8686,-7.8044,-7.7333,-7.6555,-7.5777,-7.4931,-7.3815,-7.2326,-7.165,-7.1312,-7.1312,-7.1312,-7.1312,-7.1312,-7.0466,-6.9722,-6.9113,-6.8199,-6.7421,-6.6812,-6.6812,-6.6068,-2.9813,-3.0762,-3.1496,-3.2883,-3.3155,-3.2856,-3.1839,0.0,0.0,0.0,0.0,0.0,0.0,0.0,0.0,0.0,0.0,0.0,0.0,0.0,0.0,0.0,0.0,0.0,0.0,0.0,0.0,0.0,0.0,0.0,-8.0242,-7.8754,-7.7063,-7.5168,-7.368,-7.2563,-7.1819,-7.2157,-7.2496,-7.2902,-7.2496,-7.2529,-7.2902,-7.2902,-7.2699,-7.236,0.0,-7.2868,-7.1853,-7.2225,-7.1988,-7.1312,-7.1312,-7.1312,-7.1312,-7.1312,-7.1312,-7.1312,-7.1312,-7.1312,-7.1312,-7.1312,-7.1312,-7.1312,-7.1312,-7.1312,-7.1312,-7.1312,-7.1312,-7.1312,-7.1312,-7.1548,-7.2022,-7.28,-7.351,-7.4221,-7.5033,-7.5473,-7.5709,-7.5709,-7.6048,-7.6454,-7.6826,-7.7232,-7.7739,-7.8483,-7.8889,-7.9126,-7.916,-7.9464,-7.9431,-7.8686,-7.7942,-7.7164,-7.642,-7.527,-7.4153,-7.3071,-7.1921,-7.1481,-7.1887,-7.1515,-7.1312,-7.1312,-7.0567,-6.9823,-6.9113,-6.8301,-6.7523,-6.6812,-6.6812,-6.6237,-3.038,-3.0918,-3.1655,-3.4196,0.0,-3.4352,-3.4741,0.0,0.0,0.0,0.0,0.0,0.0,0.0,0.0,0.0,0.0,0.0,0.0,0.0,0.0,0.0,0.0,0.0,0.0,0.0,0.0,0.0,0.0,0.0,-7.9464,-7.7638,-7.5845,-7.4153,-7.3003,-7.2056,-7.1312,-7.1312,-7.1582,-7.2157,-7.1582,-7.1684,-7.2394,-7.2225,-7.1921,-7.1616,-7.2563,-7.2326,-7.1345,-7.1921,-7.1819,-7.1312,-7.1312,-7.1312,-7.1312,-7.1312,-7.1312,-7.1312,-7.1312,-7.1312,-7.1312,-7.1312,-7.1312,-7.1312,-7.1312,-7.1312,-7.1312,-7.1312,-7.1312,-7.1312,-7.1312,-7.1582,-7.209,-7.3206,-7.3747,-7.4356,-7.5709,-7.598,-7.6014,-7.6217,-7.6724,-7.7198,-7.7401,-7.7874,-7.8517,-7.9261,-7.9363,-7.9566,-8.0141,-8.0209,-7.9938,-7.9194,-7.845,-7.7705,-7.6961,-7.5506,-7.4525,-7.4289,-7.2563,-7.1819,-7.2394,-7.1684,-7.1312,-7.1312,-7.0737,-7.0094,-6.935,-6.8571,-6.7793,-6.7049,-6.688,-6.6406,-3.196,-3.2826,-3.3184,-3.2826,-3.3155,0.0,-4.0427,-4.0756,0.0,0.0,0.0,0.0,0.0,0.0,0.0,0.0,0.0,0.0,0.0,0.0,0.0,0.0,0.0,0.0,0.0,0.0,0.0,0.0,0.0,0.0,-7.7164,-7.6284,-7.4796,-7.2631,-7.2462,-7.2056,-7.1312,-7.1312,-7.1345,-7.1379,-7.1345,-7.1684,-7.2394,-7.1684,-7.1718,-7.2293,-7.1718,-7.1413,-7.1312,-7.1379,-7.1379,-7.1312,-7.1312,-7.1312,-7.1312,-7.1312,-7.1312,-7.1312,-7.1312,-7.1312,-7.1312,-7.1312,-7.1312,-7.1312,-7.1312,-7.1312,-7.1312,-7.1312,-7.1312,-7.1312,-7.1312,-7.2326,-7.3341,-7.3443,-7.4525,-7.5777,-7.6623,-7.6826,-7.7029,-7.7671,-7.7874,-7.8145,-7.8822,-7.8991,-7.9295,-8.0006,-8.0107,-8.0141,-8.0175,-8.0209,-7.9938,-7.9194,-7.845,-7.7705,-7.6961,-7.5506,-7.5202,-7.6555,-7.3916,-7.2326,-7.2394,-7.1684,-7.1312,-7.1312,-7.1278,-7.0872,-7.0094,-6.9383,-6.8605,-6.7793,-6.7117,-6.6406,-3.1575,-3.3305,-3.4981,-3.5938,0.0,0.0,0.0,0.0,0.0,0.0,0.0,0.0,0.0,0.0,0.0,0.0,0.0,0.0,0.0,0.0,0.0,0.0,0.0,0.0,0.0,0.0,0.0,0.0,0.0,0.0,0.0,-7.4762,-7.3747,-7.2428,-7.1954,-7.1582,-7.1312,-7.1312,-7.1312,-7.1312,-7.1312,-7.1447,-7.1718,-7.1447,-7.1447,-7.1718,-7.1447,-7.1312,-7.1312,-7.1312,-7.1312,-7.1312,-7.1312,-7.1312,-7.1312,-7.1312,-7.1312,-7.1312,-7.1312,-7.1312,-7.1312,-7.1312,-7.1312,-7.1312,-7.1312,-7.1312,-7.1312,-7.1312,-7.1312,-7.1413,-7.1853,-7.2056,-7.2496,-7.3849,-7.4255,-7.4796,-7.6521,-7.6893,-7.713,-7.7841,-7.8382,-7.8788,-7.9058,-7.9498,-7.987,-8.0175,-8.0209,-8.0209,-8.0209,-8.0209,-7.9938,-7.9194,-7.845,-7.7502,-7.6251,-7.6082,-7.6082,-7.6149,-7.4221,-7.3071,-7.3071,-7.2394,-7.1785,-7.1312,-7.1312,-7.0939,-7.0195,-6.9925,-6.9383,-6.8639,-6.7861,-6.732,-3.1008,-3.2856,-3.4981,0.0,0.0,0.0,0.0,0.0,0.0,0.0,0.0,0.0,0.0,0.0,0.0,0.0,0.0,0.0,0.0,0.0,0.0,0.0,0.0,0.0,0.0,0.0,0.0,0.0,0.0,0.0,0.0,-7.3544,-7.28,-7.209,-7.1582,-7.1312,-7.1312,-7.1312,-7.1312,-7.1312,-7.1312,-7.1312,-7.1312,-7.1312,-7.1312,-7.1312,-7.1312,-7.1312,-7.1312,-7.1312,-7.1312,-7.1312,-7.1312,-7.1312,-7.1312,-7.1312,-7.1312,-7.1312,-7.1312,-7.1312,-7.1312,-7.1312,-7.1312,-7.1312,-7.1312,-7.1312,-7.1312,-7.1312,-7.1481,-7.1819,-7.2563,-7.2191,-7.2157,-7.4153,-7.4221,-7.4458,-7.6758,-7.7232,-7.7536,-7.8483,-7.9092,-7.9464,-7.9464,-7.987,-8.0209,-8.0209,-8.0209,-8.0209,-8.0209,-8.0209,-7.9938,-7.9194,-7.845,-7.757,-7.6521,-7.6724,-7.6657,-7.6115,-7.4661,-7.3713,-7.351,-7.28,-7.2056,-7.1312,-7.1312,-7.1075,-7.0534,-7.0297,-6.9925,-6.9417,-6.8368,-6.7895,-3.0522,-3.1539,0.0,0.0,0.0,0.0,0.0,0.0,0.0,0.0,0.0,0.0,0.0,0.0,0.0,0.0,0.0,0.0,0.0,0.0,0.0,0.0,0.0,0.0,0.0,0.0,0.0,0.0,0.0,0.0,0.0,-7.28,-7.2056,-7.1345,-7.1312,-7.1312,-7.1312,-7.1312,-7.1312,-7.1312,-7.1312,-7.1312,-7.1312,-7.1312,-7.1312,-7.1312,-7.1312,-7.1312,-7.1312,-7.1312,-7.1312,-7.1312,-7.1312,-7.1312,-7.1312,-7.1312,-7.1312,-7.1312,-7.1312,-7.1312,-7.1312,-7.1312,-7.1312,-7.1312,-7.1312,-7.1312,-7.1312,-7.1312,-7.1853,-7.2563,-7.3274,-7.2935,-7.2766,-7.4255,-7.4627,-7.5236,-7.7502,-7.7976,-7.8416,-7.9904,-8.0209,-8.0209,-8.0209,-8.0209,-8.0209,-8.0209,-8.0209,-8.0209,-8.0209,-8.0209,-7.9938,-7.9194,-7.845,-7.7976,-7.7976,-7.7299,-7.6893,-7.6893,-7.5473,-7.4289,-7.351,-7.28,-7.2056,-7.1312,-7.1312,-7.1312,-7.1312,-7.0567,-7.0195,-7.0161,-6.8639,-6.7929,-3.2617,0.0,0.0,0.0,0.0,0.0,0.0,0.0,0.0,0.0,0.0,0.0,0.0,0.0,0.0,0.0,0.0,0.0,0.0,0.0,0.0,0.0,0.0,0.0,0.0,0.0,0.0,0.0,0.0,0.0,0.0,-7.1751,-7.1548,-7.1312,-7.1312,-7.1312,-7.1312,-7.1312,-7.1312,-7.1312,-7.1312,-7.1312,-7.1312,-7.1312,-7.1312,-7.1312,-7.1312,-7.1312,-7.1312,-7.1312,-7.1312,-7.1312,-7.1312,-7.1312,-7.1312,-7.1312,-7.1312,-7.1312,-7.1312,-7.1312,-7.1312,-7.1312,-7.1312,-7.1312,-7.1312,-7.1312,-7.1312,-7.1312,-7.1481,-7.1819,-7.2529,-7.2563,-7.2902,-7.4897,-7.4999,-7.5236,-7.7502,-7.7976,-7.8416,-7.9904,-8.0209,-8.0209,-8.0209,-8.0209,-8.0209,-8.0209,-8.0209,-8.0209,-8.0209,-8.0209,-7.9938,-7.9194,-7.8923,-7.8348,-7.7299,-7.7029,-7.6657,-7.6082,-7.5134,-7.4289,-7.351,-7.28,-7.2056,-7.1312,-7.1312,-7.1312,-7.1312,-7.1075,-7.0973,-7.0973,-6.9958,-6.9519,0.0,0.0,0.0,0.0,0.0,0.0,0.0,0.0,0.0,0.0,0.0,0.0,0.0,0.0,0.0,0.0,0.0,0.0,0.0,0.0,0.0,0.0,0.0,0.0,0.0,0.0,0.0,0.0,0.0,0.0,0.0,-7.1041,-7.0872,-7.0872,-7.0872,-7.0872,-7.0872,-7.0872,-7.0872,-7.0872,-7.0872,-7.0703,-7.0466,-7.1041,-7.1312,-7.1312,-7.1312,-7.1312,-7.1312,-7.1312,-7.1312,-7.1312,-7.1312,-7.1312,-7.1312,-7.1312,-7.1312,-7.1312,-7.1312,-7.1312,-7.1312,-7.1312,-7.1312,-7.1312,-7.1312,-7.1312,-7.1312,-7.1312,-7.1515,-7.1853,-7.2293,-7.2631,-7.324,-7.4864,-7.4931,-7.5168,-7.713,-7.7773,-7.8348,-7.9532,-8.0006,-8.0209,-8.0209,-8.0209,-8.0209,-8.0209,-8.0209,-8.0209,-8.0209,-8.0209,-8.004,-7.96,-7.9295,-7.8619,-7.7435,-7.7063,-7.6555,-7.5743,-7.4728,-7.395,-7.351,-7.28,-7.2056,-7.1312,-7.1312,-7.1312,-7.1312,-7.1312,-7.1312,-7.1312,-7.0534,-7.0195,0.0,0.0,0.0,0.0,0.0,0.0,0.0,0.0,0.0,0.0,0.0,0.0,0.0,0.0,0.0,0.0,0.0,0.0,0.0,0.0,0.0,0.0,0.0,0.0,0.0,0.0,0.0,0.0,0.0,0.0,0.0,-7.0567,-7.0161,-7.0094,-7.0094,-7.0094,-7.0094,-7.0094,-7.0094,-7.0094,-7.0094,-6.9755,-6.9147,-7.0567,-7.121,-7.121,-7.121,-7.1244,-7.1312,-7.1312,-7.1312,-7.1312,-7.1312,-7.1312,-7.1312,-7.1312,-7.1312,-7.1312,-7.1312,-7.1312,-7.1312,-7.1312,-7.1312,-7.1312,-7.1312,-7.1312,-7.1312,-7.1312,-7.1785,-7.2293,-7.2293,-7.2834,-7.3544,-7.4255,-7.4525,-7.5033,-7.6555,-7.7435,-7.8145,-7.8957,-7.9634,-8.0107,-8.0175,-8.0209,-8.0209,-8.0209,-8.0209,-8.0209,-8.0209,-8.0209,-8.0175,-8.0107,-7.9431,-7.872,-7.7942,-7.7198,-7.6487,-7.5743,-7.4356,-7.3544,-7.3477,-7.2732,-7.1988,-7.1312,-7.1312,-7.1312,-7.1312,-7.1312,-7.1312,-7.1312,-7.0601,-7.0297,0.0,0.0,0.0,0.0,0.0,0.0,0.0,0.0,0.0,0.0,0.0,0.0,0.0,0.0,0.0,0.0,0.0,0.0,0.0,0.0,0.0,0.0,0.0,0.0,0.0,0.0,0.0,0.0,0.0,0.0,-7.0466,-7.0263,-6.9925,-6.935,-6.935,-6.935,-6.935,-6.935,-6.935,0.0,-6.935,-6.9248,-6.9147,-7.0026,-7.0432,-7.0432,-7.0432,-7.077,-7.1312,-7.1312,-7.1312,-7.1312,-7.1312,-7.1312,-7.1312,-7.1312,-7.1312,-7.1312,-7.1312,-7.1312,-7.1312,-7.1312,-7.1312,-7.1312,-7.1312,-7.1312,-7.1312,-7.1312,-7.1413,-7.1548,-7.1548,-7.209,-7.2665,-7.2834,-7.3781,-7.5033,-7.6555,-7.7029,-7.7536,-7.8855,-7.9228,-7.9532,-8.0107,-8.0209,-8.0209,-8.0209,-8.0209,-8.0209,-8.0209,-8.0209,-7.9972,-7.9397,-7.8686,-7.7942,-7.7198,-7.642,-7.5879,-7.5709,-7.4864,-7.4086,-7.351,-7.2225,-7.1481,-7.1312,-7.1312,-7.1312,-7.1312,-7.1312,-7.1312,-7.1312,-7.1142,-7.1075,0.0,0.0,0.0,0.0,0.0,0.0,0.0,0.0,0.0,0.0,0.0,0.0,0.0,0.0,0.0,0.0,0.0,0.0,0.0,0.0,0.0,0.0,0.0,0.0,0.0,0.0,0.0,0.0,0.0,-7.0432,-6.9722,-6.9316,-6.891,-6.8538,-6.8199,-6.8166,-6.8504,-6.8199,-6.8199,-6.8538,-6.8538,-6.8538,-6.8538,-6.9316,-6.9654,-6.9654,-6.9654,-6.9891,-7.0263,-7.0635,-7.077,-7.0804,-7.1176,-7.1312,-7.1312,-7.1312,-7.1312,-7.1312,-7.1312,-7.1312,-7.1312,-7.1312,-7.1312,-7.1312,-7.1312,-7.1312,-7.1312,-7.1312,-7.1312,-7.1312,-7.1312,-7.1616,-7.1954,-7.2326,-7.3544,-7.483,-7.5642,-7.6386,-7.713,-7.7908,-7.8619,-7.9228,-7.9634,-7.9972,-8.0209,-8.0209,-8.0209,-8.0209,-8.0209,-7.9904,-7.9532,-7.916,-7.8111,-7.7299,-7.6927,-7.6149,-7.5709,-7.5709,-7.4999,-7.4424,-7.4052,-7.2597,-7.1684,-7.1312,-7.1312,-7.1312,-7.1312,-7.1312,-7.1312,-7.1312,-7.1312,-7.1312,0.0,0.0,0.0,0.0,0.0,0.0,0.0,0.0,0.0,0.0,0.0,0.0,0.0,0.0,0.0,0.0,0.0,0.0,0.0,0.0,0.0,0.0,0.0,0.0,0.0,0.0,0.0,0.0,0.0,-6.9688,-6.8944,-6.8132,-6.7658,-6.7523,-6.6812,-6.6711,-6.732,-6.6745,-6.6745,-6.732,-6.732,-6.732,-6.7354,-6.8166,-6.8639,-6.8876,-6.8876,-6.8977,-6.9147,-6.9891,-7.0195,-7.0263,-7.1007,-7.1312,-7.1312,-7.1312,-7.1312,-7.1312,-7.1312,-7.1312,-7.1312,-7.1312,-7.1312,-7.1312,-7.1312,-7.1312,-7.1312,-7.1312,-7.1312,-7.1312,-7.1312,-7.1312,-7.1447,-7.209,-7.3341,-7.4458,-7.4593,-7.5608,-7.6589,-7.686,-7.8111,-7.916,-7.9295,-7.9803,-8.0209,-8.0209,-8.0209,-8.0141,-8.004,-7.9498,-7.9025,-7.8754,-7.7638,-7.6826,-7.669,-7.6082,-7.5709,-7.5709,-7.5134,-7.4728,-7.4627,-7.3308,-7.2225,-7.1515,-7.1379,-7.1312,-7.1312,-7.1312,-7.1312,-7.1312,-7.1312,-7.1312,0.0,0.0,0.0,0.0,0.0,0.0,0.0,0.0,0.0,0.0,0.0,0.0,0.0,0.0,0.0,0.0,0.0,0.0,0.0,0.0,0.0,0.0,0.0,0.0,0.0,0.0,0.0,0.0,-6.9248,-6.891,-6.8098,-6.7354,-6.6643,-6.6,-6.529,-6.4952,-6.5053,-6.4952,-6.4952,-6.5053,-6.5053,-6.5053,-6.5087,-6.5797,-6.6846,-6.8064,-6.8064,-6.847,-6.9147,-6.9891,-7.0195,-7.0263,-7.1007,-7.1312,-7.1312,-7.1312,-7.1312,-7.1312,-7.1312,-7.1312,-7.1312,-7.1312,-7.1312,-7.1312,-7.1312,-7.1312,-7.1312,-7.1312,-7.1312,-7.1312,-7.1312,-7.1312,-7.1345,-7.1447,-7.2563,-7.3815,-7.4458,-7.4762,-7.5303,-7.6657,-7.8111,-7.9295,-7.9938,-8.0141,-8.0209,-8.0209,-8.0209,-7.9972,-7.9329,-7.916,-7.8619,-7.7333,-7.7029,-7.6623,-7.5912,-7.5743,-7.5709,-7.5709,-7.5608,-7.527,-7.4627,-7.3781,-7.3003,-7.2259,-7.165,-7.1312,-7.1312,-7.1312,-7.1312,-7.1312,-7.1312,-7.1312,0.0,0.0,0.0,0.0,0.0,0.0,0.0,0.0,0.0,0.0,0.0,0.0,0.0,0.0,0.0,0.0,0.0,0.0,0.0,0.0,0.0,0.0,0.0,0.0,0.0,0.0,0.0,0.0,-6.8064,-6.7199,-6.5755,-6.4934,-6.44,-6.4067,-6.3333,-6.3533,-6.4613,-6.4208,-6.4208,-6.4613,-6.4613,-6.4613,-6.4613,-6.4918,-6.5662,-6.6677,-6.7117,-6.7489,-6.7861,-6.8605,-6.918,-6.9654,-7.0398,-7.0939,-7.1312,-7.1312,-7.1312,-7.1312,-7.1312,-7.1312,-7.1312,-7.1312,-7.1312,-7.1312,-7.1312,-7.1312,-7.1312,-7.1312,-7.1312,-7.1312,-7.1312,-7.1312,-7.1312,-7.1312,-7.2124,-7.3071,-7.3815,-7.4627,-7.5676,-7.7198,-7.8044,-7.8855,-8.0006,-8.0209,-8.0209,-8.0209,-8.0209,-7.9938,-7.9194,-7.8754,-7.8077,-7.7029,-7.6487,-7.6082,-7.5743,-7.5709,-7.5709,-7.5709,-7.5709,-7.554,-7.5236,-7.4086,-7.3341,-7.3003,-7.1887,-7.1312,-7.1312,-7.1312,-7.1312,-7.1312,-7.1312,-7.1312,0.0,0.0,0.0,0.0,0.0,0.0,0.0,0.0,0.0,0.0,0.0,0.0,0.0,0.0,0.0,0.0,0.0,0.0,0.0,0.0,0.0,0.0,0.0,0.0,0.0,0.0,0.0,0.0,-6.6289,-6.5139,-6.3672,-6.2684,-6.2202,-6.2464,-6.1574,-6.2,-6.3768,-6.3024,-6.2922,-6.3463,-6.3666,-6.3768,-6.3768,-6.414,-6.4613,-6.5189,-6.6136,-6.6643,-6.688,-6.759,-6.8267,-6.8876,-6.962,-7.0364,-7.1041,-7.1041,-7.1142,-7.1312,-7.1312,-7.1312,-7.1312,-7.1312,-7.1312,-7.1312,-7.1312,-7.1312,-7.1312,-7.1312,-7.1312,-7.1312,-7.1312,-7.1312,-7.1312,-7.1312,-7.2022,-7.2868,-7.3612,-7.4796,-7.6082,-7.7435,-7.7874,-7.8382,-7.9701,-8.0073,-8.0209,-8.0209,-8.004,-7.9667,-7.8923,-7.8179,-7.7435,-7.669,-7.6048,-7.5709,-7.5709,-7.5709,-7.5709,-7.5709,-7.5709,-7.5709,-7.5709,-7.4255,-7.3477,-7.3477,-7.2056,-7.1312,-7.1312,-7.1312,-7.1312,-7.1312,-7.1312,-7.1312,0.0,0.0,0.0,0.0,0.0,0.0,0.0,0.0,0.0,0.0,0.0,0.0,0.0,0.0,0.0,0.0,0.0,0.0,0.0,0.0,0.0,0.0,0.0,0.0,0.0,0.0,0.0,0.0,-6.37,-6.2946,-6.288,-6.1101,-6.0623,-6.1706,-6.0355,-6.0156,-6.1467,-6.0689,-6.0283,-6.0351,-6.1129,-6.1467,-6.1535,-6.2922,-6.3599,-6.37,-6.5121,-6.6136,-6.688,-6.759,-6.7929,-6.803,-6.8842,-6.962,-7.0263,-7.0263,-7.0703,-7.1312,-7.1312,-7.1312,-7.1312,-7.1312,-7.1312,-7.1312,-7.1312,-7.1312,-7.1312,-7.1312,-7.1312,-7.1312,-7.1312,-7.1312,-7.1312,-7.1312,-7.2394,-7.3646,-7.439,-7.5168,-7.5946,-7.6792,-7.7502,-7.8247,-7.9025,-7.9735,-8.0209,-8.0209,-7.96,-7.8889,-7.8145,-7.7401,-7.6657,-7.5845,-7.5709,-7.5709,-7.5709,-7.5709,-7.5709,-7.5709,-7.5709,-7.5709,-7.5709,-7.4255,-7.3477,-7.3477,-7.2056,-7.1312,-7.1312,-7.1312,-7.1312,-7.1312,-7.1312,-7.1312,0.0,0.0,0.0,0.0,0.0,0.0,0.0,0.0,0.0,0.0,0.0,0.0,0.0,0.0,0.0,0.0,0.0,0.0,0.0,0.0,0.0,0.0,0.0,0.0,0.0,0.0,0.0,0.0,0.0,-5.929,-5.8573,-5.7393,-5.6924,-5.7375,-5.7602,-5.861,-6.052,-6.025,-6.0114,-6.0114,-6.0385,-6.052,-6.0554,-6.1603,-6.2347,-6.2854,-6.3869,-6.4986,-6.6102,-6.6373,-6.7049,-6.7929,-6.8233,-6.9079,-7.0195,-7.0195,-7.0669,-7.1312,-7.1312,-7.1312,-7.1312,-7.1312,-7.1312,-7.1312,-7.1312,-7.1312,-7.1312,-7.1312,-7.1312,-7.1312,-7.1312,-7.1312,-7.1548,-7.2496,-7.3105,-7.3815,-7.5033,-7.5506,-7.5946,-7.6758,-7.7096,-7.7671,-7.8889,-7.9329,-7.9667,-8.0141,-7.9566,-7.8822,-7.8077,-7.7367,-7.6589,-7.5777,-7.5709,-7.5709,-7.5709,-7.5709,-7.5709,-7.5709,-7.5709,-7.5709,-7.5709,-7.4255,-7.3477,-7.3477,-7.2056,-7.1312,-7.1312,-7.1312,-7.1312,-7.1312,-7.1312,-7.1312,0.0,0.0,0.0,0.0,0.0,0.0,0.0,0.0,0.0,0.0,0.0,0.0,0.0,0.0,0.0,0.0,0.0,0.0,0.0,0.0,0.0,0.0,0.0,0.0,0.0,0.0,0.0,0.0,0.0,0.0,-5.5782,-5.4915,-5.4669,-5.5207,-5.6349,-5.7674,-5.937,-5.937,-5.937,-5.937,-5.9607,-5.9742,-5.9776,-6.0554,-6.1298,-6.2042,-6.255,-6.3734,-6.5358,-6.5595,-6.6271,-6.7184,-6.7421,-6.8301,-6.9451,-6.9722,-7.0297,-7.0973,-7.121,-7.1312,-7.1312,-7.1312,-7.1312,-7.1312,-7.1312,-7.1312,-7.1312,-7.1312,-7.1312,-7.1312,-7.1312,-7.1312,-7.1616,-7.2834,-7.3308,-7.3815,-7.5067,-7.554,-7.5845,-7.6386,-7.6724,-7.7299,-7.8517,-7.8957,-7.9363,-8.0073,-7.9363,-7.8551,-7.8044,-7.7096,-7.6284,-7.5743,-7.5473,-7.5439,-7.5676,-7.5473,-7.5439,-7.5676,-7.5709,-7.5709,-7.5709,-7.4525,-7.3747,-7.3477,-7.2293,-7.1548,-7.1312,-7.1312,-7.1312,-7.1312,-7.1312,-7.1312,0.0,0.0,0.0,0.0,0.0,0.0,0.0,0.0,0.0,0.0,0.0,0.0,0.0,0.0,0.0,0.0,0.0,0.0,0.0,0.0,0.0,0.0,0.0,0.0,0.0,0.0,0.0,0.0,-5.5516,-5.4822,-5.4822,-5.3698,-5.3835,-5.5378,-5.658,-5.7399,-5.7741,-5.7814,-5.7814,-5.7881,-5.8592,-5.8964,-5.8998,-5.9742,-6.0486,-6.1231,-6.1298,-6.2516,-6.4546,-6.5324,-6.5662,-6.5764,-6.6508,-6.7252,-6.7996,-6.8774,-6.9553,-7.0297,-7.1041,-7.1312,-7.1312,-7.1312,-7.1312,-7.1312,-7.1312,-7.1312,-7.1312,-7.1312,-7.1312,-7.1312,-7.1312,-7.1312,-7.1515,-7.2225,-7.2935,-7.368,-7.4458,-7.5168,-7.5676,-7.5709,-7.6318,-7.7096,-7.7874,-7.8585,-7.9295,-8.004,-7.8889,-7.7942,-7.7942,-7.6623,-7.5709,-7.5709,-7.5067,-7.4931,-7.5642,-7.5033,-7.4931,-7.5642,-7.5709,-7.5676,-7.5676,-7.4999,-7.4255,-7.3477,-7.2766,-7.2056,-7.1312,-7.1312,-7.1312,-7.1312,-7.1312,-7.1312,-3.2946,0.0,0.0,0.0,0.0,0.0,0.0,0.0,0.0,0.0,0.0,0.0,0.0,0.0,0.0,0.0,0.0,0.0,0.0,0.0,0.0,0.0,0.0,0.0,0.0,0.0,0.0,0.0,-5.1506,-5.085,-5.085,-5.0515,-5.0909,-5.2175,-5.2513,-5.3488,-5.514,-5.514,-5.581,-5.7103,-5.7306,-5.7679,-5.822,-5.8964,-5.9438,-5.9708,-6.0825,-6.1637,-6.2313,-6.3599,-6.4749,-6.5696,-6.5899,-6.6779,-6.7929,-6.8166,-6.9079,-7.0229,-7.0432,-7.0872,-7.1312,-7.1312,-7.1312,-7.1312,-7.1312,-7.1312,-7.1312,-7.1312,-7.1312,-7.1312,-7.1312,-7.1312,-7.1515,-7.2225,-7.2563,-7.3037,-7.4356,-7.4762,-7.5067,-7.5608,-7.5879,-7.6454,-7.7773,-7.7739,-7.7942,-7.9228,-7.8145,-7.7198,-7.7198,-7.6318,-7.5709,-7.5709,-7.5506,-7.5473,-7.5676,-7.5506,-7.5473,-7.5676,-7.5709,-7.5473,-7.4931,-7.4728,-7.4018,-7.2732,-7.2496,-7.2056,-7.1312,-7.1312,-7.1312,-7.1312,-7.1312,-7.1312,-3.3484,-3.3215,-3.2976,0.0,0.0,0.0,0.0,-3.3484,0.0,0.0,0.0,0.0,0.0,0.0,0.0,0.0,0.0,0.0,0.0,0.0,0.0,0.0,0.0,0.0,0.0,-5.0441,-5.0197,-5.0197,-4.9672,-4.9254,-4.9254,-4.9254,-4.9995,-5.1497,-5.158,-5.2365,-5.4063,-5.4063,-5.4593,-5.5682,-5.6017,-5.6606,-5.7476,-5.822,-5.8727,-5.9066,-5.9945,-6.0723,-6.1366,-6.2245,-6.3463,-6.4816,-6.5121,-6.5933,-6.7015,-6.732,-6.8402,-6.9789,-7.0094,-7.0669,-7.1312,-7.1312,-7.1312,-7.1312,-7.1312,-7.1312,-7.1312,-7.1312,-7.1312,-7.1312,-7.1312,-7.1312,-7.1413,-7.1853,-7.2191,-7.2732,-7.3883,-7.439,-7.483,-7.5574,-7.5709,-7.6082,-7.7333,-7.7164,-7.7299,-7.8483,-7.7638,-7.6893,-7.6893,-7.6183,-7.5709,-7.5709,-7.5134,-7.4897,-7.5202,-7.4965,-7.4897,-7.5236,-7.554,-7.5371,-7.4661,-7.4627,-7.3916,-7.2428,-7.2394,-7.2056,-7.1312,-7.1312,-7.1312,-7.1312,-7.1312,-7.1007,-3.3694,-3.3724,-3.3844,-3.4352,-3.3664,0.0,-3.2018,-3.2258,-3.3006,0.0,0.0,0.0,0.0,0.0,0.0,0.0,0.0,0.0,0.0,0.0,0.0,0.0,0.0,0.0,-4.8775,-4.8895,-4.8955,-4.8955,-4.9015,-4.9045,-4.9045,-4.9045,-4.9927,-5.1851,-5.198,-5.257,-5.3498,-5.3757,-5.3865,-5.3964,-5.4774,-5.5762,-5.6833,-5.7476,-5.8186,-5.8896,-5.8964,-5.9844,-6.1163,-6.1264,-6.2178,-6.3599,-6.4241,-6.4986,-6.5764,-6.644,-6.7658,-6.9045,-6.9722,-7.05,-7.1176,-7.1176,-7.1244,-7.1312,-7.1312,-7.1312,-7.1312,-7.1312,-7.1312,-7.1312,-7.1312,-7.1312,-7.1312,-7.1312,-7.1819,-7.2496,-7.3308,-7.4018,-7.4728,-7.554,-7.5709,-7.5946,-7.6758,-7.6826,-7.6995,-7.7638,-7.7198,-7.6724,-7.6555,-7.598,-7.5574,-7.5574,-7.439,-7.3883,-7.4559,-7.3984,-7.3849,-7.4458,-7.51,-7.5134,-7.439,-7.4458,-7.3781,-7.2326,-7.2293,-7.1954,-7.1312,-7.1312,-7.1312,-7.1312,-7.1098,-7.0389,-3.4951,-3.51,-3.5011,-3.4592,-3.4711,0.0,-3.4053,-3.3604,-3.3694,0.0,0.0,0.0,0.0,0.0,0.0,0.0,0.0,0.0,0.0,0.0,0.0,0.0,0.0,0.0,-4.6052,-4.6561,-4.689,-4.689,-4.7399,-4.7698,-4.7698,-4.7698,-4.7842,-4.8298,-4.9078,-4.9622,-4.9833,-5.1469,-5.2613,-5.3247,-5.4238,-5.5474,-5.6799,-5.6934,-5.7408,-5.8152,-5.8761,-5.9505,-6.0385,-6.1028,-6.2178,-6.3531,-6.3666,-6.4546,-6.5696,-6.5865,-6.6846,-6.8166,-6.8301,-6.9248,-7.0398,-7.0398,-7.0804,-7.1312,-7.1312,-7.1312,-7.1312,-7.1312,-7.1312,-7.1312,-7.1312,-7.1312,-7.1312,-7.1312,-7.1413,-7.1887,-7.3206,-7.3612,-7.4086,-7.5439,-7.5709,-7.5946,-7.6758,-7.6352,-7.598,-7.6115,-7.6014,-7.5506,-7.4322,-7.4525,-7.483,-7.483,-7.4559,-7.4458,-7.4593,-7.4492,-7.4187,-7.3713,-7.3849,-7.3578,-7.2868,-7.3409,-7.3003,-7.1548,-7.1515,-7.1447,-7.1312,-7.1312,-7.1312,-7.1312,-7.017,-6.9409,0.0,-3.5519,0.0,-3.507,-3.4741,0.0,0.0,-3.2736,0.0,0.0,0.0,0.0,0.0,0.0,0.0,0.0,0.0,0.0,0.0,0.0,0.0,0.0,0.0,0.0,-4.4317,-4.4915,-4.5454,-4.5783,-4.6112,-4.6292,-4.6292,-4.6292,-4.6695,-4.7555,-4.8019,-4.8469,-4.8841,-4.9821,-5.0788,-5.1674,-5.2589,-5.4023,-5.5716,-5.6461,-5.7002,-5.7374,-5.8118,-5.8863,-5.9607,-6.0385,-6.1366,-6.2448,-6.2821,-6.3632,-6.4613,-6.4613,-6.5764,-6.7354,-6.7354,-6.8368,-6.9654,-6.9654,-7.0161,-7.0737,-7.0737,-7.1007,-7.1312,-7.1312,-7.1312,-7.1312,-7.1312,-7.1312,-7.1312,-7.1312,-7.1312,-7.1616,-7.2699,-7.2935,-7.3375,-7.4864,-7.5168,-7.5405,-7.6183,-7.5676,-7.5168,-7.5168,-7.5168,-7.4762,-7.3612,-7.4153,-7.4458,-7.4086,-7.3713,-7.351,-7.351,-7.351,-7.3341,-7.2969,-7.3274,-7.3172,-7.2428,-7.2732,-7.2428,-7.1345,-7.1312,-7.1312,-7.1312,-7.0574,-7.0263,-7.0263,-6.9537,-6.8503,0.0,0.0,0.0,0.0,0.0,-3.4322,0.0,0.0,0.0,0.0,0.0,0.0,0.0,0.0,0.0,0.0,0.0,0.0,0.0,0.0,0.0,0.0,0.0,0.0,0.0,-4.3419,-4.4197,-4.4855,-4.4915,-4.4975,-4.5095,-4.5095,-4.5777,-4.7281,-4.7552,-4.7942,-4.8624,-4.8786,-4.9458,-5.0703,-5.1282,-5.2622,-5.4634,-5.5818,-5.6528,-5.6833,-5.7408,-5.8186,-5.9066,-5.9641,-6.0452,-6.1366,-6.211,-6.2854,-6.3531,-6.3531,-6.4816,-6.6609,-6.6609,-6.759,-6.8876,-6.8876,-6.9451,-7.0229,-7.0364,-7.0838,-7.1312,-7.1312,-7.1312,-7.1312,-7.1312,-7.1312,-7.1312,-7.1312,-7.1312,-7.1515,-7.2225,-7.2394,-7.28,-7.4119,-7.439,-7.4661,-7.554,-7.51,-7.4559,-7.4424,-7.439,-7.4086,-7.3172,-7.3713,-7.395,-7.3341,-7.2766,-7.2394,-7.2394,-7.2394,-7.2326,-7.2191,-7.2732,-7.28,-7.2225,-7.2191,-7.1921,-7.1312,-7.1312,-7.1222,-7.0882,-6.9727,-6.9217,-6.9217,-6.8699,-6.7266,0.0,0.0,0.0,0.0,-3.7584,-3.7943,0.0,0.0,-3.3724,-3.2706,0.0,0.0,0.0,0.0,0.0,0.0,0.0,0.0,0.0,0.0,0.0,0.0,0.0,0.0,0.0,-4.1504,-4.2851,-4.3509,-4.3569,-4.3808,-4.4407,-4.4436,-4.4788,-4.553,-4.6555,-4.7339,-4.7911,-4.8825,-5.0134,-5.1776,-5.1842,-5.2848,-5.46,-5.4769,-5.5547,-5.6799,-5.69,-5.7712,-5.9032,-5.9099,-5.9979,-6.1366,-6.211,-6.2854,-6.3531,-6.3531,-6.4478,-6.5797,-6.5797,-6.6779,-6.803,-6.803,-6.9011,-7.0297,-7.0973,-7.1244,-7.1312,-7.1312,-7.1312,-7.1312,-7.1312,-7.1312,-7.1312,-7.1312,-7.1312,-7.1515,-7.2225,-7.2394,-7.2631,-7.3443,-7.3612,-7.4052,-7.5473,-7.51,-7.439,-7.3713,-7.3612,-7.3105,-7.1751,-7.2191,-7.2631,-7.2529,-7.2462,-7.2394,-7.2394,-7.2394,-7.2124,-7.1481,-7.1515,-7.1515,-7.1447,-7.1447,-7.1413,-7.1312,-7.1312,-7.0699,-6.9409,-6.9313,-6.9217,-6.9088,-6.6647,-6.5436,0.0,0.0,0.0,0.0,0.0,0.0,-3.5639,-3.4472,-3.3873,-3.3694,0.0,0.0,0.0,0.0,0.0,0.0,-3.1719,0.0,0.0,0.0,0.0,0.0,0.0,0.0,0.0,0.0,0.0,0.0,-4.1055,-4.1175,-4.1444,-4.2551,-4.3479,-4.4137,-4.4981,-4.592,-4.6902,-4.7364,-4.8448,-5.0133,-5.0133,-5.1135,-5.3023,-5.3494,-5.4582,-5.619,-5.663,-5.7408,-5.8389,-5.8829,-5.9404,-6.008,-6.1298,-6.2212,-6.2854,-6.2854,-6.3802,-6.5053,-6.5053,-6.6034,-6.7354,-6.776,-6.8639,-6.9688,-7.0432,-7.0973,-7.1312,-7.1312,-7.1312,-7.1312,-7.1312,-7.1312,-7.1312,-7.1312,-7.1312,-7.1413,-7.1718,-7.1751,-7.1988,-7.2699,-7.2868,-7.3172,-7.4221,-7.3815,-7.3375,-7.3477,-7.3138,-7.2496,-7.1447,-7.1954,-7.2225,-7.1819,-7.1751,-7.1751,-7.1751,-7.1751,-7.165,-7.1345,-7.1312,-7.1312,-7.1312,-7.1312,-7.1312,-7.1312,-7.1312,-7.0574,-6.9217,-6.8405,-6.7572,-6.6751,-6.562,-6.4703,-4.0064,0.0,0.0,0.0,0.0,0.0,-3.6387,-3.513,-3.4352,-3.4442,-3.3873,0.0,0.0,0.0,-3.2168,-3.2467,0.0,-3.127,0.0,0.0,0.0,0.0,0.0,0.0,0.0,0.0,0.0,-3.8003,-3.8242,-3.8482,-3.8841,-4.0576,-4.2013,-4.303,-4.3718,-4.4839,-4.6411,-4.619,-4.7137,-4.9215,-4.8891,-4.9899,-5.1921,-5.2448,-5.3723,-5.5446,-5.619,-5.6934,-5.7645,-5.8389,-5.8829,-5.9133,-6.0452,-6.1434,-6.211,-6.2313,-6.3193,-6.4343,-6.4546,-6.5561,-6.6948,-6.7658,-6.8436,-6.9248,-6.9958,-7.0737,-7.1312,-7.1312,-7.1312,-7.1312,-7.1312,-7.1312,-7.1312,-7.1312,-7.1312,-7.1312,-7.1312,-7.1312,-7.1481,-7.1988,-7.209,-7.2326,-7.3071,-7.2732,-7.2563,-7.3105,-7.2563,-7.1921,-7.1379,-7.1785,-7.1887,-7.1379,-7.1312,-7.1312,-7.1312,-7.1312,-7.1312,-7.1312,-7.1312,-7.1312,-7.1312,-7.1312,-7.1312,-7.1312,-7.1312,-7.0482,-6.8699,-6.7673,-6.6259,-6.4512,-6.4512,-6.3984,0.0,0.0,0.0,-4.1474,0.0,0.0,-3.7494,-3.6836,-3.6028,-3.4741,-3.4981,-3.5011,-3.3724,-3.3455,-3.3215,-3.2617,-3.2467,0.0,0.0,0.0,0.0,0.0,0.0,0.0,0.0,0.0,0.0,-3.4681,-3.525,-3.6178,-3.7404,-3.8781,-4.0397,-4.2342,-4.303,-4.4437,-4.6826,-4.5849,-4.7058,-5.032,-4.9296,-4.9899,-5.1921,-5.1921,-5.2886,-5.4668,-5.5446,-5.6156,-5.69,-5.7611,-5.8355,-5.9099,-5.9844,-6.0622,-6.1434,-6.2144,-6.2888,-6.3666,-6.4343,-6.5561,-6.6948,-6.7658,-6.8436,-6.9248,-6.9958,-7.0737,-7.1312,-7.1312,-7.1312,-7.1312,-7.1312,-7.1312,-7.1312,-7.1312,-7.1312,-7.1312,-7.1312,-7.1312,-7.1312,-7.1345,-7.1345,-7.1582,-7.2326,-7.2428,-7.2394,-7.2428,-7.1819,-7.1345,-7.1312,-7.1345,-7.1345,-7.1312,-7.1312,-7.1312,-7.1312,-7.1312,-7.1312,-7.1312,-7.1312,-7.1312,-7.1312,-7.1312,-7.1312,-7.1312,-7.1312,-6.9982,-6.7266,-6.7164,-6.5835,-6.3194,-6.3194,-6.3194,-4.2735,-4.4352,-4.5274,-4.3718,-4.2491,-4.1025,-3.8601,-3.7554,-3.6716,-3.5429,-3.5699,-3.5729,-3.4382,-3.3425,-3.2766,-3.2557,-3.2138,-3.1719,0.0,0.0,0.0,0.0,0.0,0.0,0.0,0.0,0.0,-3.3125,-3.3006,-3.3634,-3.537,-3.7135,-3.92,-4.1624,-4.2342,-4.3747,-4.5819,-4.544,-4.635,-4.8324,-4.7988,-4.8512,-4.9899,-5.0627,-5.1843,-5.3656,-5.5063,-5.6122,-5.6867,-5.7577,-5.8051,-5.8389,-5.9607,-6.0283,-6.0655,-6.1907,-6.2854,-6.37,-6.4884,-6.5967,-6.6846,-6.7117,-6.7692,-6.8436,-6.9214,-6.9992,-7.0669,-7.1176,-7.1312,-7.1312,-7.1312,-7.1312,-7.1312,-7.1312,-7.1312,-7.1312,-7.1312,-7.1312,-7.1312,-7.1312,-7.1312,-7.1379,-7.165,-7.1684,-7.1853,-7.2326,-7.1785,-7.1312,-7.1312,-7.1312,-7.1312,-7.1312,-7.1312,-7.1312,-7.1312,-7.1312,-7.1312,-7.1312,-7.1312,-7.1312,-7.1312,-7.1312,-7.1312,-7.1312,-7.1312,-6.9949,-6.7164,-6.7676,-6.6448,-6.3707,-6.4156,-6.3917,-4.3497,-4.5169,-4.6352,-4.5304,-4.4018,-4.2432,-4.0307,-3.9469,-3.8811,-3.7524,-3.7404,-3.7255,-3.6387,-3.4592,-3.3215,-3.3215,-3.2467,-3.175,0.0,-3.1273,0.0,0.0,0.0,0.0,0.0,0.0,-3.0941,-3.112,-3.115,-3.2018,0.0,-3.5789,-3.8153,-4.1294,-4.2013,-4.3299,-4.5274,-4.5304,-4.5963,-4.7309,-4.7309,-4.7849,-4.8841,-4.9931,-5.1189,-5.2719,-5.4787,-5.5987,-5.6494,-5.7476,-5.7881,-5.8051,-5.9505,-6.0114,-6.0283,-6.1806,-6.3024,-6.4038,-6.4986,-6.5967,-6.6812,-6.6812,-6.732,-6.8064,-6.8876,-6.962,-7.0331,-7.1109,-7.1312,-7.1312,-7.1312,-7.1312,-7.1312,-7.1312,-7.1312,-7.1312,-7.1312,-7.1312,-7.1312,-7.1312,-7.1312,-7.1312,-7.1312,-7.1312,-7.1481,-7.1954,-7.1616,-7.1312,-7.1312,-7.1312,-7.1312,-7.1312,-7.1312,-7.1312,-7.1312,-7.1312,-7.1312,-7.1312,-7.1312,-7.1312,-7.1312,-7.1312,-7.1378,-7.1654,-7.0884,-6.9516,-6.7577,-6.7293,-6.5996,-6.4006,-6.4455,-6.4216]}]]